[[{"header":{"parameterUnit":"m.s-1","parameterCategory":1,"la1":31.0,"la2":29.5877,"lo1":-88.7671,"lo2":-86.6584,"dy":0.0162,"dx":0.0185,"nx":115,"ny":88,"refTime":"2024-06-13T06:00:00:Z","depth":0,"parameterNumber":2,"parameterNumberName":"U-component_of_WINDS"},"data":[0.0,0.0,0.0,0.0,0.0,0.0,0.0,0.0,0.0,0.0,0.0,0.0,0.0,0.0,0.0,0.0,0.0,0.0,0.0,0.0,0.0,0.0,0.0,0.0,0.0,0.0,0.0,0.0,0.0,0.0,0.0,0.0,0.0,0.0,0.0,0.0,0.0,0.0,0.0,0.0,0.0,0.0,0.0,0.0,0.0,0.0,0.0,0.0,0.0,0.0,0.0,0.0,0.0,0.0,0.0,0.0,0.0,0.0,0.0,0.0,0.0,0.0,0.0,0.0,0.0,0.0,0.0,0.0,0.0,0.0,0.0,0.0,0.0,0.0,0.0,0.0,0.0,0.0,0.0,0.0,0.0,0.0,0.0,0.0,0.0,0.0,0.0,0.0,0.0,0.0,0.0,0.0,0.0,0.0,0.0,0.0,0.0,0.0,0.0,0.0,0.0,0.0,0.0,0.0,0.0,0.0,0.0,0.0,0.0,0.0,0.0,0.0,0.0,0.0,0.0,0.0,0.0,0.0,0.0,0.0,0.0,0.0,0.0,0.0,0.0,0.0,0.0,0.0,0.0,0.0,0.0,0.0,0.0,0.0,0.0,0.0,0.0,0.0,0.0,0.0,0.0,0.0,0.0,0.0,0.0,0.0,0.0,0.0,0.0,0.0,0.0,0.0,0.0,0.0,0.0,0.0,0.0,0.0,0.0,0.0,0.0,0.0,0.0,0.0,0.0,0.0,0.0,0.0,0.0,0.0,0.0,0.0,0.0,0.0,0.0,0.0,0.0,0.0,0.0,0.0,0.0,0.0,0.0,0.0,0.0,0.0,0.0,0.0,0.0,0.0,0.0,0.0,0.0,0.0,0.0,0.0,0.0,0.0,0.0,0.0,0.0,0.0,0.0,0.0,0.0,0.0,0.0,0.0,0.0,0.0,0.0,0.0,0.0,0.0,0.0,0.0,0.0,0.0,0.0,0.0,0.0,0.0,0.0,0.0,0.0,0.0,0.0,0.0,0.0,0.0,0.0,0.0,0.0,0.0,0.0,0.0,0.0,0.0,0.0,0.0,0.0,0.0,0.0,0.0,0.0,0.0,0.0,0.0,0.0,0.0,0.0,0.0,0.0,0.0,0.0,0.0,0.0,0.0,0.0,0.0,0.0,0.0,0.0,0.0,0.0,0.0,0.0,0.0,0.0,0.0,0.0,0.0,0.0,0.0,0.0,0.0,0.0,0.0,0.0,0.0,0.0,0.0,0.0,0.0,0.0,0.0,0.0,0.0,0.0,0.0,0.0,0.0,0.0,0.0,0.0,0.0,0.0,0.0,0.0,0.0,0.0,0.0,0.0,0.0,0.0,0.0,0.0,0.0,0.0,0.0,0.0,0.0,0.0,0.0,0.0,0.0,0.0,0.0,0.0,0.0,0.0,0.0,0.0,0.0,0.0,0.0,0.0,0.0,0.0,0.0,0.0,0.0,0.0,0.0,0.0,0.0,0.0,0.0,0.0,0.0,0.0,0.0,0.0,0.0,0.0,0.0,0.0,0.0,0.0,0.0,0.0,0.0,0.0,0.0,0.0,0.0,0.0,0.0,0.0,0.0,0.0,0.0,0.0,0.0,0.0,0.0,0.0,0.0,0.0,0.0,0.0,0.0,0.0,0.0,0.0,0.0,0.0,0.0,0.0,0.0,0.0,0.0,0.0,0.0,0.0,0.0,0.0,0.0,0.0,0.0,0.0,0.0,0.0,0.0,0.0,0.0,0.0,0.0,0.0,0.0,0.0,0.0,0.0,0.0,0.0,0.0,0.0,0.0,0.0,0.0,0.0,0.0,0.0,0.0,0.0,0.0,0.0,0.0,0.0,0.0,0.0,0.0,0.0,0.0,0.0,0.0,0.0,0.0,0.0,0.0,0.0,0.0,0.0,0.0,0.0,0.0,0.0,0.0,0.0,0.0,0.0,0.0,0.0,0.0,0.0,0.0,0.0,0.0,0.0,0.0,0.0,0.0,0.0,0.0,0.0,0.0,0.0,0.0,0.0,0.0,0.0,0.0,0.0,0.0,0.0,0.0,0.0,0.0,0.0,0.0,0.0,0.0,0.0,0.0,0.0,0.0,0.0,0.0,0.0,0.0,0.0,0.0,0.0,0.0,0.0,0.0,0.0,0.0,0.0,0.0,0.0,0.0,0.0,0.0,0.0,0.0,0.0,0.0,0.0,0.0,0.0,0.0,0.0,0.0,0.0,0.0,0.0,0.0,0.0,0.0,0.0,0.0,0.0,0.0,0.0,0.0,0.0,0.0,0.0,0.0,0.0,0.0,0.0,0.0,0.0,0.0,0.0,0.0,0.0,0.0,0.0,0.0,0.0,0.0,0.0,0.0,0.0,0.0,0.0,0.0,0.0,0.0,0.0,0.0,0.0,0.0,0.0,0.0,0.0,0.0,0.0,0.0,0.0,0.0,0.0,0.0,0.0,0.0,0.0,0.0,0.0,0.0,0.0,0.0,0.0,0.0,0.0,0.0,0.0,0.0,0.0,0.0,0.0,0.0,0.0,0.0,0.0,0.0,0.0,0.0,0.0,0.0,0.0,0.0,0.0,0.0,0.0,0.0,0.0,0.0,0.0,0.0,0.0,0.0,0.0,0.0,0.0,0.0,0.0,0.0,0.0,0.0,0.0,0.0,0.0,0.0,0.0,0.0,0.0,0.0,0.0,0.0,0.0,0.0,0.0,0.0,0.0,0.0,0.0,0.0,0.0,0.0,0.0,0.0,0.0,0.0,0.0,0.0,0.0,0.0,0.0,0.0,0.0,0.0,0.0,0.0,0.0,0.0,0.0,0.0,0.0,0.0,0.0,0.0,0.0,0.0,0.0,0.0,0.0,0.0,0.0,0.0,0.0,0.0,0.0,0.0,0.0,0.0,0.0,0.0,0.0,0.0,0.0,0.0,0.0,0.0,0.0,0.0,0.0,0.0,0.0,0.0,0.0,0.0,0.0,0.0,0.0,0.0,0.0,0.0,0.0,0.0,0.0,0.0,0.0,0.0,0.0,0.0,0.0,0.0,0.0,0.0,0.0,0.0,0.0,0.0,0.0,0.0,0.0,0.0,0.0,0.0,0.0,0.0,0.0,0.0,0.0,0.0,0.0,0.0,0.0,0.0,0.0,0.0,0.0,0.0,0.0,0.0,0.0,0.0,0.0,0.0,0.0,0.0,0.0,0.0,0.0,0.0,0.0,0.0,0.0,0.0,0.0,0.0,0.0,0.0,0.0,0.0,0.0,0.0,0.0,0.0,0.0,0.0,0.0,0.0,0.0,0.0,0.0,0.0,0.0,0.0,0.0,0.0,0.0,0.0,0.0,0.0,0.0,0.0,0.0,0.0,0.0,0.0,0.0,0.0,0.0,0.0,0.0,0.0,0.0,0.0,0.0,0.0,0.0,0.0,0.0,0.0,0.0,0.0,0.0,0.0,0.0,0.0,0.0,0.0,0.0,0.0,0.0,0.0,0.0,0.0,0.0,0.0,0.0,0.0,0.0,0.0,0.0,0.0,0.0,0.0,0.0,0.0,0.0,0.0,0.0,0.0,0.0,0.0,0.0,0.0,0.0,0.0,0.0,0.0,0.0,0.0,0.0,0.0,0.0,0.0,0.0,0.0,0.0,0.0,0.0,0.0,0.0,0.0,0.0,0.0,0.0,0.0,0.0,0.0,0.0,0.0,0.0,0.0,0.0,0.0,0.0,0.0,0.0,0.0,0.0,0.0,0.0,0.0,0.0,0.0,0.0,0.0,0.0,0.0,0.0,0.0,0.0,0.0,0.0,0.0,0.0,0.0,0.0,0.0,0.0,0.0,0.0,0.0,0.0,0.0,0.0,0.0,0.0,0.0,0.0,0.0,0.0,0.0,0.0,0.0,0.0,0.0,0.0,0.0,0.0,0.0,0.0,0.0,0.0,0.0,0.0,0.0,0.0,0.0,0.0,0.0,0.0,0.0,0.0,0.0,0.0,0.0,0.0,0.0,0.0,0.0,0.0,0.0,0.0,0.0,0.0,0.0,0.0,0.0,0.0,0.0,0.0,0.0,0.0,0.0,0.0,0.0,0.0,0.0,0.0,0.0,0.0,0.0,0.0,0.0,0.0,0.0,0.0,0.0,0.0,0.0,0.0,0.0,0.0,0.0,0.0,0.0,0.0,0.0,0.0,0.0,0.0,0.0,0.0,0.0,0.0,0.0,0.0,0.0,0.0,0.0,0.0,0.0,0.0,0.0,0.0,0.0,0.0,0.0,-2.884,0.0,0.0,0.0,0.0,0.0,0.0,0.0,0.0,0.0,0.0,0.0,0.0,0.0,0.0,0.0,0.0,0.0,0.0,0.0,0.0,0.0,0.0,0.0,0.0,0.0,0.0,0.0,0.0,0.0,0.0,0.0,0.0,0.0,0.0,0.0,0.0,0.0,0.0,0.0,0.0,0.0,0.0,0.0,0.0,0.0,0.0,0.0,0.0,0.0,0.0,0.0,0.0,0.0,0.0,0.0,0.0,0.0,0.0,0.0,0.0,0.0,0.0,0.0,0.0,0.0,0.0,0.0,0.0,0.0,0.0,0.0,0.0,0.0,0.0,0.0,0.0,0.0,0.0,0.0,0.0,0.0,0.0,0.0,0.0,0.0,0.0,0.0,0.0,0.0,0.0,0.0,0.0,0.0,0.0,0.0,0.0,0.0,0.0,0.0,0.0,0.0,0.0,0.0,0.0,0.0,0.0,0.0,0.0,0.0,0.0,-3.1616,-3.1224,-3.1258,-3.0567,-2.9044,0.0,0.0,0.0,0.0,0.0,0.0,0.0,0.0,0.0,0.0,0.0,0.0,0.0,0.0,0.0,0.0,0.0,0.0,0.0,0.0,0.0,0.0,0.0,0.0,0.0,0.0,0.0,0.0,0.0,0.0,0.0,0.0,0.0,0.0,0.0,0.0,0.0,0.0,0.0,0.0,0.0,0.0,0.0,0.0,0.0,0.0,0.0,0.0,0.0,0.0,0.0,0.0,0.0,0.0,0.0,0.0,0.0,0.0,0.0,0.0,0.0,0.0,0.0,0.0,0.0,0.0,0.0,0.0,0.0,0.0,0.0,0.0,0.0,0.0,0.0,0.0,0.0,0.0,0.0,0.0,0.0,0.0,0.0,0.0,0.0,0.0,0.0,0.0,0.0,0.0,0.0,0.0,0.0,0.0,0.0,0.0,0.0,0.0,0.0,0.0,0.0,0.0,0.0,0.0,0.0,0.0,0.0,0.0,0.0,0.0,0.0,0.0,-3.2327,-3.1616,-2.9585,0.0,0.0,0.0,0.0,0.0,0.0,0.0,0.0,0.0,0.0,0.0,0.0,0.0,0.0,0.0,0.0,0.0,0.0,0.0,0.0,0.0,0.0,0.0,0.0,0.0,0.0,0.0,0.0,0.0,0.0,0.0,0.0,0.0,0.0,0.0,0.0,0.0,0.0,0.0,0.0,0.0,0.0,0.0,0.0,0.0,0.0,0.0,0.0,0.0,0.0,0.0,0.0,0.0,0.0,0.0,0.0,0.0,0.0,0.0,0.0,0.0,0.0,0.0,0.0,0.0,0.0,0.0,0.0,0.0,0.0,0.0,0.0,0.0,0.0,0.0,0.0,0.0,0.0,0.0,0.0,0.0,0.0,0.0,0.0,0.0,0.0,0.0,0.0,0.0,0.0,0.0,0.0,0.0,0.0,0.0,0.0,0.0,0.0,0.0,0.0,0.0,0.0,0.0,0.0,0.0,0.0,0.0,0.0,0.0,0.0,-3.2205,-3.4121,-3.3592,0.0,-3.1069,0.0,0.0,0.0,0.0,0.0,0.0,0.0,0.0,0.0,0.0,0.0,0.0,0.0,0.0,0.0,0.0,0.0,0.0,0.0,0.0,0.0,0.0,0.0,0.0,0.0,0.0,0.0,0.0,0.0,0.0,0.0,0.0,0.0,0.0,0.0,0.0,0.0,0.0,0.0,0.0,0.0,0.0,0.0,0.0,0.0,0.0,0.0,0.0,0.0,0.0,0.0,0.0,0.0,0.0,0.0,0.0,0.0,0.0,0.0,0.0,0.0,0.0,0.0,0.0,0.0,0.0,0.0,0.0,0.0,0.0,0.0,0.0,0.0,0.0,0.0,0.0,0.0,0.0,0.0,0.0,0.0,0.0,0.0,0.0,0.0,0.0,0.0,0.0,0.0,0.0,0.0,0.0,0.0,0.0,0.0,0.0,0.0,0.0,0.0,0.0,0.0,0.0,0.0,0.0,0.0,0.0,0.0,0.0,0.0,0.0,0.0,-3.4472,-3.3355,-3.2319,0.0,0.0,0.0,0.0,0.0,0.0,0.0,0.0,0.0,0.0,0.0,0.0,0.0,0.0,0.0,0.0,0.0,0.0,0.0,0.0,0.0,0.0,0.0,0.0,0.0,0.0,0.0,0.0,0.0,0.0,0.0,0.0,0.0,0.0,0.0,0.0,0.0,0.0,0.0,0.0,0.0,0.0,0.0,0.0,0.0,0.0,0.0,0.0,0.0,0.0,0.0,0.0,0.0,0.0,0.0,0.0,0.0,0.0,0.0,0.0,0.0,0.0,0.0,0.0,0.0,0.0,0.0,0.0,0.0,0.0,0.0,0.0,0.0,0.0,0.0,0.0,0.0,0.0,0.0,0.0,0.0,0.0,0.0,0.0,0.0,0.0,0.0,0.0,0.0,0.0,0.0,0.0,0.0,0.0,0.0,0.0,0.0,0.0,0.0,0.0,0.0,0.0,0.0,0.0,0.0,0.0,0.0,0.0,0.0,0.0,-3.4539,0.0,-3.5103,-3.3884,-3.2648,-3.1453,0.0,0.0,0.0,0.0,0.0,0.0,0.0,0.0,0.0,0.0,0.0,0.0,0.0,0.0,0.0,0.0,0.0,0.0,0.0,0.0,0.0,0.0,0.0,0.0,0.0,0.0,0.0,0.0,0.0,0.0,0.0,0.0,0.0,0.0,0.0,0.0,0.0,0.0,0.0,0.0,0.0,0.0,0.0,0.0,0.0,0.0,0.0,0.0,0.0,0.0,0.0,0.0,0.0,0.0,0.0,0.0,0.0,0.0,0.0,0.0,0.0,0.0,0.0,0.0,0.0,0.0,0.0,0.0,0.0,0.0,0.0,0.0,0.0,0.0,0.0,0.0,0.0,0.0,0.0,0.0,0.0,0.0,0.0,0.0,0.0,0.0,0.0,0.0,0.0,0.0,0.0,0.0,0.0,0.0,0.0,0.0,0.0,0.0,0.0,0.0,0.0,0.0,0.0,0.0,0.0,0.0,0.0,0.0,0.0,-3.5554,-3.525,-3.6671,-3.5893,-3.4112,0.0,0.0,0.0,0.0,0.0,0.0,0.0,0.0,0.0,0.0,0.0,0.0,0.0,0.0,0.0,0.0,0.0,0.0,0.0,0.0,0.0,0.0,0.0,0.0,0.0,0.0,0.0,0.0,0.0,0.0,0.0,0.0,0.0,0.0,0.0,0.0,0.0,0.0,0.0,0.0,0.0,0.0,0.0,0.0,0.0,0.0,0.0,0.0,0.0,0.0,0.0,0.0,0.0,0.0,0.0,0.0,0.0,0.0,0.0,0.0,0.0,0.0,0.0,0.0,0.0,0.0,0.0,0.0,0.0,0.0,0.0,0.0,0.0,0.0,0.0,0.0,0.0,0.0,0.0,0.0,0.0,0.0,0.0,0.0,0.0,0.0,0.0,0.0,0.0,0.0,0.0,0.0,0.0,0.0,0.0,0.0,0.0,0.0,0.0,0.0,0.0,0.0,0.0,0.0,0.0,0.0,0.0,0.0,0.0,-3.3558,-3.4167,-3.6101,-3.9189,-3.5608,-3.3026,0.0,0.0,0.0,0.0,0.0,0.0,0.0,0.0,0.0,0.0,0.0,0.0,0.0,0.0,0.0,0.0,0.0,0.0,0.0,0.0,0.0,0.0,0.0,0.0,0.0,0.0,0.0,0.0,0.0,0.0,0.0,0.0,0.0,0.0,0.0,0.0,0.0,0.0,0.0,0.0,0.0,0.0,0.0,0.0,0.0,0.0,0.0,0.0,0.0,0.0,0.0,0.0,0.0,0.0,0.0,0.0,0.0,0.0,0.0,0.0,0.0,0.0,0.0,0.0,0.0,0.0,0.0,0.0,0.0,0.0,0.0,0.0,0.0,0.0,0.0,0.0,0.0,0.0,0.0,0.0,0.0,0.0,0.0,0.0,0.0,0.0,0.0,0.0,0.0,0.0,0.0,0.0,0.0,0.0,0.0,0.0,0.0,0.0,0.0,0.0,0.0,0.0,0.0,0.0,0.0,0.0,0.0,0.0,0.0,-3.3355,0.0,-3.7782,0.0,-3.5719,-3.2737,0.0,0.0,0.0,0.0,0.0,0.0,0.0,0.0,0.0,0.0,0.0,0.0,0.0,0.0,0.0,0.0,0.0,0.0,0.0,0.0,0.0,0.0,0.0,0.0,0.0,0.0,0.0,0.0,0.0,0.0,0.0,0.0,0.0,0.0,0.0,0.0,0.0,0.0,0.0,0.0,0.0,0.0,0.0,0.0,0.0,0.0,0.0,0.0,0.0,0.0,0.0,0.0,0.0,0.0,0.0,0.0,0.0,0.0,0.0,0.0,0.0,0.0,0.0,0.0,0.0,0.0,0.0,0.0,0.0,0.0,0.0,0.0,0.0,0.0,0.0,0.0,0.0,0.0,0.0,0.0,0.0,0.0,0.0,0.0,0.0,0.0,0.0,0.0,0.0,0.0,0.0,0.0,0.0,0.0,0.0,0.0,0.0,0.0,0.0,0.0,0.0,0.0,0.0,0.0,0.0,0.0,0.0,0.0,-3.3402,-3.7652,-3.9792,-3.9876,-3.8034,-3.6297,-3.3448,0.0,0.0,0.0,0.0,0.0,0.0,0.0,0.0,0.0,0.0,0.0,0.0,0.0,0.0,0.0,0.0,0.0,0.0,0.0,0.0,0.0,0.0,0.0,0.0,0.0,0.0,0.0,0.0,0.0,0.0,0.0,0.0,0.0,0.0,0.0,0.0,0.0,0.0,0.0,0.0,0.0,0.0,0.0,0.0,0.0,0.0,0.0,0.0,0.0,0.0,0.0,0.0,0.0,0.0,0.0,0.0,0.0,0.0,0.0,0.0,0.0,0.0,0.0,0.0,0.0,0.0,0.0,0.0,0.0,0.0,0.0,0.0,0.0,0.0,0.0,0.0,0.0,0.0,0.0,0.0,0.0,0.0,0.0,0.0,0.0,0.0,0.0,0.0,0.0,0.0,0.0,0.0,0.0,0.0,0.0,0.0,0.0,0.0,0.0,0.0,0.0,0.0,0.0,0.0,0.0,0.0,0.0,0.0,0.0,-3.7087,-3.726,-3.8472,-4.0564,-3.5413,-3.2395,0.0,0.0,0.0,0.0,0.0,0.0,0.0,0.0,0.0,0.0,0.0,0.0,0.0,0.0,0.0,0.0,0.0,0.0,0.0,0.0,0.0,0.0,0.0,0.0,0.0,0.0,0.0,0.0,0.0,0.0,0.0,0.0,0.0,0.0,0.0,0.0,0.0,0.0,0.0,0.0,0.0,0.0,0.0,0.0,0.0,0.0,0.0,0.0,0.0,0.0,0.0,0.0,0.0,0.0,0.0,0.0,0.0,0.0,0.0,0.0,0.0,0.0,0.0,0.0,0.0,0.0,0.0,0.0,0.0,0.0,0.0,0.0,0.0,0.0,0.0,0.0,0.0,0.0,0.0,0.0,0.0,0.0,0.0,0.0,0.0,0.0,0.0,0.0,0.0,0.0,0.0,0.0,0.0,0.0,0.0,0.0,0.0,0.0,0.0,0.0,0.0,0.0,0.0,0.0,0.0,0.0,0.0,0.0,0.0,-3.8223,-3.8346,-3.9133,-4.0818,-3.6072,-3.3161,-3.2269,0.0,0.0,0.0,0.0,0.0,0.0,0.0,0.0,0.0,0.0,0.0,0.0,0.0,0.0,0.0,0.0,0.0,0.0,0.0,0.0,0.0,0.0,0.0,0.0,0.0,0.0,0.0,0.0,0.0,0.0,0.0,0.0,0.0,0.0,0.0,0.0,0.0,0.0,0.0,0.0,0.0,0.0,0.0,0.0,0.0,0.0,0.0,0.0,0.0,0.0,0.0,0.0,0.0,0.0,0.0,0.0,0.0,0.0,0.0,0.0,0.0,0.0,0.0,0.0,0.0,0.0,0.0,0.0,0.0,0.0,0.0,0.0,0.0,0.0,0.0,0.0,0.0,0.0,0.0,0.0,0.0,0.0,0.0,0.0,0.0,0.0,0.0,0.0,0.0,0.0,0.0,0.0,0.0,0.0,0.0,0.0,0.0,0.0,0.0,0.0,0.0,0.0,0.0,0.0,0.0,0.0,0.0,0.0,-4.0674,-4.2169,-4.1693,-3.9145,-3.8028,-3.5299,0.0,0.0,0.0,0.0,0.0,0.0,0.0,0.0,0.0,0.0,0.0,0.0,0.0,0.0,0.0,0.0,0.0,0.0,0.0,0.0,0.0,0.0,0.0,0.0,0.0,0.0,0.0,0.0,0.0,0.0,0.0,0.0,0.0,0.0,0.0,0.0,0.0,0.0,0.0,0.0,0.0,0.0,0.0,0.0,0.0,0.0,0.0,0.0,0.0,0.0,0.0,0.0,0.0,0.0,0.0,0.0,0.0,0.0,0.0,0.0,0.0,0.0,0.0,0.0,0.0,0.0,0.0,0.0,0.0,0.0,0.0,0.0,0.0,0.0,0.0,0.0,0.0,0.0,0.0,0.0,0.0,0.0,0.0,0.0,0.0,0.0,0.0,0.0,0.0,0.0,0.0,0.0,0.0,0.0,0.0,0.0,0.0,0.0,0.0,0.0,0.0,0.0,0.0,0.0,0.0,0.0,0.0,0.0,0.0,-4.0551,-4.1879,-4.2819,-4.3255,-3.9062,-3.5772,0.0,0.0,0.0,0.0,0.0,0.0,0.0,0.0,0.0,0.0,0.0,0.0,0.0,0.0,0.0,0.0,0.0,0.0,0.0,0.0,0.0,0.0,0.0,0.0,0.0,0.0,0.0,0.0,0.0,0.0,0.0,0.0,0.0,0.0,0.0,0.0,0.0,0.0,0.0,0.0,0.0,0.0,0.0,0.0,0.0,0.0,0.0,0.0,0.0,0.0,0.0,0.0,0.0,0.0,0.0,0.0,0.0,0.0,0.0,0.0,0.0,0.0,0.0,0.0,0.0,0.0,0.0,0.0,0.0,0.0,0.0,0.0,0.0,0.0,0.0,0.0,0.0,0.0,0.0,0.0,0.0,0.0,0.0,0.0,0.0,0.0,0.0,0.0,0.0,0.0,0.0,0.0,0.0,0.0,0.0,0.0,0.0,0.0,0.0,0.0,0.0,0.0,0.0,0.0,0.0,0.0,0.0,0.0,-3.9174,-4.1315,-4.2861,-4.4009,-4.4707,-4.0708,-3.7306,0.0,0.0,0.0,0.0,0.0,0.0,0.0,0.0,0.0,0.0,0.0,0.0,0.0,0.0,0.0,0.0,0.0,0.0,0.0,0.0,0.0,0.0,0.0,0.0,0.0,0.0,0.0,0.0,0.0,0.0,0.0,0.0,0.0,0.0,0.0,0.0,0.0,0.0,0.0,0.0,0.0,0.0,0.0,0.0,0.0,0.0,0.0,0.0,0.0,0.0,0.0,0.0,0.0,0.0,0.0,0.0,0.0,0.0,0.0,0.0,0.0,0.0,0.0,0.0,0.0,0.0,0.0,0.0,0.0,0.0,0.0,0.0,0.0,0.0,0.0,0.0,0.0,0.0,0.0,0.0,0.0,0.0,0.0,0.0,0.0,0.0,0.0,0.0,0.0,0.0,0.0,0.0,0.0,0.0,0.0,0.0,0.0,0.0,0.0,0.0,0.0,0.0,0.0,0.0,0.0,0.0,0.0,0.0,-4.0908,-4.2389,-4.4137,-4.4855,-4.4347,-4.2446,-3.9268,0.0,0.0,0.0,0.0,0.0,0.0,0.0,0.0,0.0,0.0,0.0,0.0,0.0,0.0,0.0,0.0,0.0,0.0,0.0,0.0,0.0,0.0,0.0,0.0,0.0,0.0,0.0,0.0,0.0,0.0,0.0,0.0,0.0,0.0,0.0,0.0,0.0,0.0,0.0,0.0,0.0,0.0,0.0,0.0,0.0,0.0,0.0,0.0,0.0,0.0,0.0,0.0,0.0,0.0,0.0,0.0,0.0,0.0,0.0,0.0,0.0,0.0,0.0,0.0,0.0,0.0,0.0,0.0,0.0,0.0,0.0,0.0,0.0,0.0,0.0,0.0,0.0,0.0,0.0,0.0,0.0,0.0,0.0,0.0,0.0,0.0,0.0,0.0,0.0,0.0,0.0,0.0,0.0,0.0,0.0,0.0,0.0,0.0,0.0,0.0,0.0,0.0,0.0,0.0,0.0,0.0,0.0,0.0,-3.998,-4.2351,-4.3269,-4.4167,-4.5065,-4.2677,-3.9469,0.0,0.0,0.0,0.0,0.0,0.0,0.0,0.0,0.0,0.0,0.0,0.0,0.0,0.0,0.0,0.0,0.0,0.0,0.0,0.0,0.0,0.0,0.0,0.0,0.0,0.0,0.0,0.0,0.0,0.0,0.0,0.0,0.0,0.0,0.0,0.0,0.0,0.0,0.0,0.0,0.0,0.0,0.0,0.0,0.0,0.0,0.0,0.0,-3.0245,0.0,0.0,0.0,0.0,0.0,0.0,0.0,0.0,0.0,0.0,0.0,0.0,0.0,0.0,0.0,0.0,0.0,0.0,0.0,0.0,0.0,0.0,0.0,0.0,0.0,0.0,0.0,0.0,0.0,0.0,0.0,0.0,0.0,0.0,0.0,0.0,0.0,0.0,0.0,0.0,0.0,0.0,0.0,0.0,0.0,0.0,0.0,0.0,0.0,0.0,0.0,0.0,0.0,0.0,0.0,0.0,0.0,0.0,0.0,-4.0457,-4.2761,-4.3748,-4.4436,-4.4736,-4.288,-4.0127,0.0,0.0,0.0,0.0,0.0,0.0,0.0,0.0,0.0,0.0,0.0,0.0,0.0,0.0,0.0,0.0,0.0,0.0,0.0,0.0,0.0,0.0,0.0,0.0,0.0,0.0,0.0,0.0,0.0,0.0,0.0,0.0,0.0,0.0,0.0,0.0,0.0,0.0,0.0,0.0,0.0,0.0,0.0,0.0,0.0,0.0,0.0,0.0,0.0,0.0,0.0,0.0,0.0,0.0,0.0,0.0,0.0,0.0,0.0,0.0,0.0,0.0,0.0,0.0,0.0,0.0,0.0,0.0,0.0,0.0,0.0,0.0,0.0,0.0,0.0,0.0,0.0,0.0,0.0,0.0,0.0,0.0,0.0,0.0,0.0,0.0,0.0,0.0,0.0,0.0,0.0,0.0,0.0,0.0,0.0,0.0,0.0,0.0,0.0,0.0,0.0,0.0,0.0,0.0,0.0,0.0,0.0,-3.8302,-4.1115,-4.3379,-4.4466,-4.4766,-4.4317,-4.294,-4.0733,-3.7524,0.0,0.0,0.0,0.0,0.0,0.0,0.0,0.0,0.0,0.0,0.0,0.0,0.0,0.0,0.0,0.0,0.0,0.0,0.0,0.0,0.0,0.0,0.0,0.0,0.0,0.0,0.0,0.0,0.0,0.0,0.0,0.0,0.0,0.0,0.0,0.0,0.0,0.0,-2.7141,-2.9295,0.0,0.0,0.0,0.0,0.0,0.0,0.0,0.0,-3.0598,0.0,0.0,0.0,0.0,0.0,0.0,0.0,0.0,0.0,0.0,0.0,0.0,0.0,0.0,0.0,0.0,0.0,0.0,0.0,0.0,0.0,0.0,0.0,0.0,0.0,0.0,0.0,0.0,0.0,0.0,0.0,0.0,0.0,0.0,0.0,0.0,0.0,0.0,0.0,0.0,0.0,0.0,0.0,0.0,0.0,0.0,0.0,0.0,0.0,0.0,0.0,0.0,0.0,0.0,0.0,0.0,-3.7674,-3.7853,-3.9918,-4.4018,-4.3798,-4.3828,-4.4227,-4.2521,-4.0247,-3.7494,0.0,0.0,0.0,0.0,0.0,0.0,0.0,0.0,0.0,0.0,0.0,0.0,0.0,0.0,0.0,0.0,0.0,0.0,0.0,0.0,0.0,0.0,0.0,0.0,0.0,0.0,0.0,0.0,0.0,0.0,0.0,0.0,0.0,0.0,0.0,0.0,0.0,0.0,0.0,-3.121,-3.2228,0.0,0.0,0.0,0.0,0.0,0.0,0.0,0.0,-3.1491,0.0,0.0,0.0,0.0,0.0,0.0,0.0,0.0,0.0,0.0,0.0,0.0,0.0,0.0,0.0,0.0,0.0,0.0,0.0,0.0,0.0,0.0,0.0,0.0,0.0,0.0,0.0,0.0,0.0,0.0,0.0,0.0,0.0,0.0,0.0,0.0,0.0,0.0,0.0,0.0,0.0,0.0,0.0,0.0,0.0,0.0,0.0,0.0,0.0,0.0,0.0,0.0,0.0,0.0,0.0,-3.6686,-3.7913,-4.0151,-4.3618,-4.3469,-4.3439,-4.3678,-4.1235,-3.905,0.0,0.0,0.0,0.0,0.0,0.0,0.0,0.0,0.0,0.0,0.0,0.0,0.0,0.0,0.0,0.0,0.0,0.0,0.0,0.0,0.0,0.0,0.0,0.0,0.0,0.0,0.0,0.0,0.0,0.0,0.0,0.0,0.0,0.0,0.0,0.0,0.0,0.0,0.0,0.0,-3.1869,-3.2766,-3.3425,0.0,0.0,0.0,0.0,0.0,0.0,-3.1468,-3.1541,0.0,0.0,0.0,0.0,0.0,0.0,0.0,0.0,0.0,0.0,0.0,0.0,0.0,0.0,0.0,0.0,0.0,0.0,0.0,0.0,0.0,0.0,0.0,0.0,0.0,0.0,0.0,0.0,0.0,0.0,0.0,0.0,0.0,0.0,0.0,0.0,0.0,0.0,0.0,0.0,0.0,0.0,0.0,0.0,0.0,0.0,0.0,0.0,0.0,0.0,0.0,0.0,0.0,0.0,0.0,-3.5459,-3.7943,-4.0509,-4.314,-4.329,-4.323,-4.309,-4.0307,-3.8242,0.0,0.0,0.0,0.0,0.0,0.0,0.0,0.0,0.0,0.0,0.0,0.0,0.0,0.0,0.0,0.0,0.0,0.0,0.0,0.0,0.0,0.0,0.0,0.0,0.0,0.0,0.0,0.0,0.0,0.0,0.0,0.0,0.0,0.0,0.0,0.0,0.0,0.0,0.0,0.0,0.0,-3.3604,-3.4384,-3.3574,0.0,0.0,0.0,0.0,-3.2108,-3.2198,0.0,0.0,0.0,0.0,0.0,0.0,0.0,0.0,0.0,0.0,0.0,0.0,0.0,0.0,0.0,0.0,0.0,0.0,0.0,0.0,0.0,0.0,0.0,0.0,0.0,0.0,0.0,0.0,0.0,0.0,0.0,0.0,0.0,0.0,0.0,0.0,0.0,0.0,0.0,0.0,0.0,0.0,0.0,0.0,0.0,0.0,0.0,0.0,0.0,0.0,0.0,0.0,0.0,0.0,0.0,0.0,-3.54,-3.7494,-4.0068,-4.311,-4.329,-4.306,-4.253,-4.0965,-3.8751,0.0,0.0,0.0,0.0,0.0,0.0,0.0,0.0,0.0,0.0,0.0,0.0,0.0,0.0,0.0,0.0,0.0,0.0,0.0,0.0,0.0,0.0,0.0,0.0,0.0,0.0,0.0,0.0,0.0,0.0,0.0,0.0,0.0,0.0,0.0,0.0,0.0,0.0,0.0,0.0,0.0,-3.5639,-3.4622,-3.4384,-3.4233,0.0,0.0,-3.4174,-3.4174,-3.4651,0.0,0.0,0.0,0.0,0.0,0.0,0.0,0.0,0.0,0.0,0.0,0.0,0.0,0.0,0.0,0.0,0.0,0.0,0.0,0.0,0.0,0.0,0.0,0.0,0.0,0.0,0.0,0.0,0.0,0.0,0.0,0.0,0.0,0.0,0.0,0.0,0.0,0.0,0.0,0.0,0.0,0.0,0.0,0.0,0.0,0.0,0.0,0.0,0.0,0.0,0.0,0.0,0.0,0.0,0.0,-3.2287,-3.5459,-3.8153,-4.0756,-4.317,-4.329,-4.303,-4.241,-3.9978,-3.7704,0.0,0.0,0.0,0.0,0.0,0.0,0.0,0.0,0.0,0.0,0.0,0.0,0.0,0.0,0.0,0.0,0.0,0.0,0.0,0.0,0.0,0.0,0.0,0.0,0.0,0.0,0.0,0.0,0.0,0.0,0.0,0.0,0.0,0.0,0.0,0.0,0.0,0.0,0.0,0.0,0.0,0.0,-3.5579,-3.531,0.0,0.0,0.0,-3.507,-3.507,0.0,0.0,0.0,0.0,0.0,0.0,0.0,0.0,0.0,0.0,0.0,0.0,0.0,0.0,0.0,0.0,0.0,0.0,0.0,0.0,0.0,0.0,0.0,0.0,0.0,0.0,0.0,0.0,0.0,0.0,0.0,0.0,0.0,0.0,0.0,0.0,0.0,0.0,0.0,0.0,0.0,0.0,0.0,0.0,0.0,0.0,0.0,0.0,0.0,0.0,0.0,0.0,0.0,0.0,0.0,0.0,0.0,-3.5489,-3.8901,-4.1504,-4.32,-4.329,-4.294,-4.2141,-3.9379,0.0,0.0,0.0,0.0,0.0,0.0,0.0,0.0,0.0,0.0,0.0,0.0,0.0,0.0,0.0,0.0,0.0,0.0,0.0,0.0,0.0,0.0,0.0,0.0,0.0,0.0,0.0,-2.1425,0.0,0.0,0.0,0.0,0.0,0.0,0.0,0.0,0.0,0.0,0.0,0.0,0.0,0.0,-3.5312,-3.6118,-3.6237,-3.6357,0.0,0.0,-3.6118,-3.5789,-3.5878,-3.537,0.0,0.0,0.0,0.0,0.0,0.0,0.0,0.0,0.0,0.0,0.0,0.0,0.0,0.0,0.0,0.0,0.0,0.0,0.0,0.0,0.0,0.0,0.0,0.0,0.0,0.0,0.0,0.0,0.0,0.0,0.0,0.0,0.0,0.0,0.0,0.0,0.0,0.0,0.0,0.0,0.0,0.0,0.0,0.0,0.0,0.0,0.0,0.0,0.0,0.0,0.0,0.0,0.0,0.0,0.0,-3.5519,-3.9349,-4.1953,-4.323,-4.329,-4.2731,-4.1474,-4.0038,-3.749,0.0,0.0,0.0,0.0,0.0,0.0,0.0,0.0,0.0,0.0,0.0,0.0,0.0,0.0,0.0,0.0,0.0,0.0,0.0,0.0,0.0,0.0,0.0,0.0,0.0,0.0,0.0,0.0,0.0,0.0,0.0,0.0,0.0,0.0,0.0,0.0,0.0,0.0,0.0,0.0,0.0,-3.6148,-3.5639,-3.7075,-3.8003,0.0,0.0,-3.7793,-3.6596,-3.6896,-3.6207,-3.3095,0.0,0.0,0.0,0.0,0.0,0.0,0.0,0.0,0.0,0.0,0.0,0.0,0.0,0.0,0.0,0.0,0.0,0.0,0.0,0.0,0.0,0.0,0.0,0.0,0.0,0.0,0.0,0.0,0.0,0.0,0.0,0.0,0.0,0.0,0.0,0.0,0.0,0.0,0.0,0.0,0.0,0.0,0.0,0.0,0.0,0.0,0.0,0.0,0.0,0.0,0.0,0.0,0.0,-3.2364,-3.6088,-3.8944,-4.1332,-4.319,-4.329,-4.291,-4.2051,-4.0696,-3.8264,0.0,0.0,0.0,0.0,0.0,0.0,0.0,0.0,0.0,0.0,0.0,0.0,0.0,0.0,0.0,0.0,0.0,0.0,0.0,0.0,0.0,0.0,0.0,0.0,0.0,0.0,0.0,0.0,-2.427,-2.4582,-2.5717,0.0,0.0,0.0,0.0,0.0,0.0,0.0,0.0,0.0,0.0,-3.6686,-3.7195,-3.7913,0.0,0.0,-3.8512,-3.8242,-3.7734,-3.7524,-3.6716,-3.4681,-3.3993,0.0,0.0,0.0,0.0,0.0,0.0,0.0,0.0,0.0,0.0,0.0,0.0,0.0,0.0,0.0,0.0,0.0,0.0,0.0,0.0,0.0,0.0,0.0,0.0,0.0,0.0,0.0,0.0,0.0,0.0,0.0,0.0,0.0,0.0,0.0,0.0,0.0,0.0,0.0,0.0,0.0,0.0,0.0,0.0,0.0,0.0,0.0,0.0,0.0,0.0,0.0,0.0,-3.1743,-3.5541,-3.8055,-4.0239,-4.2234,-4.2304,-4.1982,-4.1379,-4.0081,-3.7846,0.0,0.0,0.0,0.0,0.0,0.0,0.0,0.0,0.0,0.0,0.0,0.0,0.0,0.0,0.0,0.0,0.0,0.0,0.0,0.0,0.0,0.0,0.0,0.0,0.0,0.0,0.0,0.0,-2.5437,-2.582,-2.6817,0.0,0.0,0.0,0.0,0.0,0.0,0.0,0.0,0.0,0.0,-3.7165,-3.8242,-3.8571,-3.8871,-3.9313,-3.902,-3.8571,-3.8153,-3.7883,-3.7135,-3.5459,0.0,0.0,0.0,0.0,0.0,0.0,0.0,0.0,0.0,0.0,0.0,0.0,0.0,0.0,0.0,0.0,0.0,0.0,0.0,0.0,0.0,0.0,0.0,0.0,0.0,0.0,0.0,0.0,0.0,0.0,-2.3145,0.0,0.0,0.0,0.0,0.0,0.0,0.0,0.0,0.0,0.0,0.0,0.0,0.0,0.0,0.0,0.0,0.0,0.0,0.0,0.0,0.0,0.0,-3.1034,-3.3505,-3.6583,-3.8712,-3.9988,-3.9972,-3.9738,-3.9059,-3.7827,-3.5979,-3.3431,0.0,0.0,0.0,0.0,0.0,0.0,0.0,0.0,0.0,0.0,0.0,0.0,0.0,0.0,0.0,0.0,0.0,0.0,0.0,0.0,0.0,0.0,0.0,0.0,0.0,0.0,-2.5494,-2.671,-2.7475,0.0,0.0,0.0,0.0,0.0,0.0,0.0,0.0,0.0,0.0,-3.6148,-3.7644,-3.8332,-3.896,-3.9373,-3.9439,-3.9403,-3.8925,-3.7734,-3.7973,-3.7494,0.0,0.0,0.0,0.0,0.0,0.0,0.0,0.0,0.0,0.0,0.0,0.0,0.0,0.0,0.0,0.0,0.0,0.0,0.0,0.0,0.0,0.0,0.0,0.0,0.0,0.0,0.0,-2.8097,-2.6741,0.0,0.0,0.0,0.0,0.0,0.0,0.0,0.0,0.0,0.0,0.0,-3.224,-3.2574,0.0,0.0,0.0,0.0,0.0,0.0,0.0,0.0,0.0,0.0,0.0,0.0,-3.1092,-3.4541,-3.6197,-3.7989,-3.9814,-3.9885,-3.9802,-3.9581,-3.8738,-3.6726,-3.3385,0.0,0.0,0.0,0.0,0.0,0.0,0.0,0.0,0.0,0.0,0.0,0.0,0.0,0.0,0.0,0.0,0.0,0.0,0.0,0.0,0.0,0.0,0.0,0.0,0.0,-2.4833,0.0,0.0,0.0,0.0,0.0,0.0,0.0,0.0,0.0,0.0,0.0,-3.3981,-3.5263,-3.7345,-3.899,-3.9649,-3.9918,-4.0217,0.0,0.0,0.0,0.0,0.0,0.0,0.0,0.0,0.0,0.0,0.0,0.0,0.0,0.0,-3.4053,-3.0791,-2.9684,-2.9445,-3.0073,0.0,0.0,0.0,0.0,0.0,0.0,0.0,0.0,0.0,0.0,0.0,0.0,0.0,0.0,-3.0733,0.0,-2.895,0.0,0.0,0.0,0.0,0.0,0.0,0.0,0.0,-3.3294,-3.4525,-3.5052,-3.5403,-3.5102,0.0,-3.3319,-3.111,0.0,0.0,0.0,0.0,0.0,0.0,0.0,0.0,-3.1133,-3.4153,-3.5493,-3.698,-3.855,-3.8649,-3.8675,-3.8649,-3.7685,-3.585,-3.3022,-3.0782,-2.8795,0.0,0.0,0.0,0.0,0.0,0.0,0.0,0.0,0.0,0.0,0.0,0.0,0.0,0.0,0.0,0.0,0.0,0.0,0.0,0.0,0.0,0.0,0.0,-2.4904,0.0,0.0,0.0,0.0,0.0,0.0,0.0,0.0,0.0,-3.1315,-3.3127,-3.4921,-3.6325,-3.7882,-3.9082,-3.9693,0.0,0.0,0.0,0.0,0.0,0.0,0.0,-3.9589,-3.9978,-3.9379,-3.899,-3.9649,-3.9589,-3.929,-3.8841,0.0,0.0,-3.3544,-3.2407,-3.2168,-3.2766,-3.2736,-3.2796,-3.3455,-3.388,-3.415,0.0,0.0,0.0,0.0,0.0,0.0,0.0,0.0,-3.3495,-3.2918,0.0,-3.1763,0.0,0.0,0.0,0.0,0.0,-3.2416,0.0,0.0,-3.6659,-3.7739,-3.7236,-3.7262,-3.6985,-3.6533,-3.691,-3.573,-3.3086,-2.9402,0.0,0.0,0.0,0.0,0.0,0.0,-3.121,-3.2382,-3.4449,-3.5805,-3.6427,-3.6452,-3.6452,-3.6427,-3.4846,-3.3463,-3.229,-3.1276,-2.9654,-2.753,-2.6876,0.0,0.0,0.0,0.0,0.0,0.0,0.0,0.0,0.0,0.0,0.0,0.0,0.0,0.0,0.0,0.0,0.0,0.0,0.0,0.0,-2.4741,0.0,0.0,0.0,0.0,0.0,0.0,0.0,0.0,0.0,0.0,-3.2508,-3.4077,-3.5785,-3.7441,0.0,0.0,0.0,0.0,-3.9642,-3.9728,-4.0637,-4.1181,-4.0592,-4.095,-4.0928,-3.9762,0.0,0.0,-4.0606,-4.0995,-4.0965,-3.9738,-3.9493,-3.908,-3.7734,-3.6776,-3.6507,-3.7075,-3.6656,-3.6686,-3.7195,-3.7019,-3.7139,-3.7814,0.0,0.0,0.0,0.0,-3.5207,-3.5981,-3.7412,-3.6835,-3.6081,-3.5177,-3.46,0.0,0.0,0.0,0.0,0.0,0.0,-3.5278,-3.5776,-3.7287,-3.814,-3.8391,-3.8793,-3.8693,-3.8165,-3.7889,-3.7161,-3.5956,-3.4098,-3.1546,-2.8487,0.0,0.0,0.0,0.0,-3.2491,-3.3972,-3.4981,-3.5805,-3.6405,-3.6405,-3.6405,-3.6405,-3.5127,-3.4148,-3.342,-3.234,-3.111,-2.9729,-2.875,0.0,0.0,0.0,0.0,0.0,0.0,0.0,0.0,0.0,0.0,0.0,0.0,0.0,0.0,0.0,0.0,0.0,0.0,0.0,-2.502,-2.5332,-2.6275,0.0,0.0,0.0,0.0,0.0,0.0,0.0,0.0,0.0,-3.5095,-3.6078,-3.6834,0.0,0.0,-3.9667,-3.9463,-3.9889,-4.0396,-4.0856,0.0,0.0,0.0,-4.1233,-4.1105,-4.2037,-4.2512,-4.2701,-4.2482,-4.2252,-4.1991,-4.1564,-4.1145,-4.0696,-4.0247,-3.8512,-3.7315,-3.7345,-3.7255,-3.7195,-3.7375,-3.7404,-3.7404,-4.1128,-3.917,-3.7412,-3.7211,-3.799,-3.7614,-3.8391,-3.9798,-3.9019,-3.8417,-3.799,-3.7211,-3.6056,-3.4675,-3.3872,0.0,0.0,0.0,-3.6835,-3.7436,-3.8266,-3.8868,-3.922,-3.9521,-3.9521,-3.9195,-3.8843,-3.8391,-3.7839,-3.7186,-3.5177,-3.1964,0.0,0.0,-3.1201,-3.2516,-3.3696,-3.47,-3.5479,-3.6031,-3.6405,-3.6405,-3.6304,-3.6031,-3.5177,-3.4474,-3.3922,-3.3018,-3.2164,-3.1286,-3.0206,-2.8574,0.0,0.0,0.0,0.0,0.0,0.0,0.0,0.0,0.0,0.0,0.0,-2.2347,-2.0916,0.0,0.0,0.0,-2.4004,-2.5586,-2.6816,-2.7318,0.0,0.0,0.0,0.0,0.0,0.0,0.0,-3.4606,-3.5193,-3.5906,-3.6933,-3.7552,-3.7898,-3.7826,-3.8798,-3.9502,-3.9396,0.0,-4.0356,-4.0754,-4.1196,-4.1605,-4.1984,-4.1395,-4.1397,-4.2708,-4.2339,-4.2345,-4.314,-4.2654,-4.2268,-4.2554,-4.2222,-4.1811,-4.1811,-4.0217,-3.8871,-3.8661,-3.8601,-3.8512,-3.8272,-3.8212,-3.8212,-4.394,-4.3714,-4.1153,-4.03,-4.0626,-4.0601,-4.0852,-4.12,-4.0249,-4.0099,-4.0501,-3.9521,-3.8467,-3.7387,-3.6358,0.0,-3.6732,-3.7688,-3.8417,-3.8944,-3.9446,-3.9697,-3.9697,-3.9697,-3.9697,-3.9697,-3.9697,-3.9446,-3.8994,-3.8919,-3.8165,-3.6606,-3.5052,-3.3972,-3.342,-3.4399,-3.4951,-3.5002,-3.5931,-3.6455,-3.6405,-3.6405,-3.6107,-3.5508,-3.4931,-3.4399,-3.3847,-3.3244,-3.2692,-3.2139,-3.116,-2.9628,-2.7519,0.0,0.0,0.0,0.0,0.0,0.0,0.0,0.0,0.0,0.0,0.0,0.0,0.0,0.0,0.0,-2.6967,0.0,-2.9088,-3.0131,0.0,0.0,0.0,-3.219,-3.3345,-3.4776,-3.5658,-3.5759,0.0,0.0,-3.814,0.0,-3.8994,-3.8994,-3.8467,-3.8316,-3.8844,-3.9429,-3.9795,-3.9847,-4.0643,-4.1333,-4.1416,-4.1416,-4.1636,-4.2181,-4.101,-4.0901,-4.2625,-4.2193,-4.1988,-4.3031,-4.2781,-4.2393,-4.2432,-4.1901,-4.1354,-4.0636,-4.0457,-4.0247,-3.9709,-3.9559,-3.9559,-4.5095,-4.4995,-4.3915,-4.2811,-4.1785,-4.1329,-4.1175,-4.125,-4.1,-4.0974,-4.1075,-4.0824,-4.0375,-3.9697,-3.9019,-3.8793,-3.8919,-3.917,-3.9371,-3.9496,-3.9647,-3.9697,-3.9697,-3.9697,-3.9697,-3.9697,-3.9697,-3.9622,-3.9496,-3.9496,-3.9145,-3.8341,-3.7889,-3.701,-3.5705,-3.6257,-3.681,-3.7211,-3.7061,-3.6832,-3.643,-3.6405,-3.6107,-3.5508,-3.46,-3.3847,-3.3269,-3.2315,-3.1738,-3.1587,-3.0959,-2.998,-2.8599,-2.654,0.0,0.0,0.0,0.0,0.0,0.0,0.0,0.0,0.0,-2.5937,-2.312,0.0,-2.7268,0.0,-2.8348,-2.9955,-3.127,-3.1662,0.0,0.0,-3.4801,-3.5107,-3.6659,-3.681,-3.7136,-3.799,-3.8417,-3.8843,-3.9245,-3.9421,-3.9496,-3.9496,-3.9371,-3.9195,-3.8994,-3.9399,-3.9728,-3.9753,-3.9954,-4.0324,-4.0781,-4.1218,-4.1534,-4.1685,-4.1024,-4.1032,-4.2391,-4.1312,-4.0958,-4.278,-4.246,-4.2192,-4.2932,-4.297,-4.2641,-4.2081,-4.1542,-4.1115,-4.0935,-4.0905,-4.0756,-4.6225,-4.615,-4.5347,-4.4468,-4.3589,-4.3037,-4.2604,-4.2434,-4.2183,-4.1932,-4.1681,-4.143,-4.0974,-4.0501,-4.0199,-3.9923,-3.9697,-3.9697,-3.9697,-3.9697,-3.9697,-3.9697,-3.9697,-3.9697,-3.9697,-3.9697,-3.9697,-3.9697,-3.9697,-3.9697,-3.9546,-3.9245,-3.9296,-3.8768,-3.7889,-3.7663,-3.7713,-3.799,-3.7713,-3.7287,-3.6807,-3.6734,-3.6232,-3.5203,-3.46,-3.3771,-3.2742,-3.2089,-3.1637,-3.1427,-3.0884,-3.0331,-2.964,-2.8047,-2.6841,0.0,0.0,0.0,0.0,0.0,0.0,0.0,0.0,0.0,0.0,0.0,-2.9402,-2.9868,-3.116,-3.2541,-3.3922,-3.45,-3.5403,-3.6935,-3.7061,-3.7387,-3.8291,-3.8341,-3.8542,-3.917,-3.9245,-3.9346,-3.9647,-3.9697,-3.9697,-3.9697,-3.9697,-3.9597,-3.932,-3.9521,-3.9697,-3.9697,-3.9697,-3.9802,-4.018,-4.0252,-4.0505,-4.0878,-4.0188,-3.9964,-4.1327,-4.0449,-4.0101,-4.2005,-4.2029,-4.1988,-4.3021,-4.329,-4.317,-4.288,-4.2491,-4.2073,-4.1542,-4.1422,-4.1265,-4.7068,-4.7054,-4.6024,-4.5598,-4.5547,-4.5045,-4.4443,-4.3765,-4.3288,-4.2816,-4.2288,-4.1681,-4.1128,-4.0626,-4.0626,-4.0275,-3.9722,-3.9772,-3.9747,-3.9697,-3.9697,-3.9697,-3.9697,-3.9697,-3.9697,-3.9697,-3.9697,-3.9697,-3.9697,-3.9697,-3.9697,-3.9697,-3.9697,-3.9697,-3.9647,-3.8718,-3.8191,-3.8115,-3.8115,-3.7839,-3.7312,-3.7211,-3.6433,-3.4881,-3.47,-3.3822,-3.2215,-3.2164,-3.1964,-3.1411,-3.1035,-3.0809,-3.0809,-2.9704,-2.8787,0.0,-2.7795,0.0,0.0,0.0,0.0,0.0,0.0,0.0,0.0,-3.0859,-3.1938,-3.3294,-3.4474,-3.5529,-3.6531,-3.7513,-3.814,-3.8216,-3.8668,-3.8969,-3.8994,-3.9396,-3.9697,-3.9697,-3.9697,-3.9697,-3.9697,-3.9697,-3.9697,-3.9697,-3.9697,-3.9672,-3.9672,-3.9672,-3.9697,-3.9697,-3.9697,-3.9724,-3.9699,-3.9372,-3.9448,-4.014,-3.9334,-3.8746,-4.045,-3.9646,-3.9406,-4.1028,-4.1311,-4.1577,-4.285,-4.3021,-4.3101,-4.322,-4.32,-4.2871,-4.2013,-4.1743,-4.1594,-4.7068,-4.7018,-4.6426,-4.615,-4.615,-4.605,-4.5171,-4.379,-4.3689,-4.3338,-4.2841,-4.2233,-4.1706,-4.115,-4.1125,-4.0626,-3.9722,-4.0149,-4.0124,-3.9697,-3.9697,-3.9697,-3.9697,-3.9697,-3.9697,-3.9697,-3.9697,-3.9697,-3.9697,-3.9697,-3.9697,-3.9697,-3.9697,-3.9697,-3.9697,0.0,0.0,0.0,-3.8768,-3.8442,-3.7864,-3.7412,-3.6609,-3.5382,-3.448,0.0,-3.1662,-3.1989,-3.1964,-3.1436,-3.1712,0.0,0.0,0.0,0.0,0.0,0.0,0.0,0.0,0.0,0.0,0.0,-3.2893,-3.239,-3.1863,-3.3922,-3.5253,-3.5082,-3.6483,-3.7462,-3.7663,-3.8316,-3.8894,-3.932,-3.9471,-3.9546,-3.9546,-3.9647,-3.9697,-3.9697,-3.9697,-3.9697,-3.9697,-3.9697,-3.9697,-3.9697,-3.9697,-3.9697,-3.9697,-3.9697,-3.9697,-3.9697,-3.9697,-3.9697,-3.9697,-3.9597,-3.9574,-3.9753,-3.9323,-3.9242,-4.0158,-3.9262,-3.8843,-4.0536,-4.0041,-4.0011,-4.1619,-4.1947,-4.2234,-4.3101,-4.329,-4.32,-4.2961,-4.297,-4.2821,-4.7958,0.0,-4.7054,-4.6728,0.0,-4.6426,-4.5673,-4.4618,-4.4618,-4.4166,-4.3363,-4.2866,-4.2258,-4.1731,-4.1756,-4.1304,-4.0473,-4.0777,-4.0777,-4.0501,-4.0224,-4.0099,-4.0099,-3.9823,-3.9697,-3.9697,-3.9697,-3.9697,-3.9697,-3.9697,-3.9697,-3.9697,-3.9697,-3.9697,-3.9697,-3.9697,-3.9546,-3.927,-3.927,-3.8994,-3.8442,-3.8165,-3.7362,-3.6006,0.0,0.0,0.0,0.0,0.0,0.0,0.0,0.0,0.0,0.0,0.0,-3.219,-3.1938,-3.1913,-3.2215,-3.2993,-3.3947,-3.5027,-3.5881,-3.5755,-3.4374,-3.6056,-3.7211,-3.7211,-3.7965,-3.8542,-3.8818,-3.9094,-3.9396,-3.9647,-3.9697,-3.9697,-3.9697,-3.9697,-3.9697,-3.9697,-3.9697,-3.9697,-3.9697,-3.9697,-3.9697,-3.9697,-3.9697,-3.9697,-3.9697,-3.9697,-3.9697,-3.9697,-3.9697,-3.9697,-3.9697,-3.9697,-3.9697,-3.9647,-3.9471,-3.9424,-3.9721,-3.9042,-3.8858,-3.9954,-3.9515,-3.9444,-4.0749,-4.1397,-4.1794,-4.2386,-4.29,-4.329,-4.329,-4.329,-4.32,-4.8862,-4.8686,-4.7682,-4.7143,-4.7043,-4.6592,-4.615,-4.5598,0.0,0.0,0.0,-4.3212,-4.2685,-4.2213,-4.2313,-4.1957,-4.13,-4.143,-4.1376,-4.125,-4.0877,-4.0651,-4.0626,-4.0099,-3.9823,-3.9823,-3.9747,-3.9697,-3.9697,-3.9697,-3.9697,-3.9697,-3.9697,-3.9697,-3.9697,-3.9697,-3.9697,-3.9697,-3.9697,-3.9471,-3.907,-3.8969,-3.8165,-3.6732,-3.6505,-3.5676,-3.4123,-3.4148,-3.3947,-3.342,-3.3445,-3.3721,-3.4148,-3.4173,-3.4399,-3.4826,-3.5006,-3.5177,-3.5177,-3.5608,-3.6232,-3.6807,-3.8215,-3.8441,-3.6958,-3.7713,-3.8492,-3.902,-3.9019,-3.9246,-3.9647,-3.9697,-3.9697,-3.9697,-3.9697,-3.9697,-3.9697,-3.9697,-3.9697,-3.9697,-3.9697,-3.9697,-3.9697,-3.9697,-3.9697,-3.9697,-3.9697,-3.9697,-3.9697,-3.9697,-3.9697,-3.9697,-3.9697,-3.9697,-3.9697,-3.9697,-3.9697,-3.9697,-3.9697,-3.9521,-3.917,-3.907,-3.922,-3.954,-3.9185,-3.9362,-4.0142,-4.0662,-4.1241,-4.1532,-4.2316,-4.309,-4.325,-4.329,-4.329,-4.9213,-4.8774,-4.8058,-4.7531,-4.7068,-4.7054,-4.6702,-4.6075,-4.4669,-4.3966,-4.3765,-4.3212,-4.2715,-4.2238,-4.2715,-4.2308,-4.1326,-4.1831,-4.1806,0.0,-4.12,-4.1175,-4.115,-4.0676,-4.04,-4.0375,-3.9923,-3.9697,-3.9697,-3.9697,-3.9697,-3.9697,-3.9697,-3.9697,-3.9697,-3.9697,-3.9697,-3.9697,-3.9697,-3.9647,-3.9572,-3.917,-3.8517,-3.7789,-3.6908,-3.5805,-3.463,-3.5031,-3.5006,-3.4525,-3.4951,-3.5182,-3.5257,-3.5282,-3.5307,-3.5433,-3.6307,-3.6835,-3.6835,-3.7362,-3.7914,-3.8542,-3.917,-3.927,-3.8668,-3.9094,-3.9496,-3.9572,-3.9546,-3.9597,-3.9697,-3.9697,-3.9697,-3.9697,-3.9697,-3.9697,-3.9697,-3.9697,-3.9697,-3.9697,-3.9697,-3.9697,-3.9697,-3.9697,-3.9697,-3.9697,-3.9697,-3.9697,-3.9697,-3.9697,-3.9697,-3.9697,-3.9697,-3.9697,-3.9697,-3.9697,-3.9697,-3.9697,-3.9697,-3.9672,-3.9546,-3.9496,-3.9474,-3.9146,-3.8992,-3.8977,-3.9242,-3.9203,-3.9984,-4.1142,-4.1753,-4.2193,-4.309,-4.329,-4.329,-4.9715,-4.9188,-4.8611,-4.8234,-4.7983,-4.738,-4.6828,-4.6225,-4.5171,-4.4543,-4.4192,-4.3664,-4.3112,-4.269,-4.2861,-4.271,-4.2233,-4.2484,-4.2484,-4.2208,-4.1932,-4.1781,-4.1731,-4.1229,-4.0749,-4.0501,-4.0275,-3.9998,-3.9722,-3.9697,-3.9697,-3.9697,-3.9697,-3.9697,-3.9697,-3.9697,-3.9697,-3.9697,-3.9697,-3.9697,-3.9697,-3.9446,-3.9044,-3.8492,-3.8014,-3.7362,-3.6533,-3.6734,-3.6759,-3.6508,-3.6734,-3.6837,-3.6837,-3.6837,-3.6837,-3.6885,-3.7337,-3.7638,-3.7638,-3.8165,-3.8718,-3.927,-3.9546,-3.9597,-3.9346,-3.9546,-3.9697,-3.9697,-3.9697,-3.9697,-3.9697,-3.9697,-3.9697,-3.9697,-3.9697,-3.9697,-3.9697,-3.9697,-3.9697,-3.9697,-3.9697,-3.9697,-3.9697,-3.9697,-3.9697,-3.9697,-3.9697,-3.9697,-3.9697,-3.9697,-3.9697,-3.9697,-3.9697,-3.9697,-3.9697,-3.9697,-3.9697,-3.9697,-3.9697,-3.9697,-3.9697,-3.9697,-3.9572,-3.9346,-3.9094,-3.8792,-3.854,-3.8721,-3.9427,-4.0312,-4.1253,-4.1988,-4.2941,-4.329,-4.329,-4.8959,-4.8322,-4.8382,-4.8469,-4.851,-4.7556,-4.6828,-4.6276,-4.5849,-4.5347,-4.4769,-4.4116,-4.3564,-4.3162,-4.3037,-4.2986,-4.2986,-4.2986,-4.2986,-4.2936,-4.259,-4.2389,-4.2338,-4.1781,-4.1304,-4.0877,-4.0651,-4.03,-3.9898,-3.9772,-3.9697,-3.9697,-3.9697,-3.9697,-3.9697,-3.9697,-3.9697,-3.9697,-3.9697,-3.9697,-3.9697,-3.9697,-3.9496,-3.9094,-3.8919,-3.8668,-3.8241,-3.809,-3.799,-3.799,-3.799,-3.799,-3.8015,-3.814,-3.8191,-3.8216,-3.8316,-3.8391,-3.8417,-3.8793,-3.9245,-3.9647,-3.9697,-3.9697,-3.9697,-3.9697,-3.9697,-3.9697,-3.9697,-3.9697,-3.9697,-3.9697,-3.9697,-3.9697,-3.9697,-3.9697,-3.9697,-3.9697,-3.9697,-3.9697,-3.9697,-3.9697,-3.9697,-3.9697,-3.9697,-3.9697,-3.9697,-3.9697,-3.9697,-3.9697,-3.9697,-3.9697,-3.9697,-3.9697,-3.9697,-3.9697,-3.9697,-3.9697,-3.9697,-3.9697,-3.9697,-3.9697,-3.9697,-3.9622,-3.9346,-3.8944,-3.8416,-3.8395,-3.8938,-3.959,-4.017,-4.1127,-4.2467,-4.3101,-4.329,-4.5526,-4.4914,-4.6328,-4.7402,-4.7771,-4.7257,-4.6645,-4.6205,-4.619,-4.5924,-4.5119,-4.4267,-4.3708,-4.3664,-4.3212,-4.3011,-4.2986,-4.2986,-4.2986,-4.2986,-4.2936,-4.2911,-4.2866,-4.2389,-4.2112,-4.1911,-4.1003,-4.0526,-4.0375,-3.9923,-3.9697,-3.9697,-3.9697,-3.9697,-3.9697,-3.9697,-3.9697,-3.9697,-3.9697,-3.9697,-3.9697,-3.9697,-3.9672,-3.9622,-3.917,-3.8894,-3.8768,-3.8291,-3.8015,-3.799,-3.804,-3.8015,-3.8065,-3.8517,-3.8844,-3.8869,-3.9245,-3.9546,-3.9521,-3.9597,-3.9622,-3.9697,-3.9697,-3.9697,-3.9697,-3.9697,-3.9697,-3.9697,-3.9697,-3.9697,-3.9697,-3.9697,-3.9697,-3.9697,-3.9697,-3.9697,-3.9697,-3.9697,-3.9697,-3.9697,-3.9697,-3.9697,-3.9697,-3.9697,-3.9697,-3.9697,-3.9697,-3.9697,-3.9697,-3.9697,-3.9697,-3.9697,-3.9697,-3.9697,-3.9697,-3.9697,-3.9697,-3.9697,-3.9697,-3.9697,-3.9697,-3.9697,-3.9697,-3.9672,-3.9647,-3.9346,-3.8818,-3.8515,-3.8395,-3.8919,-3.915,-3.9244,-4.1211,-4.2508,-4.3021,-4.5012,-4.4185,-4.4914,-4.5013,-4.4783,-4.4525,-4.3984,-4.3318,-4.3294,-4.3177,-4.2871,-4.1882,-4.2276,-4.3733,-4.3564,-4.3288,-4.2986,-4.2986,-4.2986,-4.2986,-4.2986,-4.2986,-4.2961,-4.276,-4.2539,-4.2187,-4.1354,-4.0827,-4.0475,-3.9973,-3.9697,-3.9697,-3.9697,-3.9697,-3.9697,-3.9697,-3.9697,-3.9697,-3.9697,-3.9697,-3.9697,-3.9697,-3.9697,-3.9672,-3.9471,-3.9371,-3.9346,-3.912,-3.8994,-3.9019,-3.9019,-3.8994,-3.9019,-3.922,-3.9346,-3.9371,-3.9572,-3.9697,-3.9697,-3.9697,-3.9697,-3.9697,-3.9697,-3.9697,-3.9697,-3.9697,-3.9697,-3.9697,-3.9697,-3.9697,-3.9697,-3.9697,-3.9697,-3.9697,-3.9697,-3.9697,-3.9697,-3.9697,-3.9697,-3.9697,-3.9697,-3.9697,-3.9697,-3.9697,-3.9697,-3.9697,-3.9697,-3.9697,-3.9697,-3.9697,-3.9697,-3.9697,-3.9697,-3.9697,-3.9697,-3.9697,-3.9697,-3.9697,-3.9697,-3.9697,-3.9697,-3.9697,-3.9697,-3.9697,-3.9697,-3.9496,-3.8944,-3.8793,-3.8662,-3.8851,-3.9212,-3.9536,-4.0447,-4.1504,-4.2152,-4.3543,-4.2878,-4.3145,-4.3146,-4.2772,-4.2772,-4.2279,-4.1427,-4.1383,-4.1315,-4.1114,-4.0419,-4.1037,-4.2462,-4.2379,-4.2013,-4.1753,-4.215,-4.2319,-4.2375,-4.2793,-4.2986,-4.2986,-4.2986,-4.276,-4.2414,-4.1831,-4.1204,-4.0551,-3.9948,-3.9697,-3.9697,-3.9697,-3.9697,-3.9697,-3.9697,-3.9697,-3.9697,-3.9697,-3.9697,-3.9697,-3.9697,-3.9697,-3.9697,-3.9697,-3.9697,-3.9697,-3.9697,-3.9697,-3.9697,-3.9697,-3.9697,-3.9697,-3.9697,-3.9697,-3.9697,-3.9697,-3.9697,-3.9697,-3.9697,-3.9697,-3.9697,-3.9697,-3.9697,-3.9697,-3.9697,-3.9697,-3.9697,-3.9697,-3.9697,-3.9697,-3.9697,-3.9697,-3.9697,-3.9697,-3.9697,-3.9697,-3.9697,-3.9697,-3.9697,-3.9697,-3.9697,-3.9697,-3.9697,-3.9697,-3.9697,-3.9697,-3.9697,-3.9697,-3.9697,-3.9697,-3.9697,-3.9697,-3.9697,-3.9697,-3.9697,-3.9697,-3.9697,-3.9697,-3.9697,-3.9697,-3.9697,-3.9697,-3.9697,-3.9697,-3.9597,-3.927,-3.912,-3.8642,-3.864,-3.885,-3.9254,-3.9404,-4.0333,-4.1127,-3.9834,-3.9691,-4.0894,-4.208,-4.3197,-4.3039,-4.2572,-4.1351,-4.1592,-4.1412,-4.0946,-4.0877,-4.0554,-3.9775,-3.892,-3.8506,-3.8757,-4.0129,-4.0765,-4.0961,-4.2263,-4.2986,-4.2986,-4.2986,-4.2961,-4.2836,-4.2338,-4.153,-4.0526,-3.9998,-3.9697,-3.9697,-3.9697,-3.9697,-3.9697,-3.9697,-3.9697,-3.9697,-3.9697,-3.9697,-3.9697,-3.9697,-3.9697,-3.9697,-3.9697,-3.9697,-3.9697,-3.9697,-3.9697,-3.9697,-3.9697,-3.9697,-3.9697,-3.9697,-3.9697,-3.9697,-3.9697,-3.9697,-3.9697,-3.9697,-3.9697,-3.9697,-3.9697,-3.9697,-3.9697,-3.9697,-3.9697,-3.9697,-3.9697,-3.9697,-3.9697,-3.9697,-3.9697,-3.9697,-3.9697,-3.9697,-3.9697,-3.9697,-3.9697,-3.9697,-3.9697,-3.9697,-3.9697,-3.9697,-3.9697,-3.9697,-3.9697,-3.9697,-3.9697,-3.9697,-3.9697,-3.9697,-3.9697,-3.9697,-3.9697,-3.9697,-3.9697,-3.9697,-3.9697,-3.9697,-3.9697,-3.9697,-3.9697,-3.9697,-3.9697,-3.9647,-3.9546,-3.912,-3.8441,-3.8143,-3.7961,-3.8167,-3.8225,-3.9183,-4.0102,-3.9473,-3.8882,-3.9321,-3.9698,-3.9857,-3.9836,-3.9322,-3.8541,-3.8568,-3.8253,-3.7888,-3.76,-3.7126,-3.6488,-3.5891,-3.7123,-3.9545,-3.9288,-3.9581,-4.0534,-4.1191,-4.1476,-4.1533,-4.2513,-4.2986,-4.2886,-4.2464,-4.158,-4.0601,-4.03,-4.0023,-3.9747,-3.9697,-3.9697,-3.9697,-3.9697,-3.9697,-3.9697,-3.9697,-3.9697,-3.9697,-3.9697,-3.9697,-3.9697,-3.9697,-3.9697,-3.9697,-3.9697,-3.9697,-3.9697,-3.9697,-3.9697,-3.9697,-3.9697,-3.9697,-3.9697,-3.9697,-3.9697,-3.9697,-3.9697,-3.9697,-3.9697,-3.9697,-3.9697,-3.9697,-3.9697,-3.9697,-3.9697,-3.9697,-3.9697,-3.9697,-3.9697,-3.9697,-3.9697,-3.9697,-3.9697,-3.9697,-3.9697,-3.9697,-3.9697,-3.9697,-3.9697,-3.9697,-3.9697,-3.9697,-3.9697,-3.9697,-3.9697,-3.9697,-3.9697,-3.9697,-3.9697,-3.9697,-3.9697,-3.9697,-3.9697,-3.9697,-3.9697,-3.9697,-3.9697,-3.9697,-3.9697,-3.9697,-3.9697,-3.9697,-3.9697,-3.9572,-3.8969,-3.8266,-3.7986,-3.78,-3.733,-3.7036,-3.8088,-3.9183,-3.9453,-3.8809,-3.8633,-3.8398,-3.8144,-3.8125,-3.7656,-3.6914,-3.6875,-3.6562,-3.6035,-3.5723,-3.5351,-3.4902,-3.4473,-3.5997,-3.8948,-3.7992,-3.8022,-3.903,-3.9581,-3.9838,-4.0012,-4.0937,-4.1476,-4.1347,-4.0886,-4.0452,-4.0301,-4.0055,-3.9975,-3.9921,-3.9973,-3.9873,-3.9722,-3.9697,-3.9697,-3.9697,-3.9697,-3.9697,-3.9697,-3.9697,-3.9697,-3.9697,-3.9697,-3.9697,-3.9697,-3.9697,-3.9697,-3.9697,-3.9697,-3.9697,-3.9697,-3.9697,-3.9697,-3.9697,-3.9697,-3.9697,-3.9697,-3.9697,-3.9697,-3.9697,-3.9697,-3.9697,-3.9697,-3.9697,-3.9697,-3.9697,-3.9697,-3.9697,-3.9697,-3.9697,-3.9697,-3.9697,-3.9697,-3.9697,-3.9697,-3.9697,-3.9697,-3.9697,-3.9697,-3.9697,-3.9697,-3.9697,-3.9697,-3.9697,-3.9697,-3.9697,-3.9697,-3.9697,-3.9697,-3.9697,-3.9697,-3.9697,-3.9697,-3.9697,-3.9697,-3.9697,-3.9697,-3.9697,-3.9697,-3.9697,-3.9697,-3.9697,-3.9697,-3.9697,-3.9396,-3.8818,-3.8391,-3.8065,-3.7533,-3.7115,-3.7006,-3.7036,-3.8107,-3.9609,-3.9141,-3.875,-3.8574,-3.8516,-3.8457,-3.8027,-3.7324,-3.7226,-3.6738,-3.6055,-3.5996,-3.5723,-3.5332,-3.4883,-3.5469,-3.6394,-3.6142,-3.6074,-3.6356,-3.7544,-3.8164,-3.8223,-3.858,-3.8698,-3.8676,-3.787,-3.8378,-3.9552,-3.9157,-3.9334,-4.0152,-4.0003,-3.9702,-3.9619,-3.9565,-3.9619,-3.9722,-3.9747,-3.9747,-3.9697,-3.9697,-3.9697,-3.9697,-3.9697,-3.9697,-3.9697,-3.9697,-3.9697,-3.9697,-3.9697,-3.9697,-3.9697,-3.9697,-3.9697,-3.9697,-3.9697,-3.9697,-3.9697,-3.9697,-3.9697,-3.9697,-3.9697,-3.9697,-3.9697,-3.9697,-3.9722,-3.9798,-3.9798,-3.9747,-3.9772,-3.9772,-3.9747,-3.9697,-3.9697,-3.9697,-3.9697,-3.9697,-3.9697,-3.9697,-3.9697,-3.9697,-3.9697,-3.9697,-3.9697,-3.9697,-3.9697,-3.9697,-3.9697,-3.9697,-3.9697,-3.9697,-3.9697,-3.9697,-3.9697,-3.9697,-3.9697,-3.9697,-3.9697,-3.9697,-3.9697,-3.9697,-3.9697,-3.9697,-3.9697,-3.9697,-3.9622,-3.9069,-3.8642,-3.8216,-3.7612,-3.7059,-3.6925,-3.7006,-3.7268,-3.9629,-3.916,-3.875,-3.8574,-3.8535,-3.8262,-3.7793,-3.7285,-3.7012,-3.6543,-3.6094,-3.6035,-3.5781,-3.5449,-3.5234,-3.5185,-3.5251,-3.5136,-3.5326,-3.5788,-3.6295,-3.6539,-3.676,-3.7686,-3.8223,-3.8201,-3.803,-3.7974,-3.803,-3.7964,-3.793,-3.7752,-3.7548,-3.7785,-3.8586,-3.8723,-3.8973,-3.9669,-4.0074,-4.0099,-3.9747,-3.9697,-3.9697,-3.9697,-3.9697,-3.9697,-3.9697,-3.9697,-3.9697,-3.9697,-3.9697,-3.9697,-3.9697,-3.9697,-3.9697,-3.9697,-3.9697,-3.9697,-3.9697,-3.9697,-3.9697,-3.9697,-3.9697,-3.9697,-3.9697,-3.9722,-3.9873,-4.0174,-4.0275,-4.0249,-4.0249,-4.0275,-4.0124,-3.9747,-3.9697,-3.9697,-3.9697,-3.9697,-3.9697,-3.9697,-3.9697,-3.9697,-3.9697,-3.9697,-3.9697,-3.9697,-3.9697,-3.9697,-3.9697,-3.9697,-3.9697,-3.9697,-3.9697,-3.9697,-3.9697,-3.9697,-3.9697,-3.9697,-3.9697,-3.9697,-3.9697,-3.9697,-3.9697,-3.9697,-3.9697,-3.9672,-3.9597,-3.9346,-3.8919,-3.8442,-3.7938,-3.7461,-3.7059,-3.702,-3.7241,-3.9726,-3.9394,-3.8828,-3.8574,-3.8555,-3.8262,-3.7832,-3.7305,-3.7031,-3.6562,-3.6113,-3.6035,-3.5879,-3.5625,-3.5469,-3.5234,-3.4961,-3.4785,-3.4958,-3.5308,-3.5209,-3.5086,-3.5005,-3.5888,-3.6417,-3.6438,-3.6417,-3.657,-3.6828,-3.6784,-3.6802,-3.6805,-3.6585,-3.6793,-3.7474,-3.7618,-3.8029,-3.8521,-3.8647,-3.8873,-3.9006,-3.8942,-3.9129,-3.9594,-3.9697,-3.9697,-3.9697,-3.9697,-3.9697,-3.9697,-3.9697,-3.9697,-3.9697,-3.9697,-3.9697,-3.9697,-3.9697,-3.9697,-3.9697,-3.9697,-3.9798,-3.9948,-3.9998,-4.0124,-4.0199,-4.0174,-4.0249,-4.0701,-4.0626,-4.0601,-4.0777,-4.0827,-4.0576,-4.0049,-3.9798,-3.9722,-3.9697,-3.9697,-3.9697,-3.9697,-3.9697,-3.9697,-3.9697,-3.9697,-3.9697,-3.9697,-3.9697,-3.9697,-3.9697,-3.9697,-3.9697,-3.9697,-3.9697,-3.9697,-3.9697,-3.9697,-3.9697,-3.9697,-3.9697,-3.9697,-3.9697,-3.9697,-3.9697,-3.9697,-3.9697,-3.9697,-3.9622,-3.9496,-3.917,-3.8668,-3.8241,-3.7839,-3.7437,-3.7059,-3.7067,-3.9883,-3.9785,-3.8945,-3.8574,-3.8574,-3.8496,-3.8047,-3.7422,-3.7226,-3.6777,-3.6191,-3.6055,-3.6016,-3.5918,-3.5625,-3.5469,-3.5371,-3.5059,-3.4844,-3.4805,-3.453,-3.4241,-3.3954,-3.3942,-3.4027,-3.3839,-3.3776,-3.4363,-3.5477,-3.56,-3.6182,-3.6669,-3.6575,-3.6889,-3.6534,-3.6502,-3.663,-3.6815,-3.6488,-3.6979,-3.7918,-3.784,-3.8161,-3.9438,-3.9669,-3.9772,-3.9697,-3.9697,-3.9697,-3.9697,-3.9697,-3.9697,-3.9697,-3.9697,-3.9697,-3.9697,-3.9697,-3.9697,-3.9697,-3.9798,-3.9973,-4.0375,-4.0526,-4.0699,-4.1053,-4.0802,-4.0802,-4.1279,-4.1003,-4.0902,-4.1225,-4.1379,-4.1128,-4.0626,-4.0149,-3.9873,-3.9823,-3.9873,-3.9973,-3.9923,-3.9823,-3.9798,-3.9873,-3.9823,-3.9772,-3.9697,-3.9697,-3.9697,-3.9697,-3.9697,-3.9697,-3.9697,-3.9697,-3.9697,-3.9697,-3.9697,-3.9697,-3.9697,-3.9697,-3.9697,-3.9697,-3.9697,-3.9697,-3.9697,-3.9697,-3.9697,-3.9672,-3.9546,-3.9421,-3.9069,-3.8668,-3.8266,-3.7864,-3.7511,-3.7059,-3.9883,-3.9805,-3.8945,-3.8574,-3.8516,-3.8242,-3.7988,-3.7676,-3.709,-3.6758,-3.6445,-3.6152,-3.6035,-3.6016,-3.5918,-3.5859,-3.5781,-3.5703,-3.5469,-3.5234,-3.5117,-3.459,-3.3945,-3.3555,-3.3418,-3.3418,-3.3418,-3.3607,-3.4027,-3.4133,-3.4302,-3.4429,-3.4432,-3.4652,-3.5265,-3.5482,-3.5997,-3.6569,-3.6863,-3.6643,-3.6622,-3.7465,-3.7941,-3.8133,-3.9473,-3.9969,-3.9747,-3.9697,-3.9697,-3.9697,-3.9697,-3.9697,-3.9697,-3.9722,-3.9747,-3.9747,-3.9747,-3.9722,-3.9798,-4.0099,-4.0375,-4.0526,-4.0927,-4.1125,-4.125,-4.1175,-4.1404,-4.1781,-4.1781,-4.1756,-4.1907,-4.1932,-4.1656,-4.1125,-4.0701,-4.0475,-4.0727,-4.0849,-4.0849,-4.0849,-4.0799,-4.0651,-4.04,-4.0275,-4.0149,-3.9848,-3.9747,-3.9697,-3.9722,-3.9697,-3.9697,-3.9697,-3.9697,-3.9697,-3.9697,-3.9697,-3.9697,-3.9697,-3.9697,-3.9697,-3.9697,-3.9697,-3.9697,-3.9697,-3.9697,-3.9697,-3.9697,-3.9647,-3.9496,-3.9371,-3.9069,-3.8668,-3.8341,-3.7989,-3.7412,-4.0059,-3.9824,-3.9141,-3.873,-3.8555,-3.8301,-3.8105,-3.7812,-3.7246,-3.6934,-3.6797,-3.6269,-3.6133,-3.6269,-3.6113,-3.6035,-3.6035,-3.6035,-3.5879,-3.5664,-3.5449,-3.4883,-3.4141,-3.3633,-3.3418,-3.3418,-3.3418,-3.3418,-3.3418,-3.3418,-3.3418,-3.3505,-3.3184,-3.3545,-3.4247,-3.4411,-3.4716,-3.5152,-3.5435,-3.5376,-3.5584,-3.6159,-3.6802,-3.7316,-3.8888,-3.9857,-4.0242,-4.04,-4.0199,-3.9848,-3.9697,-3.9697,-3.9722,-3.9923,-4.0023,-4.0049,-4.0224,-4.04,-4.0425,-4.0701,-4.0953,-4.1204,-4.153,-4.1781,-4.1932,-4.1856,-4.1907,-4.2384,-4.2338,-4.2338,-4.2464,-4.2363,-4.2133,-4.2007,-4.153,-4.1254,-4.13,-4.1225,-4.1275,-4.1275,-4.125,-4.12,-4.0824,-4.0824,-4.0576,-4.0224,-4.0099,-3.9923,-3.9772,-3.9747,-3.9697,-3.9697,-3.9697,-3.9697,-3.9697,-3.9697,-3.9697,-3.9697,-3.9697,-3.9697,-3.9697,-3.9697,-3.9697,-3.9697,-3.9697,-3.9697,-3.9697,-3.9697,-3.9647,-3.9496,-3.9295,-3.9069,-3.8718,-3.8466,-3.7889,-4.0273,-3.9844,-3.9394,-3.8965,-3.8613,-3.8574,-3.834,-3.7969,-3.7559,-3.7363,-3.7187,-3.6465,-3.6348,-3.671,-3.6191,-3.6035,-3.6035,-3.6035,-3.6016,-3.584,-3.5566,-3.5,-3.4394,-3.3926,-3.3672,-3.3574,-3.3496,-3.3476,-3.3437,-3.3418,-3.3418,-3.3398,-3.3398,-3.3398,-3.3572,-3.3485,-3.3398,-3.3575,-3.3567,-3.384,-3.4507,-3.485,-3.5417,-3.6302,-3.7719,-3.941,-4.0444,-4.0852,-4.0454,-3.9638,-3.9769,-3.9973,-3.9998,-4.0375,-4.0551,-4.0651,-4.0899,-4.1125,-4.125,-4.125,-4.158,-4.1957,-4.2162,-4.2489,-4.266,-4.2459,-4.2434,-4.2836,-4.2564,-4.259,-4.2791,-4.2564,-4.2539,-4.2635,-4.2489,-4.2032,-4.1656,-4.1451,-4.1451,-4.1451,-4.1476,-4.1451,-4.1376,-4.1326,-4.1229,-4.0674,-4.0551,-4.0375,-4.0149,-3.9998,-3.9873,-3.9697,-3.9697,-3.9697,-3.9697,-3.9697,-3.9697,-3.9697,-3.9697,-3.9697,-3.9697,-3.9697,-3.9697,-3.9697,-3.9697,-3.9697,-3.9697,-3.9697,-3.9697,-3.9672,-3.9496,-3.932,-3.9094,-3.8844,-3.8416,-4.0273,-3.9863,-3.9394,-3.8965,-3.8613,-3.8574,-3.8516,-3.8398,-3.7969,-3.7754,-3.7598,-3.6894,-3.6621,-3.6729,-3.6269,-3.6035,-3.6035,-3.6035,-3.6035,-3.5976,-3.5586,-3.5351,-3.5,-3.4629,-3.4258,-3.4023,-3.3945,-3.375,-3.3535,-3.3476,-3.3418,-3.3418,-3.3418,-3.3418,-3.3418,-3.3418,-3.3418,-3.3398,-3.3301,-3.3211,-3.3532,-3.4328,-3.4861,-3.5275,-3.6409,-3.8135,-3.9586,-3.9626,-3.9314,-3.9419,-4.0124,-4.0579,-4.0689,-4.1,-4.1153,-4.1204,-4.1225,-4.1326,-4.1376,-4.1756,-4.2087,-4.2263,-4.259,-4.2891,-4.2936,-4.2886,-4.2836,-4.2961,-4.2916,-4.2866,-4.2911,-4.2886,-4.2836,-4.2886,-4.2836,-4.271,-4.2635,-4.2585,-4.2509,-4.2534,-4.2534,-4.2459,-4.2057,-4.1982,-4.1731,-4.125,-4.1,-4.0877,-4.0626,-4.0375,-4.0149,-3.9948,-3.9873,-3.9873,-3.9697,-3.9697,-3.9697,-3.9697,-3.9697,-3.9697,-3.9697,-3.9697,-3.9697,-3.9697,-3.9697,-3.9697,-3.9697,-3.9697,-3.9697,-3.9697,-3.9697,-3.9546,-3.9371,-3.917,-3.902,-4.0586,-4.0156,-3.9707,-3.9277,-3.8867,-3.8672,-3.8574,-3.8496,-3.8105,-3.8047,-3.8027,-3.7344,-3.6973,-3.6934,-3.6523,-3.623,-3.6055,-3.6035,-3.6035,-3.5976,-3.5781,-3.5703,-3.5664,-3.541,-3.5019,-3.4492,-3.4355,-3.4121,-3.3828,-3.3711,-3.3633,-3.3437,-3.3437,-3.3418,-3.3418,-3.3437,-3.3418,-3.3418,-3.3418,-3.3301,-3.3313,-3.3793,-3.4738,-3.5014,-3.5908,-3.7163,-3.8827,-3.8758,-3.862,-3.8769,-3.9396,-3.997,-4.0428,-4.1176,-4.1652,-4.1731,-4.2007,-4.2082,-4.2233,-4.2359,-4.259,-4.259,-4.2891,-4.2911,-4.2986,-4.2986,-4.2986,-4.2986,-4.2986,-4.2986,-4.2986,-4.2986,-4.2986,-4.2986,-4.2986,-4.2986,-4.2986,-4.2986,-4.2986,-4.2986,-4.2911,-4.2811,-4.269,-4.2539,-4.2313,-4.1806,-4.1706,-4.153,-4.1075,-4.0799,-4.0576,-4.0375,-4.0199,-4.0023,-3.9772,-3.9697,-3.9697,-3.9697,-3.9697,-3.9697,-3.9697,-3.9697,-3.9697,-3.9697,-3.9697,-3.9697,-3.9697,-3.9697,-3.9697,-3.9697,-3.9697,-3.9697,-3.9622,-3.9421,-3.9346,-4.0918,-4.0488,-4.0078,-3.9629,-3.918,-3.875,-3.8574,-3.8516,-3.8184,-3.8242,-3.8379,-3.7734,-3.7402,-3.7305,-3.6953,-3.6523,-3.6211,-3.6035,-3.6035,-3.5996,-3.5976,-3.5957,-3.5937,-3.584,-3.5605,-3.4941,-3.4844,-3.457,-3.4277,-3.416,-3.4043,-3.3711,-3.3652,-3.375,-3.3672,-3.3535,-3.3574,-3.3594,-3.3476,-3.3418,-3.3379,-3.3485,-3.4115,-3.4862,-3.5211,-3.6107,-3.7418,-3.7673,-3.7739,-3.7865,-3.8045,-3.828,-3.8824,-4.0258,-4.1817,-4.1817,-4.2109,-4.2401,-4.2705,-4.2886,-4.2936,-4.2986,-4.2986,-4.2986,-4.2986,-4.2986,-4.2986,-4.3037,-4.3062,-4.3187,-4.3112,-4.3187,-4.3162,-4.3112,-4.3062,-4.2986,-4.2986,-4.2986,-4.2986,-4.2986,-4.2986,-4.2911,-4.2911,-4.2836,-4.2665,-4.2464,-4.2363,-4.2108,-4.1706,-4.1326,-4.1128,-4.0799,-4.0701,-4.04,-4.0124,-3.9722,-3.9722,-3.9747,-3.9722,-3.9697,-3.9697,-3.9697,-3.9697,-3.9697,-3.9697,-3.9697,-3.9697,-3.9697,-3.9697,-3.9697,-3.9697,-3.9697,-3.9697,-3.9697,-3.9647,-4.0918,-4.0488,-4.0078,-3.9629,-3.918,-3.875,-3.8574,-3.8574,-3.8476,-3.8496,-3.8476,-3.8047,-3.7832,-3.7695,-3.7383,-3.6953,-3.6543,-3.625,-3.6074,-3.6055,-3.6055,-3.6035,-3.6094,-3.6035,-3.5898,-3.5762,-3.5449,-3.5039,-3.4707,-3.457,-3.4492,-3.4473,-3.4414,-3.4394,-3.4277,-3.418,-3.3945,-3.3848,-3.3633,-3.3496,-3.3418,-3.3418,-3.3544,-3.4007,-3.407,-3.4798,-3.5806,-3.6152,-3.6173,-3.6356,-3.7506,-3.7314,-3.6959,-3.7955,-3.9314,-4.054,-4.1094,-4.1672,-4.2513,-4.2874,-4.2986,-4.2986,-4.2681,-4.2793,-4.2849,-4.293,-4.2843,-4.3137,-4.3388,-4.3639,-4.3664,-4.3664,-4.3582,-4.3564,-4.3119,-4.2843,-4.2874,-4.2793,-4.2874,-4.2986,-4.2986,-4.2986,-4.2986,-4.2986,-4.2836,-4.2766,-4.266,-4.2539,-4.2158,-4.1932,-4.1756,-4.148,-4.1175,-4.0824,-4.0526,-4.0049,-3.9772,-3.9798,-3.9772,-3.9697,-3.9697,-3.9697,-3.9697,-3.9697,-3.9697,-3.9697,-3.9697,-3.9697,-3.9697,-3.9697,-3.9697,-3.9697,-3.9697,-3.9697,-3.9697,-4.1055,-4.0801,-4.0176,-3.9766,-3.9473,-3.8848,-3.8574,-3.8574,-3.8574,-3.8574,-3.8516,-3.834,-3.8125,-3.793,-3.7754,-3.7285,-3.6738,-3.6484,-3.6367,-3.6328,-3.6152,-3.6172,-3.6269,-3.6152,-3.6035,-3.5957,-3.5781,-3.5488,-3.5098,-3.5059,-3.4941,-3.4707,-3.4687,-3.4687,-3.4668,-3.4492,-3.4277,-3.4101,-3.3867,-3.3633,-3.3457,-3.3437,-3.3418,-3.3418,-3.3418,-3.3839,-3.4258,-3.455,-3.455,-3.4674,-3.5273,-3.515,-3.5108,-3.5479,-3.6842,-3.8898,-4.0012,-4.0765,-4.1615,-4.1785,-4.1728,-4.1615,-4.1157,-4.1019,-4.1476,-4.1728,-4.2322,-4.3162,-4.3564,-4.394,-4.4166,-4.4217,-4.3664,-4.2732,-4.2323,-4.2136,-4.1883,-4.181,-4.2093,-4.2569,-4.2737,-4.2737,-4.2986,-4.2986,-4.2986,-4.2986,-4.2986,-4.2811,-4.2615,-4.2434,-4.2283,-4.1957,-4.163,-4.1304,-4.0927,-4.0501,-4.0149,-4.0099,-3.9898,-3.9823,-3.9722,-3.9747,-3.9722,-3.9697,-3.9697,-3.9697,-3.9697,-3.9697,-3.9697,-3.9697,-3.9697,-3.9697,-3.9697,-3.9697,-3.9697,-4.1133,-4.0976,-4.0215,-3.9844,-3.9629,-3.8926,-3.8574,-3.8574,-3.8574,-3.8574,-3.8574,-3.8555,-3.8359,-3.8105,-3.7891,-3.7539,-3.6914,-3.6875,-3.6797,-3.6738,-3.6523,-3.6523,-3.6601,-3.6484,-3.6309,-3.623,-3.6172,-3.5937,-3.5586,-3.5508,-3.5293,-3.5176,-3.5,-3.4961,-3.5019,-3.4941,-3.4609,-3.4434,-3.4264,-3.3965,-3.3652,-3.3555,-3.3496,-3.3457,-3.3496,-3.3535,-3.3607,-3.3745,-3.3686,-3.3646,-3.3607,-3.3583,-3.3535,-3.3555,-3.4814,-3.7201,-3.8812,-3.9581,-4.0129,-4.0293,-4.0364,-4.0305,-3.9209,-3.9432,-4.0129,-4.1057,-4.1745,-4.3095,-4.4109,-4.4367,-4.4744,-4.4794,-4.3811,-4.2386,-4.1661,-4.1175,-4.0551,-4.0363,-4.0534,-4.1133,-4.1899,-4.24,-4.2594,-4.2986,-4.2986,-4.2986,-4.2986,-4.2986,-4.2785,-4.2836,-4.266,-4.2308,-4.2007,-4.1706,-4.1379,-4.1028,-4.0777,-4.0676,-4.035,-4.0074,-3.9923,-3.9798,-3.9747,-3.9697,-3.9697,-3.9697,-3.9697,-3.9697,-3.9697,-3.9697,-3.9697,-3.9697,-3.9697,-3.9697,-3.9697,-4.0957,-4.0566,-4.0098,-3.9668,-3.9258,-3.8789,-3.8574,-3.8574,-3.8574,-3.8574,-3.8574,-3.8574,-3.8535,-3.8398,-3.8086,-3.7891,-3.7656,-3.7383,-3.7226,-3.7187,-3.709,-3.707,-3.7207,-3.7187,-3.6836,-3.6641,-3.6601,-3.6348,-3.6074,-3.5957,-3.5898,-3.5781,-3.5723,-3.582,-3.5644,-3.543,-3.5293,-3.5156,-3.4805,-3.4394,-3.4062,-3.4004,-3.3809,-3.3691,-3.3769,-3.3867,-3.3672,-3.3828,-3.3867,-3.3535,-3.3476,-3.3633,-3.3906,-3.4004,-3.4283,-3.5124,-3.5936,-3.7002,-3.832,-3.8912,-3.9115,-3.9122,-3.8859,-3.931,-3.9733,-4.0764,-4.1674,-4.2162,-4.3846,-4.5078,-4.5262,-4.5313,-4.4382,-4.2832,-4.1372,-4.0338,-3.9476,-3.9002,-3.9203,-3.96,-4.0317,-4.1359,-4.1997,-4.2538,-4.2986,-4.2986,-4.2986,-4.2986,-4.2986,-4.2986,-4.2986,-4.2635,-4.2434,-4.2158,-4.1907,-4.158,-4.1354,-4.1254,-4.0727,-4.03,-4.0149,-3.9973,-3.9747,-3.9697,-3.9697,-3.9697,-3.9697,-3.9697,-3.9697,-3.9697,-3.9697,-3.9697,-3.9697,-3.9697,-3.9697,-4.0918,-4.0488,-4.0078,-3.9629,-3.918,-3.875,-3.8574,-3.8574,-3.8574,-3.8574,-3.8574,-3.8574,-3.8574,-3.8516,-3.8359,-3.8144,-3.793,-3.7734,-3.7656,-3.7578,-3.748,-3.7441,-3.7539,-3.7422,-3.7148,-3.709,-3.7012,-3.6992,-3.666,-3.625,-3.6035,-3.6055,-3.6055,-3.5976,-3.6074,-3.5859,-3.5605,-3.5312,-3.4941,-3.4629,-3.4473,-3.4414,-3.4336,-3.416,-3.4336,-3.4277,-3.4219,-3.4277,-3.4355,-3.4141,-3.4141,-3.4219,-3.4375,-3.4434,-3.4596,-3.4655,-3.5002,-3.6016,-3.7333,-3.7754,-3.7881,-3.7611,-3.7403,-3.7022,-3.8141,-3.9663,-4.1359,-4.2529,-4.3349,-4.4448,-4.5225,-4.4973,-4.3453,-4.1932,-4.053,-3.9308,-3.8298,-3.8043,-3.7913,-3.8314,-3.8745,-3.9689,-4.0551,-4.1014,-4.1769,-4.2681,-4.2737,-4.2737,-4.2849,-4.2986,-4.2986,-4.2936,-4.2785,-4.266,-4.2434,-4.2183,-4.1907,-4.1656,-4.0902,-4.0551,-4.035,-4.0149,-3.9898,-3.9722,-3.9697,-3.9697,-3.9697,-3.9697,-3.9697,-3.9697,-3.9697,-3.9697,-3.9697,-3.9697,-3.9697,-4.0918,-4.0488,-4.0176,-3.9726,-3.9199,-3.8848,-3.873,-3.873,-3.875,-3.873,-3.8691,-3.8633,-3.8574,-3.8574,-3.8555,-3.8379,-3.8125,-3.8086,-3.8086,-3.7949,-3.7832,-3.7851,-3.7949,-3.7773,-3.7598,-3.7461,-3.7461,-3.7344,-3.709,-3.6758,-3.6426,-3.6348,-3.6465,-3.6328,-3.623,-3.6172,-3.6016,-3.5605,-3.5293,-3.5039,-3.4902,-3.4883,-3.4785,-3.4746,-3.4785,-3.4824,-3.4726,-3.4844,-3.4863,-3.4648,-3.4609,-3.4648,-3.4824,-3.4883,-3.498,-3.5098,-3.5303,-3.5679,-3.6428,-3.6753,-3.667,-3.6347,-3.6012,-3.6042,-3.6831,-3.8316,-3.9648,-4.1354,-4.2211,-4.3336,-4.4253,-4.3645,-4.2206,-4.0479,-3.8937,-3.7824,-3.6885,-3.6806,-3.6577,-3.6602,-3.7043,-3.7641,-3.8426,-3.9084,-4.0223,-4.1891,-4.2375,-4.2375,-4.2375,-4.2319,-4.2263,-4.2093,-4.2768,-4.2724,-4.2705,-4.2585,-4.2384,-4.2162,-4.1354,-4.0902,-4.0777,-4.04,-4.0023,-3.9873,-3.9747,-3.9697,-3.9697,-3.9697,-3.9697,-3.9697,-3.9697,-3.9697,-3.9697,-3.9697,-3.9697,-4.0918,-4.0508,-4.0488,-4.0,-3.9219,-3.918,-3.916,-3.916,-3.916,-3.9141,-3.9043,-3.8789,-3.8633,-3.8574,-3.8574,-3.8555,-3.8516,-3.8516,-3.8476,-3.8476,-3.8496,-3.8398,-3.8398,-3.832,-3.8203,-3.793,-3.7891,-3.7676,-3.7441,-3.7402,-3.7207,-3.7187,-3.7051,-3.6894,-3.6719,-3.6543,-3.6289,-3.5957,-3.5762,-3.5605,-3.543,-3.5312,-3.5176,-3.4941,-3.5098,-3.5176,-3.4785,-3.5137,-3.5215,-3.4883,-3.4902,-3.5019,-3.5273,-3.5332,-3.5469,-3.5625,-3.5703,-3.5886,-3.6182,-3.607,-3.5685,-3.565,-3.572,-3.579,-3.6336,-3.7657,-3.8711,-3.9368,-4.0531,-4.1366,-4.1734,-4.1287,-4.0449,-3.952,-3.8154,-3.7176,-3.636,-3.5745,-3.552,-3.5119,-3.5521,-3.6364,-3.6623,-3.7312,-3.8657,-4.0305,-4.0789,-4.0765,-4.0765,-4.0707,-4.0765,-4.0995,-4.2206,-4.26,-4.2768,-4.2699,-4.2685,-4.2564,-4.1982,-4.1605,-4.1354,-4.0852,-4.0174,-3.9973,-3.9823,-3.9772,-3.9697,-3.9697,-3.9697,-3.9697,-3.9697,-3.9697,-3.9697,-3.9697,-3.9697,-4.1074,-4.0918,-4.0918,-4.041,-3.9629,-3.9629,-3.9629,-3.9629,-3.9629,-3.9453,-3.9199,-3.9023,-3.8809,-3.8633,-3.8574,-3.8574,-3.8574,-3.8574,-3.8574,-3.8574,-3.8574,-3.8574,-3.8574,-3.8555,-3.8476,-3.834,-3.8301,-3.8301,-3.8144,-3.8008,-3.8086,-3.7988,-3.7598,-3.7266,-3.7051,-3.6797,-3.6426,-3.6152,-3.6035,-3.5918,-3.5859,-3.5781,-3.5703,-3.5586,-3.5605,-3.5703,-3.5586,-3.5664,-3.5644,-3.5547,-3.5469,-3.5586,-3.5684,-3.5742,-3.584,-3.5976,-3.6016,-3.6035,-3.6035,-3.5859,-3.5781,-3.5801,-3.5937,-3.6035,-3.6035,-3.6742,-3.7642,-3.8399,-3.9125,-3.9758,-4.0988,-4.0278,-3.9213,-3.8423,-3.7565,-3.6596,-3.6008,-3.5457,-3.5351,-3.5407,-3.5375,-3.5587,-3.5631,-3.565,-3.7143,-3.8619,-3.8885,-3.9111,-3.9111,-3.9111,-3.9089,-3.9522,-4.065,-4.1305,-4.1501,-4.215,-4.2849,-4.2649,-4.2424,-4.2048,-4.1543,-4.0953,-4.035,-4.0124,-3.9871,-3.9744,-3.9669,-3.9722,-3.9697,-3.9697,-3.9697,-3.9697,-3.9697,-3.9697,-3.9697,-4.1172,-4.1172,-4.1172,-4.0742,-4.0117,-3.9961,-3.9961,-4.0059,-3.9922,-3.9726,-3.9394,-3.9277,-3.8965,-3.8672,-3.8574,-3.8574,-3.8574,-3.8574,-3.8574,-3.8574,-3.8574,-3.8574,-3.8574,-3.8574,-3.8555,-3.8574,-3.8574,-3.8535,-3.8496,-3.8555,-3.8516,-3.832,-3.8027,-3.7734,-3.7363,-3.6934,-3.6504,-3.6289,-3.6074,-3.6035,-3.6016,-3.5996,-3.5996,-3.5957,-3.5976,-3.5976,-3.5918,-3.5937,-3.5957,-3.5937,-3.5957,-3.5996,-3.6016,-3.6035,-3.6035,-3.6035,-3.6035,-3.6035,-3.6035,-3.6016,-3.6016,-3.5976,-3.5996,-3.6035,-3.6035,-3.6035,-3.6789,-3.7441,-3.7842,-3.842,-3.9693,-3.842,-3.7822,-3.7153,-3.6904,-3.6102,-3.6121,-3.5801,-3.584,-3.584,-3.5703,-3.5555,-3.5269,-3.5303,-3.6093,-3.7342,-3.7619,-3.7725,-3.7484,-3.7484,-3.7484,-3.8022,-3.8912,-3.9464,-3.9954,-4.0361,-4.088,-4.1761,-4.1629,-4.1966,-4.1579,-4.0989,-4.0273,-3.9721,-3.9554,-3.9553,-3.9509,-3.9327,-3.9513,-3.9697,-3.9697,-3.9697,-3.9697,-3.9697,-3.9697,-4.1172,-4.1172,-4.1172,-4.0918,-4.0488,-4.0078,-4.0156,-4.0449,-4.0156,-3.9902,-3.9707,-3.9394,-3.8984,-3.8672,-3.8633,-3.8691,-3.8672,-3.8652,-3.8652,-3.8672,-3.8613,-3.8594,-3.8574,-3.8574,-3.8574,-3.8574,-3.8574,-3.8574,-3.8574,-3.8574,-3.8574,-3.8574,-3.8379,-3.8164,-3.7851,-3.709,-3.6699,-3.6601,-3.6269,-3.6133,-3.6113,-3.6074,-3.6035,-3.6035,-3.6035,-3.6035,-3.6035,-3.6035,-3.6035,-3.6035,-3.6035,-3.6035,-3.6035,-3.6035,-3.6035,-3.6035,-3.6035,-3.6035,-3.6035,-3.6035,-3.6035,-3.6035,-3.6035,-3.6035,-3.6035,-3.6016,-3.6084,-3.6742,-3.6471,-3.6355,-3.6355,-3.6287,-3.6423,-3.6355,-3.6084,-3.6035,-3.6035,-3.6035,-3.6035,-3.6035,-3.5976,-3.584,-3.543,-3.5237,-3.5606,-3.6117,-3.6415,-3.6393,-3.6077,-3.5993,-3.6035,-3.6356,-3.7122,-3.7843,-3.826,-3.8461,-3.8994,-4.0047,-4.0923,-4.133,-4.1558,-4.1225,-4.0471,-3.9489,-3.8885,-3.8689,-3.8825,-3.892,-3.9294,-3.9663,-3.9696,-3.9697,-3.9697,-3.9697,-3.9697,-4.1172,-4.1172,-4.1172,-4.1094,-4.0937,-4.082,-4.084,-4.0898,-4.0742,-4.0273,-3.9609,-3.9531,-3.9219,-3.8848,-3.8867,-3.8965,-3.8984,-3.8984,-3.8984,-3.8965,-3.873,-3.8594,-3.8594,-3.8594,-3.8574,-3.8574,-3.8574,-3.8574,-3.8574,-3.8574,-3.8574,-3.8574,-3.8555,-3.832,-3.7988,-3.7539,-3.7402,-3.707,-3.6719,-3.6445,-3.6426,-3.6211,-3.6074,-3.6074,-3.6055,-3.6055,-3.6035,-3.6035,-3.6035,-3.6035,-3.6035,-3.6035,-3.6035,-3.6035,-3.6035,-3.6035,-3.6035,-3.6035,-3.6035,-3.6035,-3.6035,-3.6035,-3.6035,-3.6035,-3.6035,-3.6035,-3.6035,-3.6035,-3.6035,-3.6035,-3.6084,-3.6084,-3.6152,-3.6152,-3.6035,-3.6035,-3.6035,-3.6035,-3.6035,-3.6035,-3.5996,-3.5996,-3.5742,-3.5527,-3.5732,-3.5605,-3.5945,-3.5436,-3.5093,-3.4782,-3.4679,-3.4858,-3.5396,-3.6112,-3.666,-3.6902,-3.7484,-3.8616,-3.9814,-4.0808,-4.0991,-4.0886,-4.0194,-3.9071,-3.8335,-3.7794,-3.795,-3.8285,-3.9189,-3.9649,-3.9738,-3.9746,-3.9697,-3.9697,-3.9697,-4.1172,-4.1172,-4.1172,-4.1172,-4.1152,-4.1016,-4.0937,-4.0976,-4.1055,-4.0508,-3.9707,-3.9766,-3.9512,-3.9062,-3.9062,-3.9355,-3.9394,-3.9258,-3.9375,-3.9316,-3.8809,-3.875,-3.873,-3.8652,-3.8594,-3.8574,-3.8574,-3.8574,-3.8574,-3.8574,-3.8574,-3.8574,-3.8574,-3.8437,-3.8184,-3.7969,-3.7754,-3.7422,-3.7129,-3.6894,-3.6816,-3.666,-3.6445,-3.6328,-3.625,-3.6191,-3.6074,-3.6035,-3.6035,-3.6055,-3.6035,-3.6035,-3.6035,-3.6035,-3.6035,-3.6035,-3.6035,-3.6035,-3.6035,-3.6035,-3.6035,-3.6035,-3.6035,-3.6035,-3.6035,-3.6035,-3.6035,-3.6035,-3.6035,-3.6035,-3.6035,-3.6035,-3.6035,-3.6035,-3.6035,-3.6035,-3.6035,-3.6035,-3.6035,-3.6035,-3.6035,-3.6035,-3.6016,-3.5957,-3.5877,-3.5681,-3.5418,-3.4883,-3.4414,-3.4297,-3.4141,-3.4274,-3.4269,-3.494,-3.5356,-3.5458,-3.6173,-3.7183,-3.826,-3.9382,-3.9709,-3.95,-3.9071,-3.8677,-3.7884,-3.7313,-3.7156,-3.7571,-3.8594,-3.9433,-3.9904,-3.9865,-3.9721,-3.9697,-3.9697,-4.1172,-4.1172,-4.1172,-4.1172,-4.1113,-4.0801,-4.0605,-4.0586,-4.0996,-4.0684,-3.9902,-3.9902,-3.9687,-3.9316,-3.9277,-3.9551,-3.9766,-3.9473,-3.9551,-3.9512,-3.9023,-3.9004,-3.8887,-3.8789,-3.8672,-3.8613,-3.8633,-3.873,-3.8633,-3.8691,-3.8691,-3.8633,-3.8613,-3.8535,-3.8379,-3.8223,-3.8027,-3.7851,-3.7539,-3.7344,-3.7266,-3.7187,-3.6934,-3.6777,-3.668,-3.6523,-3.6387,-3.625,-3.6191,-3.6133,-3.6094,-3.6055,-3.6035,-3.6035,-3.6035,-3.6035,-3.6035,-3.6035,-3.6035,-3.6035,-3.6133,-3.6172,-3.6133,-3.6074,-3.6035,-3.6035,-3.6035,-3.6035,-3.6035,-3.6035,-3.6035,-3.6035,-3.6035,-3.6035,-3.6035,-3.6035,-3.6035,-3.6035,-3.6035,-3.6035,-3.6035,-3.6035,-3.6035,-3.5996,-3.5996,-3.5898,-3.5684,-3.5469,-3.5059,-3.4785,-3.459,-3.4283,-3.4196,-3.3995,-3.4239,-3.4604,-3.4735,-3.5746,-3.6295,-3.7221,-3.7641,-3.806,-3.7688,-3.7354,-3.7118,-3.6839,-3.6641,-3.7151,-3.8175,-3.8832,-3.911,-3.9795,-3.9603,-3.9721,-3.9697,-4.1172,-4.1172,-4.1172,-4.1172,-4.1152,-4.1035,-4.082,-4.0605,-4.0976,-4.0684,-3.9922,-4.0215,-4.0059,-3.9726,-4.0,-4.0195,-4.0117,-3.9961,-3.9824,-3.9609,-3.9277,-3.8984,-3.8906,-3.8965,-3.8809,-3.8789,-3.8848,-3.9023,-3.9023,-3.9023,-3.9023,-3.9004,-3.875,-3.8652,-3.8535,-3.8437,-3.8379,-3.8242,-3.791,-3.7793,-3.7656,-3.7539,-3.7305,-3.7168,-3.7129,-3.6973,-3.6875,-3.6836,-3.6738,-3.6523,-3.6484,-3.6406,-3.6035,-3.6035,-3.6035,-3.6035,-3.6035,-3.6035,-3.6074,-3.6309,-3.6426,-3.6367,-3.6406,-3.6269,-3.6152,-3.6035,-3.6035,-3.6035,-3.6035,-3.6035,-3.6035,-3.6035,-3.6035,-3.6035,-3.6035,-3.6035,-3.6035,-3.6035,-3.6035,-3.6035,-3.6035,-3.6035,-3.6035,-3.6016,-3.6016,-3.6016,-3.5957,-3.5801,-3.5625,-3.5332,-3.5019,-3.4648,-3.4473,-3.4336,-3.4101,-3.4373,-3.4116,-3.419,-3.5003,-3.5665,-3.6197,-3.6481,-3.6255,-3.5966,-3.5636,-3.5776,-3.5997,-3.6675,-3.726,-3.7507,-3.7849,-3.883,-3.9554,-3.9361,-3.9613,-4.1172,-4.1172,-4.1172,-4.1172,-4.1172,-4.1172,-4.0996,-4.0859,-4.1074,-4.0762,-4.0215,-4.041,-4.0391,-4.0215,-4.0371,-4.0469,-4.0449,-4.0078,-3.9961,-4.0019,-3.9531,-3.9473,-3.9375,-3.9375,-3.9336,-3.9277,-3.9297,-3.9473,-3.9473,-3.9453,-3.9434,-3.916,-3.8887,-3.873,-3.8613,-3.8555,-3.8555,-3.8457,-3.832,-3.8203,-3.8047,-3.7891,-3.7773,-3.7578,-3.7559,-3.748,-3.7344,-3.7344,-3.7168,-3.6953,-3.6914,-3.6816,-3.6504,-3.6426,-3.6309,-3.6289,-3.6094,-3.6055,-3.6055,-3.6211,-3.6367,-3.6426,-3.6445,-3.6269,-3.6133,-3.6035,-3.6035,-3.6035,-3.6035,-3.6035,-3.6035,-3.6035,-3.6035,-3.6035,-3.6035,-3.6035,-3.6035,-3.6035,-3.6035,-3.6035,-3.6035,-3.6035,-3.6035,-3.6035,-3.6035,-3.6035,-3.6035,-3.5976,-3.5879,-3.5742,-3.543,-3.5059,-3.4941,-3.4844,-3.457,-3.4316,-3.4289,-3.43,-3.466,-3.5197,-3.5228,-3.5147,-3.5043,-3.4629,-3.4113,-3.4447,-3.4923,-3.5495,-3.6029,-3.6275,-3.6751,-3.7725,-3.8292,-3.8122,-3.8635,-4.1172,-4.1172,-4.1172,-4.1172,-4.1172,-4.1172,-4.1152,-4.1172,-4.1152,-4.0957,-4.0625,-4.0586,-4.0605,-4.0586,-4.0664,-4.0664,-4.0547,-4.0273,-4.0195,-4.0488,-3.9863,-3.9707,-3.9941,-4.0117,-3.9824,-3.9863,-3.9941,-3.998,-3.998,-3.9863,-3.959,-3.9258,-3.9082,-3.8867,-3.8613,-3.8574,-3.8574,-3.8555,-3.8516,-3.8476,-3.8496,-3.8476,-3.8398,-3.8066,-3.793,-3.7832,-3.7559,-3.7422,-3.7383,-3.7363,-3.7344,-3.7324,-3.709,-3.6914,-3.6758,-3.666,-3.6445,-3.6289,-3.6269,-3.6348,-3.6269,-3.623,-3.6074,-3.6191,-3.623,-3.6055,-3.6035,-3.6035,-3.6035,-3.6035,-3.6035,-3.6035,-3.6035,-3.6035,-3.6035,-3.6035,-3.6035,-3.6035,-3.6035,-3.6035,-3.6035,-3.6035,-3.6035,-3.6035,-3.6035,-3.6035,-3.6035,-3.6035,-3.6016,-3.5957,-3.5762,-3.5449,-3.541,-3.5273,-3.4961,-3.4766,-3.4687,-3.4779,-3.4805,-3.4713,-3.4848,-3.4516,-3.397,-3.3858,-3.3808,-3.3564,-3.3842,-3.4428,-3.4985,-3.525,-3.5852,-3.6734,-3.7036,-3.6863,-3.7821,-4.1172,-4.1172,-4.1172,-4.1172,-4.1172,-4.1172,-4.1172,-4.1172,-4.1172,-4.1113,-4.1035,-4.0996,-4.0996,-4.0957,-4.0918,-4.0898,-4.0781,-4.0312,-4.043,-4.0449,-4.0117,-4.0019,-4.0195,-4.0351,-4.0195,-4.0078,-4.0176,-4.0488,-4.0508,-4.0215,-3.9844,-3.9609,-3.9238,-3.875,-3.8594,-3.8574,-3.8574,-3.8574,-3.8574,-3.8574,-3.8574,-3.8574,-3.8496,-3.8398,-3.8359,-3.832,-3.8164,-3.8203,-3.8027,-3.7871,-3.7793,-3.7598,-3.7305,-3.7207,-3.7148,-3.7129,-3.6992,-3.6758,-3.6641,-3.668,-3.6699,-3.6543,-3.6484,-3.6504,-3.6426,-3.6172,-3.6035,-3.6035,-3.6035,-3.6035,-3.6035,-3.6035,-3.6035,-3.6035,-3.6035,-3.6035,-3.6035,-3.6035,-3.6035,-3.6035,-3.6035,-3.6035,-3.6035,-3.6035,-3.6035,-3.6035,-3.6035,-3.6035,-3.6035,-3.5996,-3.5996,-3.5781,-3.584,-3.5703,-3.5391,-3.5195,-3.5156,-3.498,-3.4949,-3.4792,-3.457,-3.4258,-3.3984,-3.3867,-3.373,-3.3555,-3.3418,-3.3524,-3.3988,-3.4342,-3.4613,-3.535,-3.5493,-3.5344,-3.683,-4.1172,-4.1172,-4.1172,-4.1172,-4.1172,-4.1172,-4.1172,-4.1172,-4.1172,-4.1172,-4.1172,-4.1172,-4.1172,-4.1094,-4.0976,-4.0801,-4.0644,-4.0117,-4.0059,-4.0156,-4.0351,-4.0391,-4.0469,-4.0644,-4.0684,-4.0586,-4.0664,-4.0859,-4.082,-4.0508,-4.0078,-3.9629,-3.9004,-3.875,-3.8633,-3.8574,-3.8594,-3.8574,-3.8574,-3.8574,-3.8574,-3.8574,-3.8574,-3.8574,-3.8574,-3.8574,-3.8574,-3.8574,-3.8437,-3.8281,-3.8223,-3.8164,-3.791,-3.7715,-3.7598,-3.75,-3.7383,-3.7187,-3.709,-3.709,-3.7129,-3.6836,-3.6749,-3.6621,-3.6289,-3.6035,-3.6035,-3.6035,-3.6035,-3.6035,-3.6035,-3.6035,-3.6035,-3.6035,-3.6035,-3.6035,-3.6035,-3.6035,-3.6035,-3.6035,-3.6035,-3.6035,-3.6035,-3.6035,-3.6035,-3.6035,-3.6035,-3.6035,-3.6035,-3.6035,-3.6035,-3.6035,-3.6035,-3.6016,-3.5762,-3.5644,-3.5605,-3.541,-3.5195,-3.5156,-3.5039,-3.4434,-3.4023,-3.3965,-3.3809,-3.3516,-3.3418,-3.3418,-3.3418,-3.3757,-3.3757,-3.3842,-3.3965,-3.4258,-3.5449,-4.1172,-4.1172,-4.1172,-4.1172,-4.1172,-4.1172,-4.1172,-4.1172,-4.1172,-4.1172,-4.1172,-4.1172,-4.1172,-4.1035,-4.0801,-4.043,-4.0137,-4.0039,-3.9922,-4.0078,-4.0098,-4.0469,-4.0859,-4.1113,-4.1035,-4.0976,-4.0976,-4.0781,-4.0586,-4.0215,-3.9766,-3.9297,-3.9121,-3.8984,-3.8711,-3.8633,-3.8691,-3.8613,-3.8574,-3.8574,-3.8574,-3.8574,-3.8574,-3.8574,-3.8574,-3.8574,-3.8574,-3.8574,-3.8647,-3.8555,-3.8496,-3.8457,-3.8379,-3.8144,-3.8066,-3.7949,-3.7793,-3.7578,-3.7422,-3.7422,-3.7129,-3.6836,-3.6738,-3.6523,-3.6191,-3.6035,-3.6035,-3.6035,-3.6035,-3.6035,-3.6035,-3.6035,-3.6035,-3.6035,-3.6035,-3.6035,-3.6035,-3.6035,-3.6035,-3.6035,-3.6035,-3.6035,-3.6035,-3.6035,-3.6035,-3.6035,-3.6035,-3.6035,-3.6035,-3.6035,-3.6035,-3.6035,-3.6035,-3.6016,-3.5976,-3.5937,-3.584,-3.582,-3.5625,-3.5625,-3.5449,-3.4805,-3.4336,-3.4141,-3.3926,-3.3555,-3.3418,-3.3418,-3.3418,-3.3418,-3.3418,-3.3524,-3.3524,-3.3839,-3.4258,-4.1172,-4.1172,-4.1172,-4.1172,-4.1152,-4.1172,-4.1172,-4.1172,-4.1172,-4.1172,-4.1172,-4.1172,-4.1172,-4.1172,-4.1113,-4.0879,-4.0586,-4.0254,-4.0527,-4.0879,-4.0449,-4.0723,-4.1035,-4.1172,-4.1172,-4.1074,-4.0898,-4.0625,-4.043,-3.9883,-3.9453,-3.9258,-3.9238,-3.9043,-3.873,-3.875,-3.8887,-3.8711,-3.8574,-3.8574,-3.8574,-3.8574,-3.8574,-3.8574,-3.8574,-3.8574,-3.8574,-3.8574,-3.8574,-3.8574,-3.8574,-3.8574,-3.8535,-3.8457,-3.8398,-3.834,-3.8184,-3.8047,-3.791,-3.7832,-3.7519,-3.6953,-3.6816,-3.6582,-3.6289,-3.6055,-3.6035,-3.6035,-3.6035,-3.6035,-3.6035,-3.6035,-3.6035,-3.6035,-3.6035,-3.6035,-3.6035,-3.6035,-3.6035,-3.6035,-3.6035,-3.6035,-3.6035,-3.6035,-3.6035,-3.6035,-3.6035,-3.6035,-3.6035,-3.6035,-3.6035,-3.6035,-3.6035,-3.6035,-3.6016,-3.6016,-3.5957,-3.6016,-3.6016,-3.5898,-3.5605,-3.5098,-3.4707,-3.4434,-3.3965,-3.3535,-3.3457,-3.3418,-3.3418,-3.3418,-3.3418,-3.3418,-3.3418,-3.3481,-3.3839]},{"header":{"parameterUnit":"m.s-1","parameterCategory":1,"la1":31.0,"la2":29.5877,"lo1":-88.7671,"lo2":-86.6584,"dy":0.0162,"dx":0.0185,"nx":115,"ny":88,"refTime":"2024-06-13T06:00:00:Z","depth":0,"parameterNumber":3,"parameterNumberName":"V-component_of_WINDS"},"data":[0.0,0.0,0.0,0.0,0.0,0.0,0.0,0.0,0.0,0.0,0.0,0.0,0.0,0.0,0.0,0.0,0.0,0.0,0.0,0.0,0.0,0.0,0.0,0.0,0.0,0.0,0.0,0.0,0.0,0.0,0.0,0.0,0.0,0.0,0.0,0.0,0.0,0.0,0.0,0.0,0.0,0.0,0.0,0.0,0.0,0.0,0.0,0.0,0.0,0.0,0.0,0.0,0.0,0.0,0.0,0.0,0.0,0.0,0.0,0.0,0.0,0.0,0.0,0.0,0.0,0.0,0.0,0.0,0.0,0.0,0.0,0.0,0.0,0.0,0.0,0.0,0.0,0.0,0.0,0.0,0.0,0.0,0.0,0.0,0.0,0.0,0.0,0.0,0.0,0.0,0.0,0.0,0.0,0.0,0.0,0.0,0.0,0.0,0.0,0.0,0.0,0.0,0.0,0.0,0.0,0.0,0.0,0.0,0.0,0.0,0.0,0.0,0.0,0.0,0.0,0.0,0.0,0.0,0.0,0.0,0.0,0.0,0.0,0.0,0.0,0.0,0.0,0.0,0.0,0.0,0.0,0.0,0.0,0.0,0.0,0.0,0.0,0.0,0.0,0.0,0.0,0.0,0.0,0.0,0.0,0.0,0.0,0.0,0.0,0.0,0.0,0.0,0.0,0.0,0.0,0.0,0.0,0.0,0.0,0.0,0.0,0.0,0.0,0.0,0.0,0.0,0.0,0.0,0.0,0.0,0.0,0.0,0.0,0.0,0.0,0.0,0.0,0.0,0.0,0.0,0.0,0.0,0.0,0.0,0.0,0.0,0.0,0.0,0.0,0.0,0.0,0.0,0.0,0.0,0.0,0.0,0.0,0.0,0.0,0.0,0.0,0.0,0.0,0.0,0.0,0.0,0.0,0.0,0.0,0.0,0.0,0.0,0.0,0.0,0.0,0.0,0.0,0.0,0.0,0.0,0.0,0.0,0.0,0.0,0.0,0.0,0.0,0.0,0.0,0.0,0.0,0.0,0.0,0.0,0.0,0.0,0.0,0.0,0.0,0.0,0.0,0.0,0.0,0.0,0.0,0.0,0.0,0.0,0.0,0.0,0.0,0.0,0.0,0.0,0.0,0.0,0.0,0.0,0.0,0.0,0.0,0.0,0.0,0.0,0.0,0.0,0.0,0.0,0.0,0.0,0.0,0.0,0.0,0.0,0.0,0.0,0.0,0.0,0.0,0.0,0.0,0.0,0.0,0.0,0.0,0.0,0.0,0.0,0.0,0.0,0.0,0.0,0.0,0.0,0.0,0.0,0.0,0.0,0.0,0.0,0.0,0.0,0.0,0.0,0.0,0.0,0.0,0.0,0.0,0.0,0.0,0.0,0.0,0.0,0.0,0.0,0.0,0.0,0.0,0.0,0.0,0.0,0.0,0.0,0.0,0.0,0.0,0.0,0.0,0.0,0.0,0.0,0.0,0.0,0.0,0.0,0.0,0.0,0.0,0.0,0.0,0.0,0.0,0.0,0.0,0.0,0.0,0.0,0.0,0.0,0.0,0.0,0.0,0.0,0.0,0.0,0.0,0.0,0.0,0.0,0.0,0.0,0.0,0.0,0.0,0.0,0.0,0.0,0.0,0.0,0.0,0.0,0.0,0.0,0.0,0.0,0.0,0.0,0.0,0.0,0.0,0.0,0.0,0.0,0.0,0.0,0.0,0.0,0.0,0.0,0.0,0.0,0.0,0.0,0.0,0.0,0.0,0.0,0.0,0.0,0.0,0.0,0.0,0.0,0.0,0.0,0.0,0.0,0.0,0.0,0.0,0.0,0.0,0.0,0.0,0.0,0.0,0.0,0.0,0.0,0.0,0.0,0.0,0.0,0.0,0.0,0.0,0.0,0.0,0.0,0.0,0.0,0.0,0.0,0.0,0.0,0.0,0.0,0.0,0.0,0.0,0.0,0.0,0.0,0.0,0.0,0.0,0.0,0.0,0.0,0.0,0.0,0.0,0.0,0.0,0.0,0.0,0.0,0.0,0.0,0.0,0.0,0.0,0.0,0.0,0.0,0.0,0.0,0.0,0.0,0.0,0.0,0.0,0.0,0.0,0.0,0.0,0.0,0.0,0.0,0.0,0.0,0.0,0.0,0.0,0.0,0.0,0.0,0.0,0.0,0.0,0.0,0.0,0.0,0.0,0.0,0.0,0.0,0.0,0.0,0.0,0.0,0.0,0.0,0.0,0.0,0.0,0.0,0.0,0.0,0.0,0.0,0.0,0.0,0.0,0.0,0.0,0.0,0.0,0.0,0.0,0.0,0.0,0.0,0.0,0.0,0.0,0.0,0.0,0.0,0.0,0.0,0.0,0.0,0.0,0.0,0.0,0.0,0.0,0.0,0.0,0.0,0.0,0.0,0.0,0.0,0.0,0.0,0.0,0.0,0.0,0.0,0.0,0.0,0.0,0.0,0.0,0.0,0.0,0.0,0.0,0.0,0.0,0.0,0.0,0.0,0.0,0.0,0.0,0.0,0.0,0.0,0.0,0.0,0.0,0.0,0.0,0.0,0.0,0.0,0.0,0.0,0.0,0.0,0.0,0.0,0.0,0.0,0.0,0.0,0.0,0.0,0.0,0.0,0.0,0.0,0.0,0.0,0.0,0.0,0.0,0.0,0.0,0.0,0.0,0.0,0.0,0.0,0.0,0.0,0.0,0.0,0.0,0.0,0.0,0.0,0.0,0.0,0.0,0.0,0.0,0.0,0.0,0.0,0.0,0.0,0.0,0.0,0.0,0.0,0.0,0.0,0.0,0.0,0.0,0.0,0.0,0.0,0.0,0.0,0.0,0.0,0.0,0.0,0.0,0.0,0.0,0.0,0.0,0.0,0.0,0.0,0.0,0.0,0.0,0.0,0.0,0.0,0.0,0.0,0.0,0.0,0.0,0.0,0.0,0.0,0.0,0.0,0.0,0.0,0.0,0.0,0.0,0.0,0.0,0.0,0.0,0.0,0.0,0.0,0.0,0.0,0.0,0.0,0.0,0.0,0.0,0.0,0.0,0.0,0.0,0.0,0.0,0.0,0.0,0.0,0.0,0.0,0.0,0.0,0.0,0.0,0.0,0.0,0.0,0.0,0.0,0.0,0.0,0.0,0.0,0.0,0.0,0.0,0.0,0.0,0.0,0.0,0.0,0.0,0.0,0.0,0.0,0.0,0.0,0.0,0.0,0.0,0.0,0.0,0.0,0.0,0.0,0.0,0.0,0.0,0.0,0.0,0.0,0.0,0.0,0.0,0.0,0.0,0.0,0.0,0.0,0.0,0.0,0.0,0.0,0.0,0.0,0.0,0.0,0.0,0.0,0.0,0.0,0.0,0.0,0.0,0.0,0.0,0.0,0.0,0.0,0.0,0.0,0.0,0.0,0.0,0.0,0.0,0.0,0.0,0.0,0.0,0.0,0.0,0.0,0.0,0.0,0.0,0.0,0.0,0.0,0.0,0.0,0.0,0.0,0.0,0.0,0.0,0.0,0.0,0.0,0.0,0.0,0.0,0.0,0.0,0.0,0.0,0.0,0.0,0.0,0.0,0.0,0.0,0.0,0.0,0.0,0.0,0.0,0.0,0.0,0.0,0.0,0.0,0.0,0.0,0.0,0.0,0.0,0.0,0.0,0.0,0.0,0.0,0.0,0.0,0.0,0.0,0.0,0.0,0.0,0.0,0.0,0.0,0.0,0.0,0.0,0.0,0.0,0.0,0.0,0.0,0.0,0.0,0.0,0.0,0.0,0.0,0.0,0.0,0.0,0.0,0.0,0.0,0.0,0.0,0.0,0.0,0.0,0.0,0.0,0.0,0.0,0.0,0.0,0.0,0.0,0.0,0.0,0.0,0.0,0.0,0.0,0.0,0.0,0.0,0.0,0.0,0.0,0.0,0.0,0.0,0.0,0.0,0.0,0.0,0.0,0.0,0.0,0.0,0.0,0.0,0.0,0.0,0.0,0.0,0.0,0.0,0.0,0.0,0.0,0.0,0.0,0.0,0.0,0.0,0.0,0.0,0.0,0.0,0.0,0.0,0.0,0.0,0.0,0.0,0.0,0.0,0.0,0.0,0.0,0.0,0.0,0.0,0.0,0.0,0.0,0.0,0.0,0.0,0.0,0.0,0.0,0.0,0.0,0.0,0.0,0.0,0.0,0.0,0.0,0.0,0.0,0.0,0.0,0.0,0.0,0.0,0.0,0.0,0.0,0.0,0.0,0.0,0.0,0.0,0.0,0.0,0.0,0.0,1.6609,0.0,0.0,0.0,0.0,0.0,0.0,0.0,0.0,0.0,0.0,0.0,0.0,0.0,0.0,0.0,0.0,0.0,0.0,0.0,0.0,0.0,0.0,0.0,0.0,0.0,0.0,0.0,0.0,0.0,0.0,0.0,0.0,0.0,0.0,0.0,0.0,0.0,0.0,0.0,0.0,0.0,0.0,0.0,0.0,0.0,0.0,0.0,0.0,0.0,0.0,0.0,0.0,0.0,0.0,0.0,0.0,0.0,0.0,0.0,0.0,0.0,0.0,0.0,0.0,0.0,0.0,0.0,0.0,0.0,0.0,0.0,0.0,0.0,0.0,0.0,0.0,0.0,0.0,0.0,0.0,0.0,0.0,0.0,0.0,0.0,0.0,0.0,0.0,0.0,0.0,0.0,0.0,0.0,0.0,0.0,0.0,0.0,0.0,0.0,0.0,0.0,0.0,0.0,0.0,0.0,0.0,0.0,0.0,0.0,0.0,1.8208,1.8027,1.8047,1.7603,1.6726,0.0,0.0,0.0,0.0,0.0,0.0,0.0,0.0,0.0,0.0,0.0,0.0,0.0,0.0,0.0,0.0,0.0,0.0,0.0,0.0,0.0,0.0,0.0,0.0,0.0,0.0,0.0,0.0,0.0,0.0,0.0,0.0,0.0,0.0,0.0,0.0,0.0,0.0,0.0,0.0,0.0,0.0,0.0,0.0,0.0,0.0,0.0,0.0,0.0,0.0,0.0,0.0,0.0,0.0,0.0,0.0,0.0,0.0,0.0,0.0,0.0,0.0,0.0,0.0,0.0,0.0,0.0,0.0,0.0,0.0,0.0,0.0,0.0,0.0,0.0,0.0,0.0,0.0,0.0,0.0,0.0,0.0,0.0,0.0,0.0,0.0,0.0,0.0,0.0,0.0,0.0,0.0,0.0,0.0,0.0,0.0,0.0,0.0,0.0,0.0,0.0,0.0,0.0,0.0,0.0,0.0,0.0,0.0,0.0,0.0,0.0,0.0,1.8617,1.8208,1.7038,0.0,0.0,0.0,0.0,0.0,0.0,0.0,0.0,0.0,0.0,0.0,0.0,0.0,0.0,0.0,0.0,0.0,0.0,0.0,0.0,0.0,0.0,0.0,0.0,0.0,0.0,0.0,0.0,0.0,0.0,0.0,0.0,0.0,0.0,0.0,0.0,0.0,0.0,0.0,0.0,0.0,0.0,0.0,0.0,0.0,0.0,0.0,0.0,0.0,0.0,0.0,0.0,0.0,0.0,0.0,0.0,0.0,0.0,0.0,0.0,0.0,0.0,0.0,0.0,0.0,0.0,0.0,0.0,0.0,0.0,0.0,0.0,0.0,0.0,0.0,0.0,0.0,0.0,0.0,0.0,0.0,0.0,0.0,0.0,0.0,0.0,0.0,0.0,0.0,0.0,0.0,0.0,0.0,0.0,0.0,0.0,0.0,0.0,0.0,0.0,0.0,0.0,0.0,0.0,0.0,0.0,0.0,0.0,0.0,0.0,1.8594,1.965,1.9394,0.0,1.7983,0.0,0.0,0.0,0.0,0.0,0.0,0.0,0.0,0.0,0.0,0.0,0.0,0.0,0.0,0.0,0.0,0.0,0.0,0.0,0.0,0.0,0.0,0.0,0.0,0.0,0.0,0.0,0.0,0.0,0.0,0.0,0.0,0.0,0.0,0.0,0.0,0.0,0.0,0.0,0.0,0.0,0.0,0.0,0.0,0.0,0.0,0.0,0.0,0.0,0.0,0.0,0.0,0.0,0.0,0.0,0.0,0.0,0.0,0.0,0.0,0.0,0.0,0.0,0.0,0.0,0.0,0.0,0.0,0.0,0.0,0.0,0.0,0.0,0.0,0.0,0.0,0.0,0.0,0.0,0.0,0.0,0.0,0.0,0.0,0.0,0.0,0.0,0.0,0.0,0.0,0.0,0.0,0.0,0.0,0.0,0.0,0.0,0.0,0.0,0.0,0.0,0.0,0.0,0.0,0.0,0.0,0.0,0.0,0.0,0.0,0.0,1.9902,1.9258,1.8942,0.0,0.0,0.0,0.0,0.0,0.0,0.0,0.0,0.0,0.0,0.0,0.0,0.0,0.0,0.0,0.0,0.0,0.0,0.0,0.0,0.0,0.0,0.0,0.0,0.0,0.0,0.0,0.0,0.0,0.0,0.0,0.0,0.0,0.0,0.0,0.0,0.0,0.0,0.0,0.0,0.0,0.0,0.0,0.0,0.0,0.0,0.0,0.0,0.0,0.0,0.0,0.0,0.0,0.0,0.0,0.0,0.0,0.0,0.0,0.0,0.0,0.0,0.0,0.0,0.0,0.0,0.0,0.0,0.0,0.0,0.0,0.0,0.0,0.0,0.0,0.0,0.0,0.0,0.0,0.0,0.0,0.0,0.0,0.0,0.0,0.0,0.0,0.0,0.0,0.0,0.0,0.0,0.0,0.0,0.0,0.0,0.0,0.0,0.0,0.0,0.0,0.0,0.0,0.0,0.0,0.0,0.0,0.0,0.0,0.0,1.9941,0.0,2.0216,1.9514,1.9231,1.9322,0.0,0.0,0.0,0.0,0.0,0.0,0.0,0.0,0.0,0.0,0.0,0.0,0.0,0.0,0.0,0.0,0.0,0.0,0.0,0.0,0.0,0.0,0.0,0.0,0.0,0.0,0.0,0.0,0.0,0.0,0.0,0.0,0.0,0.0,0.0,0.0,0.0,0.0,0.0,0.0,0.0,0.0,0.0,0.0,0.0,0.0,0.0,0.0,0.0,0.0,0.0,0.0,0.0,0.0,0.0,0.0,0.0,0.0,0.0,0.0,0.0,0.0,0.0,0.0,0.0,0.0,0.0,0.0,0.0,0.0,0.0,0.0,0.0,0.0,0.0,0.0,0.0,0.0,0.0,0.0,0.0,0.0,0.0,0.0,0.0,0.0,0.0,0.0,0.0,0.0,0.0,0.0,0.0,0.0,0.0,0.0,0.0,0.0,0.0,0.0,0.0,0.0,0.0,0.0,0.0,0.0,0.0,0.0,0.0,2.0527,2.0352,2.1172,2.0723,1.9744,0.0,0.0,0.0,0.0,0.0,0.0,0.0,0.0,0.0,0.0,0.0,0.0,0.0,0.0,0.0,0.0,0.0,0.0,0.0,0.0,0.0,0.0,0.0,0.0,0.0,0.0,0.0,0.0,0.0,0.0,0.0,0.0,0.0,0.0,0.0,0.0,0.0,0.0,0.0,0.0,0.0,0.0,0.0,0.0,0.0,0.0,0.0,0.0,0.0,0.0,0.0,0.0,0.0,0.0,0.0,0.0,0.0,0.0,0.0,0.0,0.0,0.0,0.0,0.0,0.0,0.0,0.0,0.0,0.0,0.0,0.0,0.0,0.0,0.0,0.0,0.0,0.0,0.0,0.0,0.0,0.0,0.0,0.0,0.0,0.0,0.0,0.0,0.0,0.0,0.0,0.0,0.0,0.0,0.0,0.0,0.0,0.0,0.0,0.0,0.0,0.0,0.0,0.0,0.0,0.0,0.0,0.0,0.0,0.0,1.9375,1.9727,2.1372,2.4192,2.1132,1.9893,0.0,0.0,0.0,0.0,0.0,0.0,0.0,0.0,0.0,0.0,0.0,0.0,0.0,0.0,0.0,0.0,0.0,0.0,0.0,0.0,0.0,0.0,0.0,0.0,0.0,0.0,0.0,0.0,0.0,0.0,0.0,0.0,0.0,0.0,0.0,0.0,0.0,0.0,0.0,0.0,0.0,0.0,0.0,0.0,0.0,0.0,0.0,0.0,0.0,0.0,0.0,0.0,0.0,0.0,0.0,0.0,0.0,0.0,0.0,0.0,0.0,0.0,0.0,0.0,0.0,0.0,0.0,0.0,0.0,0.0,0.0,0.0,0.0,0.0,0.0,0.0,0.0,0.0,0.0,0.0,0.0,0.0,0.0,0.0,0.0,0.0,0.0,0.0,0.0,0.0,0.0,0.0,0.0,0.0,0.0,0.0,0.0,0.0,0.0,0.0,0.0,0.0,0.0,0.0,0.0,0.0,0.0,0.0,0.0,1.9258,0.0,2.2367,0.0,2.1251,1.9768,0.0,0.0,0.0,0.0,0.0,0.0,0.0,0.0,0.0,0.0,0.0,0.0,0.0,0.0,0.0,0.0,0.0,0.0,0.0,0.0,0.0,0.0,0.0,0.0,0.0,0.0,0.0,0.0,0.0,0.0,0.0,0.0,0.0,0.0,0.0,0.0,0.0,0.0,0.0,0.0,0.0,0.0,0.0,0.0,0.0,0.0,0.0,0.0,0.0,0.0,0.0,0.0,0.0,0.0,0.0,0.0,0.0,0.0,0.0,0.0,0.0,0.0,0.0,0.0,0.0,0.0,0.0,0.0,0.0,0.0,0.0,0.0,0.0,0.0,0.0,0.0,0.0,0.0,0.0,0.0,0.0,0.0,0.0,0.0,0.0,0.0,0.0,0.0,0.0,0.0,0.0,0.0,0.0,0.0,0.0,0.0,0.0,0.0,0.0,0.0,0.0,0.0,0.0,0.0,0.0,0.0,0.0,0.0,1.9333,2.1738,2.3032,2.3197,2.2014,2.1115,1.9409,0.0,0.0,0.0,0.0,0.0,0.0,0.0,0.0,0.0,0.0,0.0,0.0,0.0,0.0,0.0,0.0,0.0,0.0,0.0,0.0,0.0,0.0,0.0,0.0,0.0,0.0,0.0,0.0,0.0,0.0,0.0,0.0,0.0,0.0,0.0,0.0,0.0,0.0,0.0,0.0,0.0,0.0,0.0,0.0,0.0,0.0,0.0,0.0,0.0,0.0,0.0,0.0,0.0,0.0,0.0,0.0,0.0,0.0,0.0,0.0,0.0,0.0,0.0,0.0,0.0,0.0,0.0,0.0,0.0,0.0,0.0,0.0,0.0,0.0,0.0,0.0,0.0,0.0,0.0,0.0,0.0,0.0,0.0,0.0,0.0,0.0,0.0,0.0,0.0,0.0,0.0,0.0,0.0,0.0,0.0,0.0,0.0,0.0,0.0,0.0,0.0,0.0,0.0,0.0,0.0,0.0,0.0,0.0,0.0,2.1466,2.2554,2.3865,2.5163,2.2128,2.0688,0.0,0.0,0.0,0.0,0.0,0.0,0.0,0.0,0.0,0.0,0.0,0.0,0.0,0.0,0.0,0.0,0.0,0.0,0.0,0.0,0.0,0.0,0.0,0.0,0.0,0.0,0.0,0.0,0.0,0.0,0.0,0.0,0.0,0.0,0.0,0.0,0.0,0.0,0.0,0.0,0.0,0.0,0.0,0.0,0.0,0.0,0.0,0.0,0.0,0.0,0.0,0.0,0.0,0.0,0.0,0.0,0.0,0.0,0.0,0.0,0.0,0.0,0.0,0.0,0.0,0.0,0.0,0.0,0.0,0.0,0.0,0.0,0.0,0.0,0.0,0.0,0.0,0.0,0.0,0.0,0.0,0.0,0.0,0.0,0.0,0.0,0.0,0.0,0.0,0.0,0.0,0.0,0.0,0.0,0.0,0.0,0.0,0.0,0.0,0.0,0.0,0.0,0.0,0.0,0.0,0.0,0.0,0.0,0.0,2.4117,2.5081,2.6086,2.7081,2.3706,2.2158,2.27,0.0,0.0,0.0,0.0,0.0,0.0,0.0,0.0,0.0,0.0,0.0,0.0,0.0,0.0,0.0,0.0,0.0,0.0,0.0,0.0,0.0,0.0,0.0,0.0,0.0,0.0,0.0,0.0,0.0,0.0,0.0,0.0,0.0,0.0,0.0,0.0,0.0,0.0,0.0,0.0,0.0,0.0,0.0,0.0,0.0,0.0,0.0,0.0,0.0,0.0,0.0,0.0,0.0,0.0,0.0,0.0,0.0,0.0,0.0,0.0,0.0,0.0,0.0,0.0,0.0,0.0,0.0,0.0,0.0,0.0,0.0,0.0,0.0,0.0,0.0,0.0,0.0,0.0,0.0,0.0,0.0,0.0,0.0,0.0,0.0,0.0,0.0,0.0,0.0,0.0,0.0,0.0,0.0,0.0,0.0,0.0,0.0,0.0,0.0,0.0,0.0,0.0,0.0,0.0,0.0,0.0,0.0,0.0,2.9012,3.001,2.9602,2.7793,2.5771,2.3809,0.0,0.0,0.0,0.0,0.0,0.0,0.0,0.0,0.0,0.0,0.0,0.0,0.0,0.0,0.0,0.0,0.0,0.0,0.0,0.0,0.0,0.0,0.0,0.0,0.0,0.0,0.0,0.0,0.0,0.0,0.0,0.0,0.0,0.0,0.0,0.0,0.0,0.0,0.0,0.0,0.0,0.0,0.0,0.0,0.0,0.0,0.0,0.0,0.0,0.0,0.0,0.0,0.0,0.0,0.0,0.0,0.0,0.0,0.0,0.0,0.0,0.0,0.0,0.0,0.0,0.0,0.0,0.0,0.0,0.0,0.0,0.0,0.0,0.0,0.0,0.0,0.0,0.0,0.0,0.0,0.0,0.0,0.0,0.0,0.0,0.0,0.0,0.0,0.0,0.0,0.0,0.0,0.0,0.0,0.0,0.0,0.0,0.0,0.0,0.0,0.0,0.0,0.0,0.0,0.0,0.0,0.0,0.0,0.0,3.0696,3.294,3.3005,3.064,2.8576,2.6652,0.0,0.0,0.0,0.0,0.0,0.0,0.0,0.0,0.0,0.0,0.0,0.0,0.0,0.0,0.0,0.0,0.0,0.0,0.0,0.0,0.0,0.0,0.0,0.0,0.0,0.0,0.0,0.0,0.0,0.0,0.0,0.0,0.0,0.0,0.0,0.0,0.0,0.0,0.0,0.0,0.0,0.0,0.0,0.0,0.0,0.0,0.0,0.0,0.0,0.0,0.0,0.0,0.0,0.0,0.0,0.0,0.0,0.0,0.0,0.0,0.0,0.0,0.0,0.0,0.0,0.0,0.0,0.0,0.0,0.0,0.0,0.0,0.0,0.0,0.0,0.0,0.0,0.0,0.0,0.0,0.0,0.0,0.0,0.0,0.0,0.0,0.0,0.0,0.0,0.0,0.0,0.0,0.0,0.0,0.0,0.0,0.0,0.0,0.0,0.0,0.0,0.0,0.0,0.0,0.0,0.0,0.0,0.0,3.0882,3.3085,3.5332,3.5718,3.4073,3.152,2.9212,0.0,0.0,0.0,0.0,0.0,0.0,0.0,0.0,0.0,0.0,0.0,0.0,0.0,0.0,0.0,0.0,0.0,0.0,0.0,0.0,0.0,0.0,0.0,0.0,0.0,0.0,0.0,0.0,0.0,0.0,0.0,0.0,0.0,0.0,0.0,0.0,0.0,0.0,0.0,0.0,0.0,0.0,0.0,0.0,0.0,0.0,0.0,0.0,0.0,0.0,0.0,0.0,0.0,0.0,0.0,0.0,0.0,0.0,0.0,0.0,0.0,0.0,0.0,0.0,0.0,0.0,0.0,0.0,0.0,0.0,0.0,0.0,0.0,0.0,0.0,0.0,0.0,0.0,0.0,0.0,0.0,0.0,0.0,0.0,0.0,0.0,0.0,0.0,0.0,0.0,0.0,0.0,0.0,0.0,0.0,0.0,0.0,0.0,0.0,0.0,0.0,0.0,0.0,0.0,0.0,0.0,0.0,0.0,3.2906,3.5411,3.7036,3.7638,3.7211,3.4296,3.1516,0.0,0.0,0.0,0.0,0.0,0.0,0.0,0.0,0.0,0.0,0.0,0.0,0.0,0.0,0.0,0.0,0.0,0.0,0.0,0.0,0.0,0.0,0.0,0.0,0.0,0.0,0.0,0.0,0.0,0.0,0.0,0.0,0.0,0.0,0.0,0.0,0.0,0.0,0.0,0.0,0.0,0.0,0.0,0.0,0.0,0.0,0.0,0.0,0.0,0.0,0.0,0.0,0.0,0.0,0.0,0.0,0.0,0.0,0.0,0.0,0.0,0.0,0.0,0.0,0.0,0.0,0.0,0.0,0.0,0.0,0.0,0.0,0.0,0.0,0.0,0.0,0.0,0.0,0.0,0.0,0.0,0.0,0.0,0.0,0.0,0.0,0.0,0.0,0.0,0.0,0.0,0.0,0.0,0.0,0.0,0.0,0.0,0.0,0.0,0.0,0.0,0.0,0.0,0.0,0.0,0.0,0.0,0.0,3.3177,3.5458,3.6307,3.7061,3.7814,3.5494,3.2753,0.0,0.0,0.0,0.0,0.0,0.0,0.0,0.0,0.0,0.0,0.0,0.0,0.0,0.0,0.0,0.0,0.0,0.0,0.0,0.0,0.0,0.0,0.0,0.0,0.0,0.0,0.0,0.0,0.0,0.0,0.0,0.0,0.0,0.0,0.0,0.0,0.0,0.0,0.0,0.0,0.0,0.0,0.0,0.0,0.0,0.0,0.0,0.0,2.0545,0.0,0.0,0.0,0.0,0.0,0.0,0.0,0.0,0.0,0.0,0.0,0.0,0.0,0.0,0.0,0.0,0.0,0.0,0.0,0.0,0.0,0.0,0.0,0.0,0.0,0.0,0.0,0.0,0.0,0.0,0.0,0.0,0.0,0.0,0.0,0.0,0.0,0.0,0.0,0.0,0.0,0.0,0.0,0.0,0.0,0.0,0.0,0.0,0.0,0.0,0.0,0.0,0.0,0.0,0.0,0.0,0.0,0.0,0.0,3.3947,3.5881,3.6709,3.7287,3.7538,3.5981,3.3671,0.0,0.0,0.0,0.0,0.0,0.0,0.0,0.0,0.0,0.0,0.0,0.0,0.0,0.0,0.0,0.0,0.0,0.0,0.0,0.0,0.0,0.0,0.0,0.0,0.0,0.0,0.0,0.0,0.0,0.0,0.0,0.0,0.0,0.0,0.0,0.0,0.0,0.0,0.0,0.0,0.0,0.0,0.0,0.0,0.0,0.0,0.0,0.0,0.0,0.0,0.0,0.0,0.0,0.0,0.0,0.0,0.0,0.0,0.0,0.0,0.0,0.0,0.0,0.0,0.0,0.0,0.0,0.0,0.0,0.0,0.0,0.0,0.0,0.0,0.0,0.0,0.0,0.0,0.0,0.0,0.0,0.0,0.0,0.0,0.0,0.0,0.0,0.0,0.0,0.0,0.0,0.0,0.0,0.0,0.0,0.0,0.0,0.0,0.0,0.0,0.0,0.0,0.0,0.0,0.0,0.0,0.0,3.2139,3.45,3.648,3.7312,3.7563,3.7186,3.6031,3.4104,3.1486,0.0,0.0,0.0,0.0,0.0,0.0,0.0,0.0,0.0,0.0,0.0,0.0,0.0,0.0,0.0,0.0,0.0,0.0,0.0,0.0,0.0,0.0,0.0,0.0,0.0,0.0,0.0,0.0,0.0,0.0,0.0,0.0,0.0,0.0,0.0,0.0,0.0,0.0,2.2774,2.4582,0.0,0.0,0.0,0.0,0.0,0.0,0.0,0.0,2.3005,0.0,0.0,0.0,0.0,0.0,0.0,0.0,0.0,0.0,0.0,0.0,0.0,0.0,0.0,0.0,0.0,0.0,0.0,0.0,0.0,0.0,0.0,0.0,0.0,0.0,0.0,0.0,0.0,0.0,0.0,0.0,0.0,0.0,0.0,0.0,0.0,0.0,0.0,0.0,0.0,0.0,0.0,0.0,0.0,0.0,0.0,0.0,0.0,0.0,0.0,0.0,0.0,0.0,0.0,0.0,0.0,3.1612,3.1763,3.3495,3.6935,3.6832,3.6857,3.7111,3.568,3.3771,3.1461,0.0,0.0,0.0,0.0,0.0,0.0,0.0,0.0,0.0,0.0,0.0,0.0,0.0,0.0,0.0,0.0,0.0,0.0,0.0,0.0,0.0,0.0,0.0,0.0,0.0,0.0,0.0,0.0,0.0,0.0,0.0,0.0,0.0,0.0,0.0,0.0,0.0,0.0,0.0,2.6189,2.7042,0.0,0.0,0.0,0.0,0.0,0.0,0.0,0.0,2.4218,0.0,0.0,0.0,0.0,0.0,0.0,0.0,0.0,0.0,0.0,0.0,0.0,0.0,0.0,0.0,0.0,0.0,0.0,0.0,0.0,0.0,0.0,0.0,0.0,0.0,0.0,0.0,0.0,0.0,0.0,0.0,0.0,0.0,0.0,0.0,0.0,0.0,0.0,0.0,0.0,0.0,0.0,0.0,0.0,0.0,0.0,0.0,0.0,0.0,0.0,0.0,0.0,0.0,0.0,0.0,3.0783,3.1813,3.3765,3.6681,3.6556,3.6531,3.6732,3.46,3.2767,0.0,0.0,0.0,0.0,0.0,0.0,0.0,0.0,0.0,0.0,0.0,0.0,0.0,0.0,0.0,0.0,0.0,0.0,0.0,0.0,0.0,0.0,0.0,0.0,0.0,0.0,0.0,0.0,0.0,0.0,0.0,0.0,0.0,0.0,0.0,0.0,0.0,0.0,0.0,0.0,2.6801,2.7494,2.8047,0.0,0.0,0.0,0.0,0.0,0.0,2.594,2.5541,0.0,0.0,0.0,0.0,0.0,0.0,0.0,0.0,0.0,0.0,0.0,0.0,0.0,0.0,0.0,0.0,0.0,0.0,0.0,0.0,0.0,0.0,0.0,0.0,0.0,0.0,0.0,0.0,0.0,0.0,0.0,0.0,0.0,0.0,0.0,0.0,0.0,0.0,0.0,0.0,0.0,0.0,0.0,0.0,0.0,0.0,0.0,0.0,0.0,0.0,0.0,0.0,0.0,0.0,0.0,2.9754,3.1838,3.4067,3.6279,3.6405,3.6355,3.6157,3.3822,3.2089,0.0,0.0,0.0,0.0,0.0,0.0,0.0,0.0,0.0,0.0,0.0,0.0,0.0,0.0,0.0,0.0,0.0,0.0,0.0,0.0,0.0,0.0,0.0,0.0,0.0,0.0,0.0,0.0,0.0,0.0,0.0,0.0,0.0,0.0,0.0,0.0,0.0,0.0,0.0,0.0,0.0,2.8197,2.8787,2.8172,0.0,0.0,0.0,0.0,2.7002,2.7077,0.0,0.0,0.0,0.0,0.0,0.0,0.0,0.0,0.0,0.0,0.0,0.0,0.0,0.0,0.0,0.0,0.0,0.0,0.0,0.0,0.0,0.0,0.0,0.0,0.0,0.0,0.0,0.0,0.0,0.0,0.0,0.0,0.0,0.0,0.0,0.0,0.0,0.0,0.0,0.0,0.0,0.0,0.0,0.0,0.0,0.0,0.0,0.0,0.0,0.0,0.0,0.0,0.0,0.0,0.0,0.0,2.9704,3.1461,3.3621,3.6254,3.6405,3.6132,3.5608,3.4374,3.2516,0.0,0.0,0.0,0.0,0.0,0.0,0.0,0.0,0.0,0.0,0.0,0.0,0.0,0.0,0.0,0.0,0.0,0.0,0.0,0.0,0.0,0.0,0.0,0.0,0.0,0.0,0.0,0.0,0.0,0.0,0.0,0.0,0.0,0.0,0.0,0.0,0.0,0.0,0.0,0.0,0.0,2.9905,2.9051,2.8787,2.8725,0.0,0.0,2.8612,2.8612,2.9076,0.0,0.0,0.0,0.0,0.0,0.0,0.0,0.0,0.0,0.0,0.0,0.0,0.0,0.0,0.0,0.0,0.0,0.0,0.0,0.0,0.0,0.0,0.0,0.0,0.0,0.0,0.0,0.0,0.0,0.0,0.0,0.0,0.0,0.0,0.0,0.0,0.0,0.0,0.0,0.0,0.0,0.0,0.0,0.0,0.0,0.0,0.0,0.0,0.0,0.0,0.0,0.0,0.0,0.0,0.0,2.7092,2.9754,3.2014,3.4198,3.6304,3.6405,3.6107,3.5508,3.3545,3.1637,0.0,0.0,0.0,0.0,0.0,0.0,0.0,0.0,0.0,0.0,0.0,0.0,0.0,0.0,0.0,0.0,0.0,0.0,0.0,0.0,0.0,0.0,0.0,0.0,0.0,0.0,0.0,0.0,0.0,0.0,0.0,0.0,0.0,0.0,0.0,0.0,0.0,0.0,0.0,0.0,0.0,0.0,2.9854,2.9628,0.0,0.0,0.0,2.9428,2.9428,0.0,0.0,0.0,0.0,0.0,0.0,0.0,0.0,0.0,0.0,0.0,0.0,0.0,0.0,0.0,0.0,0.0,0.0,0.0,0.0,0.0,0.0,0.0,0.0,0.0,0.0,0.0,0.0,0.0,0.0,0.0,0.0,0.0,0.0,0.0,0.0,0.0,0.0,0.0,0.0,0.0,0.0,0.0,0.0,0.0,0.0,0.0,0.0,0.0,0.0,0.0,0.0,0.0,0.0,0.0,0.0,0.0,2.9779,3.2641,3.4826,3.6329,3.6405,3.6031,3.5282,3.3043,0.0,0.0,0.0,0.0,0.0,0.0,0.0,0.0,0.0,0.0,0.0,0.0,0.0,0.0,0.0,0.0,0.0,0.0,0.0,0.0,0.0,0.0,0.0,0.0,0.0,0.0,0.0,1.7978,0.0,0.0,0.0,0.0,0.0,0.0,0.0,0.0,0.0,0.0,0.0,0.0,0.0,0.0,2.9565,3.0306,3.0407,3.0507,0.0,0.0,3.0306,3.003,3.0105,2.9679,0.0,0.0,0.0,0.0,0.0,0.0,0.0,0.0,0.0,0.0,0.0,0.0,0.0,0.0,0.0,0.0,0.0,0.0,0.0,0.0,0.0,0.0,0.0,0.0,0.0,0.0,0.0,0.0,0.0,0.0,0.0,0.0,0.0,0.0,0.0,0.0,0.0,0.0,0.0,0.0,0.0,0.0,0.0,0.0,0.0,0.0,0.0,0.0,0.0,0.0,0.0,0.0,0.0,0.0,0.0,2.9804,3.3018,3.5203,3.6355,3.6405,3.5855,3.4801,3.3596,3.1527,0.0,0.0,0.0,0.0,0.0,0.0,0.0,0.0,0.0,0.0,0.0,0.0,0.0,0.0,0.0,0.0,0.0,0.0,0.0,0.0,0.0,0.0,0.0,0.0,0.0,0.0,0.0,0.0,0.0,0.0,0.0,0.0,0.0,0.0,0.0,0.0,0.0,0.0,0.0,0.0,0.0,3.0331,2.9905,3.111,3.1888,0.0,0.0,3.1712,3.0708,3.0959,3.0382,2.777,0.0,0.0,0.0,0.0,0.0,0.0,0.0,0.0,0.0,0.0,0.0,0.0,0.0,0.0,0.0,0.0,0.0,0.0,0.0,0.0,0.0,0.0,0.0,0.0,0.0,0.0,0.0,0.0,0.0,0.0,0.0,0.0,0.0,0.0,0.0,0.0,0.0,0.0,0.0,0.0,0.0,0.0,0.0,0.0,0.0,0.0,0.0,0.0,0.0,0.0,0.0,0.0,0.0,2.8383,3.0281,3.3854,3.5929,3.6402,3.6405,3.6006,3.5207,3.4148,3.2608,0.0,0.0,0.0,0.0,0.0,0.0,0.0,0.0,0.0,0.0,0.0,0.0,0.0,0.0,0.0,0.0,0.0,0.0,0.0,0.0,0.0,0.0,0.0,0.0,0.0,0.0,0.0,0.0,2.1615,2.1557,2.1675,0.0,0.0,0.0,0.0,0.0,0.0,0.0,0.0,0.0,0.0,3.0783,3.121,3.1813,0.0,0.0,3.2315,3.2089,3.1662,3.1486,3.0809,2.9101,2.8524,0.0,0.0,0.0,0.0,0.0,0.0,0.0,0.0,0.0,0.0,0.0,0.0,0.0,0.0,0.0,0.0,0.0,0.0,0.0,0.0,0.0,0.0,0.0,0.0,0.0,0.0,0.0,0.0,0.0,0.0,0.0,0.0,0.0,0.0,0.0,0.0,0.0,0.0,0.0,0.0,0.0,0.0,0.0,0.0,0.0,0.0,0.0,0.0,0.0,0.0,0.0,0.0,2.9536,3.1513,3.5024,3.7034,3.7448,3.7428,3.7143,3.6528,3.546,3.4151,0.0,0.0,0.0,0.0,0.0,0.0,0.0,0.0,0.0,0.0,0.0,0.0,0.0,0.0,0.0,0.0,0.0,0.0,0.0,0.0,0.0,0.0,0.0,0.0,0.0,0.0,0.0,0.0,2.3005,2.2693,2.2552,0.0,0.0,0.0,0.0,0.0,0.0,0.0,0.0,0.0,0.0,3.1185,3.2089,3.2365,3.2616,3.3061,3.2742,3.2365,3.2014,3.1788,3.116,2.9754,0.0,0.0,0.0,0.0,0.0,0.0,0.0,0.0,0.0,0.0,0.0,0.0,0.0,0.0,0.0,0.0,0.0,0.0,0.0,0.0,0.0,0.0,0.0,0.0,0.0,0.0,0.0,0.0,0.0,0.0,2.7645,0.0,0.0,0.0,0.0,0.0,0.0,0.0,0.0,0.0,0.0,0.0,0.0,0.0,0.0,0.0,0.0,0.0,0.0,0.0,0.0,0.0,0.0,3.1169,3.3505,3.6503,3.8628,3.9727,3.9798,3.9479,3.8889,3.7745,3.6057,3.3798,0.0,0.0,0.0,0.0,0.0,0.0,0.0,0.0,0.0,0.0,0.0,0.0,0.0,0.0,0.0,0.0,0.0,0.0,0.0,0.0,0.0,0.0,0.0,0.0,0.0,0.0,2.3464,2.3218,2.3105,0.0,0.0,0.0,0.0,0.0,0.0,0.0,0.0,0.0,0.0,3.0331,3.1587,3.2164,3.2692,3.3111,3.3093,3.3136,3.2734,3.1662,3.1863,3.1461,0.0,0.0,0.0,0.0,0.0,0.0,0.0,0.0,0.0,0.0,0.0,0.0,0.0,0.0,0.0,0.0,0.0,0.0,0.0,0.0,0.0,0.0,0.0,0.0,0.0,0.0,0.0,3.3484,3.1869,0.0,0.0,0.0,0.0,0.0,0.0,0.0,0.0,0.0,0.0,0.0,3.8422,3.8906,0.0,0.0,0.0,0.0,0.0,0.0,0.0,0.0,0.0,0.0,0.0,0.0,3.2693,3.4843,3.7648,3.9339,3.9901,3.9885,3.9802,3.9581,3.8823,3.6967,3.3899,0.0,0.0,0.0,0.0,0.0,0.0,0.0,0.0,0.0,0.0,0.0,0.0,0.0,0.0,0.0,0.0,0.0,0.0,0.0,0.0,0.0,0.0,0.0,0.0,0.0,2.5325,0.0,0.0,0.0,0.0,0.0,0.0,0.0,0.0,0.0,0.0,0.0,3.0329,3.1473,3.2179,3.2717,3.3269,3.3495,3.3746,0.0,0.0,0.0,0.0,0.0,0.0,0.0,0.0,0.0,0.0,0.0,0.0,0.0,0.0,2.8574,2.5837,2.4908,2.4707,2.5234,0.0,0.0,0.0,0.0,0.0,0.0,0.0,0.0,0.0,0.0,0.0,0.0,0.0,0.0,3.6626,0.0,3.4502,0.0,0.0,0.0,0.0,0.0,0.0,0.0,0.0,3.9679,4.1145,4.1773,4.2192,4.1833,0.0,3.9709,3.7075,0.0,0.0,0.0,0.0,0.0,0.0,0.0,0.0,3.4729,3.6465,3.916,4.0712,4.107,4.1085,4.1113,4.1085,4.006,3.8193,3.5489,3.4413,3.2834,0.0,0.0,0.0,0.0,0.0,0.0,0.0,0.0,0.0,0.0,0.0,0.0,0.0,0.0,0.0,0.0,0.0,0.0,0.0,0.0,0.0,0.0,0.0,2.6823,0.0,0.0,0.0,0.0,0.0,0.0,0.0,0.0,0.0,3.044,3.1712,3.3284,3.4698,3.4865,3.5113,3.5661,0.0,0.0,0.0,0.0,0.0,0.0,0.0,3.3219,3.3545,3.3043,3.2717,3.3269,3.3219,3.2968,3.2591,0.0,0.0,2.8147,2.7193,2.6992,2.7494,2.7469,2.7519,2.8072,2.7742,2.7347,0.0,0.0,0.0,0.0,0.0,0.0,0.0,0.0,3.9918,3.923,0.0,3.7853,0.0,0.0,0.0,0.0,0.0,3.8631,0.0,0.0,4.3688,4.4975,4.4377,4.4407,4.4077,4.3539,4.3988,4.2581,3.9343,3.504,0.0,0.0,0.0,0.0,0.0,0.0,3.7195,3.8506,4.1055,4.2671,4.322,4.325,4.325,4.322,4.1436,3.9792,3.8482,3.7191,3.534,3.2736,3.1959,0.0,0.0,0.0,0.0,0.0,0.0,0.0,0.0,0.0,0.0,0.0,0.0,0.0,0.0,0.0,0.0,0.0,0.0,0.0,0.0,2.7238,0.0,0.0,0.0,0.0,0.0,0.0,0.0,0.0,0.0,0.0,3.3663,3.4752,3.6415,3.8183,0.0,0.0,0.0,0.0,3.6645,3.6724,3.5716,3.4785,3.4212,3.4514,3.4419,3.3438,0.0,0.0,3.4073,3.4399,3.4374,3.3345,3.3212,3.2792,3.1662,3.0859,3.0633,3.111,3.0758,3.0783,3.121,3.0994,3.1094,4.5065,0.0,0.0,0.0,0.0,4.2051,4.288,4.4586,4.3898,4.3,4.1923,4.1235,0.0,0.0,0.0,0.0,0.0,0.0,4.2043,4.2542,4.4436,4.5454,4.5753,4.6232,4.6112,4.5484,4.5155,4.4287,4.2851,4.0636,3.7678,3.4024,0.0,0.0,0.0,0.0,3.8721,4.0487,4.1782,4.2671,4.329,4.329,4.329,4.329,4.1863,4.0696,3.9828,3.8542,3.7075,3.5429,3.4262,0.0,0.0,0.0,0.0,0.0,0.0,0.0,0.0,0.0,0.0,0.0,0.0,0.0,0.0,0.0,0.0,0.0,0.0,0.0,2.923,2.9529,3.016,0.0,0.0,0.0,0.0,0.0,0.0,0.0,0.0,0.0,4.0194,3.9632,3.9413,0.0,0.0,4.0102,3.9809,3.9715,3.987,4.0237,0.0,0.0,0.0,3.7045,3.6366,3.5587,3.5751,3.583,3.5726,3.5454,3.5157,3.4876,3.4525,3.4148,3.3771,3.2315,3.1311,3.1336,3.126,3.121,3.1361,3.1386,3.1386,4.9015,4.6681,4.4586,4.4347,4.5274,4.4926,4.5753,4.7429,4.6501,4.5783,4.5274,4.4347,4.297,4.1324,4.0367,0.0,0.0,0.0,4.3898,4.4515,4.5603,4.6322,4.6741,4.71,4.71,4.6711,4.6292,4.5753,4.5095,4.4317,4.1923,3.8093,0.0,0.0,3.7101,3.8751,4.0157,4.1354,4.2282,4.294,4.329,4.329,4.317,4.294,4.1923,4.1085,4.0427,3.9349,3.8332,3.7285,3.5998,3.4053,0.0,0.0,0.0,0.0,0.0,0.0,0.0,0.0,0.0,0.0,0.0,2.6632,2.4926,0.0,0.0,0.0,2.8607,3.0492,3.1958,3.2557,0.0,0.0,0.0,0.0,0.0,0.0,0.0,3.9635,4.1296,4.2791,4.3917,4.3389,4.2931,4.2943,4.2807,4.2639,4.2525,0.0,4.2157,4.2479,4.2105,4.1424,4.0367,3.9627,3.8772,3.7619,3.7624,3.7381,3.6521,3.643,3.634,3.5945,3.5429,3.5006,3.5006,3.3746,3.2616,3.2441,3.239,3.2315,3.2114,3.2064,3.2064,5.2366,5.2097,4.9045,4.8027,4.8416,4.8386,4.8686,4.9209,4.7967,4.7788,4.8267,4.71,4.5843,4.4556,4.3329,0.0,4.3678,4.4915,4.5783,4.6411,4.701,4.7309,4.7309,4.7309,4.7309,4.7309,4.7309,4.701,4.6369,4.6381,4.5382,4.3529,4.1773,4.0487,3.9828,4.0995,4.1654,4.1713,4.2821,4.3349,4.329,4.329,4.303,4.241,4.1722,4.0995,4.0337,3.9619,3.896,3.8302,3.7135,3.531,3.2796,0.0,0.0,0.0,0.0,0.0,0.0,0.0,0.0,0.0,0.0,0.0,0.0,0.0,0.0,0.0,3.2138,0.0,3.4743,3.5908,0.0,0.0,0.0,3.8362,3.9738,4.1444,4.259,4.271,0.0,0.0,4.5454,0.0,4.6369,4.6369,4.5843,4.5663,4.619,4.4862,4.3907,4.3965,4.3016,4.2244,4.2053,4.1779,4.1005,3.9593,3.9689,3.9069,3.7299,3.7494,3.7723,3.659,3.5977,3.5651,3.5604,3.5082,3.47,3.4098,3.3947,3.3771,3.3319,3.3194,3.3194,5.3743,5.3623,5.2336,5.102,4.9687,4.9254,4.9179,4.9269,4.897,4.894,4.906,4.876,4.8117,4.7309,4.6501,4.6232,4.6381,4.6681,4.692,4.707,4.7249,4.7309,4.7309,4.7309,4.7309,4.7309,4.7309,4.7219,4.707,4.707,4.6548,4.5592,4.5155,4.4107,4.2551,4.321,4.3868,4.4347,4.4167,4.3798,4.3319,4.329,4.303,4.241,4.1235,4.0337,3.9649,3.8512,3.7823,3.7644,3.6896,3.5729,3.4083,3.1629,0.0,0.0,0.0,0.0,0.0,0.0,0.0,0.0,0.0,3.0911,2.7615,0.0,3.2497,0.0,3.3784,3.5699,3.7349,3.7734,0.0,0.0,4.1474,4.1931,4.3688,4.3868,4.4257,4.5274,4.5783,4.6292,4.677,4.698,4.707,4.707,4.692,4.6711,4.6369,4.6437,4.6413,4.634,4.6063,4.5478,4.4117,4.2683,4.1716,4.1233,4.0845,4.0059,3.8675,3.9033,3.8783,3.6943,3.7073,3.7083,3.6344,3.6056,3.578,3.5232,3.4781,3.45,3.4349,3.4324,3.4198,5.5089,5.4999,5.4042,5.2995,5.1947,5.1289,5.0887,5.0571,5.0272,4.9972,4.9673,4.9374,4.894,4.8267,4.7908,4.7578,4.7309,4.7309,4.7309,4.7309,4.7309,4.7309,4.7309,4.7309,4.7309,4.7309,4.7309,4.7309,4.7309,4.7309,4.713,4.677,4.6728,4.6202,4.5155,4.4885,4.4945,4.5274,4.4945,4.4436,4.3768,4.3778,4.318,4.1953,4.1235,4.0247,3.902,3.8242,3.7704,3.737,3.6806,3.6148,3.5402,3.3425,3.1988,0.0,0.0,0.0,0.0,0.0,0.0,0.0,0.0,0.0,0.0,0.0,3.504,3.5517,3.7135,3.8781,4.0427,4.1115,4.2192,4.4018,4.4167,4.4556,4.5633,4.5693,4.5933,4.6681,4.677,4.689,4.7249,4.7309,4.7309,4.7309,4.7309,4.7189,4.686,4.71,4.7309,4.7309,4.7309,4.7016,4.5918,4.4705,4.3627,4.317,4.2908,4.2206,4.0259,4.0537,4.0277,3.7821,3.7678,3.7723,3.6662,3.6405,3.6304,3.5981,3.5655,3.5303,3.4781,3.468,3.4625,5.6218,5.6077,5.485,5.4341,5.4281,5.3683,5.2965,5.2157,5.1588,5.0913,5.0285,4.9673,4.9015,4.8416,4.8416,4.7997,4.7339,4.7399,4.7369,4.7309,4.7309,4.7309,4.7309,4.7309,4.7309,4.7309,4.7309,4.7309,4.7309,4.7309,4.7309,4.7309,4.7309,4.7309,4.7249,4.6142,4.5514,4.5424,4.5424,4.5095,4.4466,4.4347,4.3419,4.1662,4.1354,4.0307,3.8392,3.8332,3.8093,3.7434,3.6985,3.6716,3.6716,3.54,3.4384,0.0,3.3125,0.0,0.0,0.0,0.0,0.0,0.0,0.0,0.0,3.6776,3.8063,3.9679,4.1085,4.2342,4.3439,4.4706,4.5454,4.5544,4.6082,4.6441,4.6471,4.695,4.7309,4.7309,4.7309,4.7309,4.7309,4.7309,4.7309,4.7309,4.7309,4.7279,4.7279,4.7279,4.7309,4.7309,4.7309,4.7236,4.7103,4.6715,4.5984,4.5172,4.5049,4.4474,4.1796,4.2237,4.1981,3.9276,3.8692,3.8349,3.6922,3.6662,3.6568,3.6427,3.6329,3.6053,3.5253,3.5027,3.4901,5.6218,5.6158,5.5329,5.4999,5.4999,5.488,5.3832,5.2187,5.2067,5.1648,5.0943,5.0331,4.9703,4.9149,4.912,4.8416,4.7339,4.7848,4.7818,4.7309,4.7309,4.7309,4.7309,4.7309,4.7309,4.7309,4.7309,4.7309,4.7309,4.7309,4.7309,4.7309,4.7309,4.7309,4.7309,0.0,0.0,0.0,4.61,4.5813,4.5125,4.4586,4.3629,4.2261,4.1183,0.0,3.7734,3.8123,3.8093,3.7464,3.7793,0.0,0.0,0.0,0.0,0.0,0.0,0.0,0.0,0.0,0.0,0.0,3.92,3.8601,3.7973,4.0427,4.2013,4.1901,4.3479,4.4646,4.4885,4.5663,4.6352,4.686,4.704,4.713,4.713,4.7249,4.7309,4.7309,4.7309,4.7309,4.7309,4.7309,4.7309,4.7309,4.7309,4.7309,4.7309,4.7309,4.7309,4.7309,4.7309,4.7309,4.7309,4.7189,4.6954,4.6751,4.6347,4.5543,4.4211,4.428,4.3712,4.0891,4.1103,4.0805,3.8304,3.7769,3.7448,3.6568,3.6405,3.6329,3.6128,3.6056,3.5931,5.7154,0.0,5.6077,5.5688,0.0,5.5329,5.4431,5.3174,5.3174,5.2636,5.1678,5.0973,5.0361,4.9733,4.9763,4.9224,4.8341,4.8596,4.8596,4.8267,4.7938,4.7788,4.7788,4.7459,4.7309,4.7309,4.7309,4.7309,4.7309,4.7309,4.7309,4.7309,4.7309,4.7309,4.7309,4.7309,4.713,4.68,4.68,4.6471,4.5813,4.5484,4.4526,4.291,0.0,0.0,0.0,0.0,0.0,0.0,0.0,0.0,0.0,0.0,0.0,3.8362,3.8063,3.8033,3.8392,3.932,4.0457,4.1743,4.2761,4.2611,4.0965,4.297,4.4347,4.4347,4.5244,4.5933,4.6262,4.6591,4.695,4.7249,4.7309,4.7309,4.7309,4.7309,4.7309,4.7309,4.7309,4.7309,4.7309,4.7309,4.7309,4.7309,4.7309,4.7309,4.7309,4.7309,4.7309,4.7309,4.7309,4.7309,4.7309,4.7309,4.7309,4.7249,4.704,4.6466,4.5593,4.5611,4.4997,4.2752,4.2467,4.1838,3.9957,3.8772,3.788,3.7335,3.6803,3.6405,3.6405,3.6405,3.6329,5.8231,5.8022,5.6825,5.6308,5.6188,5.5649,5.4999,5.4341,0.0,0.0,0.0,5.1498,5.087,5.0196,5.0315,5.0002,4.9329,4.9374,4.9419,4.9269,4.8716,4.8446,4.8416,4.7788,4.7459,4.7459,4.7369,4.7309,4.7309,4.7309,4.7309,4.7309,4.7309,4.7309,4.7309,4.7309,4.7309,4.7309,4.7309,4.704,4.6459,4.6339,4.5484,4.3678,4.3409,4.2423,4.0666,4.0696,4.0457,3.9828,3.9858,4.0187,4.0696,4.0726,4.0995,4.1504,4.1811,4.1923,4.1923,4.253,4.318,4.3768,4.5442,4.5711,4.3947,4.4945,4.5873,4.6399,4.6501,4.6668,4.7249,4.7309,4.7309,4.7309,4.7309,4.7309,4.7309,4.7309,4.7309,4.7309,4.7309,4.7309,4.7309,4.7309,4.7309,4.7309,4.7309,4.7309,4.7309,4.7309,4.7309,4.7309,4.7309,4.7309,4.7309,4.7309,4.7309,4.7309,4.7309,4.71,4.6681,4.6459,4.5819,4.4398,4.3615,4.2768,4.1387,4.0045,3.8711,3.8225,3.7356,3.664,3.6452,3.6405,3.6405,5.865,5.7999,5.7274,5.6645,5.6218,5.6077,5.5658,5.491,5.3234,5.2396,5.2157,5.1498,5.0794,5.0226,5.0794,5.0421,4.9359,4.9853,4.9823,0.0,4.9209,4.9179,4.9149,4.8476,4.8147,4.8117,4.7578,4.7309,4.7309,4.7309,4.7309,4.7309,4.7309,4.7309,4.7309,4.7309,4.7309,4.7309,4.7309,4.7249,4.716,4.6578,4.5903,4.5035,4.3888,4.2671,4.1362,4.1841,4.1811,4.1145,4.1654,4.2021,4.2111,4.2141,4.2171,4.2321,4.3269,4.3898,4.3898,4.4526,4.5185,4.5831,4.6681,4.68,4.598,4.6591,4.707,4.716,4.713,4.7189,4.7309,4.7309,4.7309,4.7309,4.7309,4.7309,4.7309,4.7309,4.7309,4.7309,4.7309,4.7309,4.7309,4.7309,4.7309,4.7309,4.7309,4.7309,4.7309,4.7309,4.7309,4.7309,4.7309,4.7309,4.7309,4.7309,4.7309,4.7309,4.7309,4.7279,4.713,4.707,4.6731,4.6036,4.5654,4.4739,4.2825,4.2224,4.0777,3.8872,3.7926,3.7494,3.664,3.6405,3.6405,5.9249,5.862,5.7932,5.7483,5.7184,5.6466,5.5807,5.5089,5.3832,5.3084,5.2665,5.2037,5.1379,5.0764,5.1079,5.09,5.0331,5.0631,5.0631,5.0301,4.9972,4.9793,4.9733,4.9134,4.867,4.8267,4.7997,4.7668,4.7339,4.7309,4.7309,4.7309,4.7309,4.7309,4.7309,4.7309,4.7309,4.7309,4.7309,4.7309,4.7309,4.701,4.6531,4.5873,4.5203,4.4526,4.3539,4.3778,4.3808,4.3509,4.3778,4.3998,4.3998,4.3998,4.3998,4.3958,4.4496,4.4855,4.4855,4.5484,4.6142,4.68,4.713,4.7189,4.689,4.713,4.7309,4.7309,4.7309,4.7309,4.7309,4.7309,4.7309,4.7309,4.7309,4.7309,4.7309,4.7309,4.7309,4.7309,4.7309,4.7309,4.7309,4.7309,4.7309,4.7309,4.7309,4.7309,4.7309,4.7309,4.7309,4.7309,4.7309,4.7309,4.7309,4.7309,4.7309,4.7309,4.7309,4.7309,4.7309,4.7309,4.716,4.689,4.6591,4.5722,4.4238,4.3193,4.1639,3.9788,3.8469,3.7723,3.6756,3.6405,3.6405,6.073,5.994,5.9085,5.8407,5.7812,5.6675,5.5807,5.5149,5.464,5.4042,5.3354,5.2576,5.1917,5.1439,5.1289,5.1229,5.1229,5.1229,5.1229,5.1169,5.0644,5.0405,5.0345,4.9793,4.9224,4.8716,4.8446,4.8027,4.7549,4.7399,4.7309,4.7309,4.7309,4.7309,4.7309,4.7309,4.7309,4.7309,4.7309,4.7309,4.7309,4.7309,4.707,4.6591,4.6381,4.6082,4.5574,4.5394,4.5274,4.5274,4.5274,4.5274,4.5304,4.5454,4.5514,4.5544,4.5663,4.5753,4.5783,4.6232,4.677,4.7249,4.7309,4.7309,4.7309,4.7309,4.7309,4.7309,4.7309,4.7309,4.7309,4.7309,4.7309,4.7309,4.7309,4.7309,4.7309,4.7309,4.7309,4.7309,4.7309,4.7309,4.7309,4.7309,4.7309,4.7309,4.7309,4.7309,4.7309,4.7309,4.7309,4.7309,4.7309,4.7309,4.7309,4.7309,4.7309,4.7309,4.7309,4.7309,4.7309,4.7309,4.7309,4.7219,4.689,4.6309,4.558,4.4364,4.268,4.0997,3.9821,3.8604,3.7243,3.6568,3.6405,6.3825,6.2534,6.12,5.9326,5.7311,5.6569,5.596,5.531,5.517,5.473,5.413,5.2755,5.2204,5.2037,5.1498,5.1259,5.1229,5.1229,5.1229,5.1229,5.1169,5.1139,5.0973,5.0405,5.0076,4.9837,4.8865,4.8297,4.8117,4.7578,4.7309,4.7309,4.7309,4.7309,4.7309,4.7309,4.7309,4.7309,4.7309,4.7309,4.7309,4.7309,4.7279,4.7219,4.6578,4.6249,4.6202,4.5633,4.5304,4.5274,4.5334,4.5304,4.5364,4.5903,4.619,4.6219,4.677,4.713,4.71,4.7189,4.7219,4.7309,4.7309,4.7309,4.7309,4.7309,4.7309,4.7309,4.7309,4.7309,4.7309,4.7309,4.7309,4.7309,4.7309,4.7309,4.7309,4.7309,4.7309,4.7309,4.7309,4.7309,4.7309,4.7309,4.7309,4.7309,4.7309,4.7309,4.7309,4.7309,4.7309,4.7309,4.7309,4.7309,4.7309,4.7309,4.7309,4.7309,4.7309,4.7309,4.7309,4.7309,4.7309,4.7279,4.7249,4.689,4.6262,4.5496,4.4364,4.238,4.1256,4.0462,3.8514,3.7196,3.6662,6.4284,6.2956,6.239,6.111,5.943,5.9086,5.8369,5.7355,5.7323,5.7168,5.6762,5.5453,5.3868,5.2234,5.1917,5.1588,5.1229,5.1229,5.1229,5.1229,5.1229,5.1229,5.1199,5.096,5.0584,5.0166,4.9284,4.8656,4.8237,4.7638,4.7309,4.7309,4.7309,4.7309,4.7309,4.7309,4.7309,4.7309,4.7309,4.7309,4.7309,4.7309,4.7309,4.7279,4.704,4.692,4.689,4.6621,4.6471,4.6501,4.6501,4.6471,4.6501,4.6741,4.689,4.692,4.716,4.7309,4.7309,4.7309,4.7309,4.7309,4.7309,4.7309,4.7309,4.7309,4.7309,4.7309,4.7309,4.7309,4.7309,4.7309,4.7309,4.7309,4.7309,4.7309,4.7309,4.7309,4.7309,4.7309,4.7309,4.7309,4.7309,4.7309,4.7309,4.7309,4.7309,4.7309,4.7309,4.7309,4.7309,4.7309,4.7309,4.7309,4.7309,4.7309,4.7309,4.7309,4.7309,4.7309,4.7309,4.7309,4.7309,4.7309,4.7309,4.707,4.6411,4.6028,4.5268,4.3338,4.1412,4.0232,3.9316,3.8198,3.754,6.5476,6.4323,6.3815,6.2631,6.1227,6.1227,6.038,5.9164,5.91,5.9004,5.8716,5.7724,5.5839,5.3622,5.3039,5.2582,5.2139,5.1819,5.1681,5.1635,5.1339,5.1229,5.1229,5.1229,5.096,5.0435,4.9853,4.9105,4.8327,4.7608,4.7309,4.7309,4.7309,4.7309,4.7309,4.7309,4.7309,4.7309,4.7309,4.7309,4.7309,4.7309,4.7309,4.7309,4.7309,4.7309,4.7309,4.7309,4.7309,4.7309,4.7309,4.7309,4.7309,4.7309,4.7309,4.7309,4.7309,4.7309,4.7309,4.7309,4.7309,4.7309,4.7309,4.7309,4.7309,4.7309,4.7309,4.7309,4.7309,4.7309,4.7309,4.7309,4.7309,4.7309,4.7309,4.7309,4.7309,4.7309,4.7309,4.7309,4.7309,4.7309,4.7309,4.7309,4.7309,4.7309,4.7309,4.7309,4.7309,4.7309,4.7309,4.7309,4.7309,4.7309,4.7309,4.7309,4.7309,4.7309,4.7309,4.7309,4.7309,4.7309,4.7309,4.7309,4.7309,4.7189,4.68,4.6416,4.5747,4.3579,4.1752,4.056,4.0361,3.9376,3.8604,6.8475,6.7382,6.5603,6.3727,6.1979,6.2041,6.1224,6.0026,5.9954,5.9556,5.9024,5.8787,5.7916,5.6411,5.5198,5.4485,5.4211,5.3253,5.2767,5.2664,5.1727,5.1229,5.1229,5.1229,5.1199,5.105,5.0345,4.9494,4.8297,4.7668,4.7309,4.7309,4.7309,4.7309,4.7309,4.7309,4.7309,4.7309,4.7309,4.7309,4.7309,4.7309,4.7309,4.7309,4.7309,4.7309,4.7309,4.7309,4.7309,4.7309,4.7309,4.7309,4.7309,4.7309,4.7309,4.7309,4.7309,4.7309,4.7309,4.7309,4.7309,4.7309,4.7309,4.7309,4.7309,4.7309,4.7309,4.7309,4.7309,4.7309,4.7309,4.7309,4.7309,4.7309,4.7309,4.7309,4.7309,4.7309,4.7309,4.7309,4.7309,4.7309,4.7309,4.7309,4.7309,4.7309,4.7309,4.7309,4.7309,4.7309,4.7309,4.7309,4.7309,4.7309,4.7309,4.7309,4.7309,4.7309,4.7309,4.7309,4.7309,4.7309,4.7309,4.7309,4.7309,4.7249,4.713,4.6621,4.5711,4.4169,4.2719,4.1744,4.1532,4.0575,3.9667,6.8368,6.7176,6.6421,6.5421,6.4407,6.4374,6.3544,6.2282,6.2173,6.1816,6.1078,6.0613,5.9849,5.882,5.7858,5.5954,5.3687,5.3828,5.3613,5.2945,5.2485,5.226,5.2215,5.1572,5.1229,5.1109,5.0495,4.9553,4.8386,4.8027,4.7698,4.7369,4.7309,4.7309,4.7309,4.7309,4.7309,4.7309,4.7309,4.7309,4.7309,4.7309,4.7309,4.7309,4.7309,4.7309,4.7309,4.7309,4.7309,4.7309,4.7309,4.7309,4.7309,4.7309,4.7309,4.7309,4.7309,4.7309,4.7309,4.7309,4.7309,4.7309,4.7309,4.7309,4.7309,4.7309,4.7309,4.7309,4.7309,4.7309,4.7309,4.7309,4.7309,4.7309,4.7309,4.7309,4.7309,4.7309,4.7309,4.7309,4.7309,4.7309,4.7309,4.7309,4.7309,4.7309,4.7309,4.7309,4.7309,4.7309,4.7309,4.7309,4.7309,4.7309,4.7309,4.7309,4.7309,4.7309,4.7309,4.7309,4.7309,4.7309,4.7309,4.7309,4.7309,4.7309,4.716,4.6441,4.5603,4.4971,4.3484,4.2754,4.2699,4.1657,4.0575,6.8335,6.7218,6.6914,6.6508,6.6068,6.6034,6.5222,6.3937,6.3869,6.3328,6.2415,6.1873,6.1231,6.0452,5.9708,5.7608,5.4603,5.4893,5.4681,5.3967,5.3613,5.3471,5.334,5.2634,5.226,5.2213,5.1631,5.0628,4.9546,4.9243,4.8602,4.7682,4.7638,4.7519,4.7339,4.7309,4.7309,4.7309,4.7309,4.7309,4.7309,4.7309,4.7309,4.7309,4.7309,4.7309,4.7309,4.7309,4.7309,4.7309,4.7309,4.7309,4.7309,4.7309,4.7309,4.7309,4.7309,4.7309,4.7309,4.7309,4.7309,4.7309,4.7309,4.7309,4.7309,4.7309,4.7309,4.7309,4.7309,4.7309,4.7309,4.7309,4.7309,4.7309,4.7309,4.7309,4.7309,4.7309,4.7309,4.7309,4.7309,4.7309,4.7309,4.7309,4.7309,4.7309,4.7309,4.7309,4.7309,4.7309,4.7309,4.7309,4.7309,4.7309,4.7309,4.7309,4.7309,4.7309,4.7309,4.7309,4.7309,4.7309,4.7309,4.7309,4.7309,4.7309,4.695,4.6262,4.5753,4.5364,4.4434,4.3456,4.3138,4.2699,4.1587,6.8605,6.7793,6.7117,6.6812,6.6711,6.6609,6.5865,6.4647,6.4478,6.3632,6.2448,6.2347,6.1873,6.1197,6.0419,5.9031,5.7404,5.6731,5.6218,5.585,5.5011,5.463,5.4589,5.4337,5.4253,5.4221,5.3834,5.2944,5.1778,5.1146,5.0119,4.8709,4.8528,4.827,4.7426,4.7572,4.7426,4.7339,4.7369,4.7369,4.7309,4.7309,4.7309,4.7309,4.7309,4.7309,4.7309,4.7309,4.7309,4.7309,4.7309,4.7309,4.7309,4.7309,4.7309,4.7309,4.7309,4.7309,4.7309,4.7309,4.7309,4.7309,4.7309,4.7309,4.7309,4.7309,4.7339,4.7429,4.7429,4.7369,4.7399,4.7399,4.7369,4.7309,4.7309,4.7309,4.7309,4.7309,4.7309,4.7309,4.7309,4.7309,4.7309,4.7309,4.7309,4.7309,4.7309,4.7309,4.7309,4.7309,4.7309,4.7309,4.7309,4.7309,4.7309,4.7309,4.7309,4.7309,4.7309,4.7309,4.7309,4.7309,4.7309,4.7309,4.7309,4.7309,4.7219,4.6561,4.6052,4.5544,4.4725,4.4067,4.3617,4.3138,4.2496,6.8639,6.7827,6.7117,6.6812,6.6745,6.6271,6.5459,6.458,6.4106,6.3294,6.2516,6.2415,6.1975,6.14,6.1028,6.0333,5.9252,5.8911,5.793,5.6447,5.5889,5.573,5.5538,5.4961,5.4589,5.4557,5.4438,5.3857,5.3194,5.2857,5.2207,5.137,5.0743,5.0029,4.9166,4.9009,4.856,4.7486,4.7758,4.7788,4.7369,4.7309,4.7309,4.7309,4.7309,4.7309,4.7309,4.7309,4.7309,4.7309,4.7309,4.7309,4.7309,4.7309,4.7309,4.7309,4.7309,4.7309,4.7309,4.7309,4.7309,4.7309,4.7309,4.7309,4.7309,4.7339,4.7519,4.7878,4.7997,4.7967,4.7967,4.7997,4.7818,4.7369,4.7309,4.7309,4.7309,4.7309,4.7309,4.7309,4.7309,4.7309,4.7309,4.7309,4.7309,4.7309,4.7309,4.7309,4.7309,4.7309,4.7309,4.7309,4.7309,4.7309,4.7309,4.7309,4.7309,4.7309,4.7309,4.7309,4.7309,4.7309,4.7309,4.7309,4.7309,4.7279,4.7189,4.689,4.6381,4.5813,4.5113,4.4545,4.4067,4.3537,4.2935,6.8808,6.8233,6.7252,6.6812,6.6779,6.6271,6.5527,6.4613,6.414,6.3328,6.255,6.2415,6.2144,6.1704,6.1434,6.1028,6.0554,6.025,5.9199,5.7758,5.7315,5.7115,5.6844,5.6198,5.581,5.5843,5.581,5.5382,5.46,5.4535,5.4051,5.3054,5.2493,5.1821,5.0992,5.0838,5.0237,4.9416,4.9466,4.909,4.8384,4.7983,4.7679,4.7396,4.7309,4.7309,4.7309,4.7309,4.7309,4.7309,4.7309,4.7309,4.7309,4.7309,4.7309,4.7309,4.7309,4.7309,4.7309,4.7309,4.7429,4.7608,4.7668,4.7818,4.7908,4.7878,4.7967,4.8506,4.8416,4.8386,4.8596,4.8656,4.8356,4.7728,4.7429,4.7339,4.7309,4.7309,4.7309,4.7309,4.7309,4.7309,4.7309,4.7309,4.7309,4.7309,4.7309,4.7309,4.7309,4.7309,4.7309,4.7309,4.7309,4.7309,4.7309,4.7309,4.7309,4.7309,4.7309,4.7309,4.7309,4.7309,4.7309,4.7309,4.7309,4.7309,4.7219,4.707,4.6681,4.6082,4.5574,4.5095,4.4616,4.4067,4.3496,6.9079,6.891,6.7455,6.6812,6.6812,6.6677,6.5899,6.4816,6.4478,6.37,6.2685,6.2448,6.2381,6.2212,6.1704,6.1434,6.1264,6.0723,6.0351,5.9831,5.9359,5.8714,5.7931,5.7621,5.748,5.7591,5.7628,5.7189,5.6228,5.615,5.545,5.4236,5.397,5.3423,5.2909,5.2741,5.2557,5.2093,5.175,5.1015,4.9978,4.9202,4.8407,4.7525,4.7486,4.7399,4.7309,4.7309,4.7309,4.7309,4.7309,4.7309,4.7309,4.7309,4.7309,4.7309,4.7309,4.7309,4.7309,4.7429,4.7638,4.8117,4.8297,4.861,4.8925,4.8626,4.8626,4.9194,4.8865,4.8745,4.9239,4.9314,4.9015,4.8416,4.7848,4.7519,4.7459,4.7519,4.7638,4.7578,4.7459,4.7429,4.7519,4.7459,4.7399,4.7309,4.7309,4.7309,4.7309,4.7309,4.7309,4.7309,4.7309,4.7309,4.7309,4.7309,4.7309,4.7309,4.7309,4.7309,4.7309,4.7309,4.7309,4.7309,4.7309,4.7309,4.7279,4.713,4.698,4.6561,4.6082,4.5603,4.5125,4.4605,4.4067,6.9079,6.8944,6.7455,6.6812,6.6711,6.6237,6.5797,6.5256,6.4241,6.3666,6.3125,6.2618,6.2415,6.2381,6.2212,6.211,6.1975,6.1839,6.1434,6.1028,6.0825,5.9911,5.8795,5.8118,5.7881,5.7881,5.7881,5.7772,5.748,5.7372,5.7089,5.6738,5.605,5.5454,5.4695,5.4508,5.3746,5.2837,5.3014,5.2453,5.1224,5.0172,4.9223,4.848,4.8205,4.7845,4.7369,4.7309,4.7309,4.7309,4.7309,4.7309,4.7309,4.7339,4.7369,4.7369,4.7369,4.7339,4.7429,4.7788,4.8117,4.8297,4.8775,4.912,4.9269,4.9179,4.9344,4.9793,4.9793,4.9763,4.9942,4.9972,4.9643,4.912,4.8506,4.8237,4.8536,4.879,4.879,4.879,4.873,4.8446,4.8147,4.7997,4.7848,4.7489,4.7369,4.7309,4.7339,4.7309,4.7309,4.7309,4.7309,4.7309,4.7309,4.7309,4.7309,4.7309,4.7309,4.7309,4.7309,4.7309,4.7309,4.7309,4.7309,4.7309,4.7309,4.7249,4.707,4.692,4.6561,4.6082,4.5693,4.5173,4.4586,6.9383,6.8977,6.7793,6.7083,6.6779,6.6339,6.6,6.5493,6.4512,6.3971,6.3734,6.2821,6.2584,6.2821,6.255,6.2415,6.2415,6.2415,6.2144,6.1772,6.14,6.0419,5.9133,5.8254,5.7881,5.7881,5.7881,5.7881,5.7881,5.7881,5.7881,5.7741,5.7476,5.6948,5.6437,5.6292,5.5828,5.5046,5.4957,5.4344,5.313,5.2123,5.1239,5.0429,4.9774,4.9001,4.8279,4.8147,4.7908,4.7489,4.7309,4.7309,4.7339,4.7578,4.7698,4.7728,4.7938,4.8147,4.8177,4.8506,4.8805,4.9105,4.9494,4.9793,4.9972,4.9883,4.9942,5.0511,5.0345,5.0345,5.0495,5.0375,5.0212,5.0062,4.9494,4.9164,4.9329,4.9239,4.9299,4.9299,4.9269,4.9209,4.876,4.876,4.8356,4.7938,4.7788,4.7578,4.7399,4.7369,4.7309,4.7309,4.7309,4.7309,4.7309,4.7309,4.7309,4.7309,4.7309,4.7309,4.7309,4.7309,4.7309,4.7309,4.7309,4.7309,4.7309,4.7309,4.7249,4.707,4.683,4.6561,4.6142,4.5741,4.5155,6.9755,6.9011,6.8233,6.7489,6.688,6.6812,6.6406,6.5764,6.5053,6.4715,6.441,6.3159,6.2956,6.3423,6.2685,6.2415,6.2415,6.2415,6.2381,6.2076,6.1603,6.0622,5.9573,5.8761,5.8321,5.8152,5.8017,5.7983,5.7915,5.7881,5.7881,5.7848,5.7848,5.7848,5.7566,5.7707,5.7848,5.7429,5.6844,5.6181,5.5222,5.4311,5.3382,5.2452,5.1442,5.0556,4.9833,4.9448,4.8966,4.7765,4.7605,4.7638,4.7668,4.8117,4.8327,4.8446,4.885,4.912,4.9269,4.9269,4.9553,5.0002,5.0136,5.0524,5.084,5.0601,5.0571,5.105,5.0614,5.0644,5.0883,5.0614,5.0584,5.081,5.0524,5.0092,4.9643,4.9509,4.9509,4.9509,4.9539,4.9509,4.9419,4.9359,4.9134,4.858,4.8327,4.8117,4.7848,4.7668,4.7519,4.7309,4.7309,4.7309,4.7309,4.7309,4.7309,4.7309,4.7309,4.7309,4.7309,4.7309,4.7309,4.7309,4.7309,4.7309,4.7309,4.7309,4.7309,4.7279,4.707,4.686,4.6591,4.619,4.5681,6.9755,6.9045,6.8233,6.7489,6.688,6.6812,6.6711,6.6508,6.5764,6.5392,6.5121,6.3903,6.3429,6.3457,6.2821,6.2415,6.2415,6.2415,6.2415,6.2313,6.1637,6.1231,6.0622,5.9979,5.9336,5.893,5.8795,5.8457,5.8084,5.7983,5.7881,5.7881,5.7881,5.7881,5.7881,5.7881,5.7881,5.7848,5.7679,5.7234,5.6502,5.5609,5.4721,5.3803,5.2852,5.2009,5.1358,5.0833,5.0432,5.0002,4.9438,4.9117,4.8923,4.897,4.9045,4.9105,4.9239,4.9359,4.9419,4.9763,5.0046,5.0255,5.0644,5.1003,5.1169,5.1109,5.105,5.1199,5.1033,5.0973,5.1139,5.1109,5.105,5.1109,5.105,5.09,5.081,5.075,5.0661,5.069,5.069,5.0601,5.0122,5.0032,4.9733,4.9269,4.897,4.8716,4.8416,4.8117,4.7848,4.7608,4.7519,4.7519,4.7309,4.7309,4.7309,4.7309,4.7309,4.7309,4.7309,4.7309,4.7309,4.7309,4.7309,4.7309,4.7309,4.7309,4.7309,4.7309,4.7309,4.713,4.692,4.6578,4.6399,7.0297,6.9553,6.8774,6.803,6.732,6.6981,6.6812,6.6677,6.6,6.5899,6.5865,6.4681,6.4038,6.3971,6.326,6.2753,6.2448,6.2415,6.2415,6.2313,6.1975,6.1839,6.1772,6.1332,6.0655,5.9742,5.9505,5.9099,5.8592,5.8389,5.8254,5.7915,5.7915,5.7881,5.7881,5.7915,5.7881,5.7881,5.7881,5.7679,5.7265,5.6801,5.5999,5.5226,5.4509,5.3946,5.3197,5.286,5.2671,5.2513,5.2044,5.1159,5.0147,4.9839,4.9748,4.9733,5.0062,5.0152,5.0331,5.0481,5.0644,5.0644,5.1003,5.1139,5.1229,5.1229,5.1229,5.1229,5.1229,5.1229,5.1229,5.1229,5.1229,5.1229,5.1229,5.1229,5.1229,5.1229,5.1229,5.1229,5.1139,5.102,5.0764,5.0584,5.0315,4.9823,4.9703,4.9494,4.906,4.873,4.8356,4.8117,4.7908,4.7698,4.7399,4.7309,4.7309,4.7309,4.7309,4.7309,4.7309,4.7309,4.7309,4.7309,4.7309,4.7309,4.7309,4.7309,4.7309,4.7309,4.7309,4.7309,4.7219,4.698,4.689,7.0872,7.0128,6.9417,6.8639,6.7861,6.7117,6.6812,6.6711,6.6136,6.6237,6.6474,6.5358,6.4783,6.4613,6.4005,6.326,6.2719,6.2415,6.2415,6.2347,6.2313,6.2279,6.2245,6.2076,6.167,6.052,6.0351,5.9877,5.937,5.9167,5.8964,5.8389,5.8287,5.8457,5.8321,5.8084,5.8152,5.8186,5.7983,5.7881,5.7814,5.7707,5.7201,5.6611,5.6349,5.5732,5.4955,5.4686,5.4782,5.4838,5.4713,5.3543,5.2229,5.1181,5.0728,5.0728,5.1196,5.1208,5.1006,5.1109,5.1169,5.1229,5.1229,5.1229,5.1229,5.1229,5.1229,5.1289,5.1319,5.1468,5.1379,5.1468,5.1439,5.1379,5.1319,5.1229,5.1229,5.1229,5.1229,5.1229,5.1229,5.1139,5.1139,5.105,5.0734,5.0495,5.0375,5.0182,4.9703,4.9359,4.9015,4.873,4.8506,4.8147,4.7818,4.7339,4.7339,4.7369,4.7339,4.7309,4.7309,4.7309,4.7309,4.7309,4.7309,4.7309,4.7309,4.7309,4.7309,4.7309,4.7309,4.7309,4.7309,4.7309,4.7249,7.0872,7.0128,6.9417,6.8639,6.7861,6.7117,6.6812,6.6812,6.6643,6.6677,6.6643,6.5899,6.5527,6.529,6.4749,6.4005,6.3294,6.2787,6.2482,6.2448,6.2448,6.2415,6.2516,6.2415,6.2178,6.1941,6.14,6.0689,6.0114,5.9877,5.9742,5.9708,5.9607,5.9573,5.937,5.9201,5.8795,5.8626,5.8254,5.8017,5.7881,5.7881,5.7808,5.7446,5.7409,5.6925,5.6204,5.5936,5.5968,5.585,5.5084,5.4931,5.4794,5.4205,5.3373,5.2595,5.2362,5.2154,5.1572,5.1323,5.1229,5.1229,5.1433,5.1339,5.1293,5.1276,5.14,5.1409,5.1708,5.2007,5.2037,5.2037,5.2055,5.1917,5.173,5.14,5.1323,5.1339,5.1323,5.1229,5.1229,5.1229,5.1229,5.1229,5.105,5.0853,5.084,5.0584,5.0242,4.9972,4.9763,4.9434,4.9179,4.876,4.8297,4.7728,4.7399,4.7429,4.7399,4.7309,4.7309,4.7309,4.7309,4.7309,4.7309,4.7309,4.7309,4.7309,4.7309,4.7309,4.7309,4.7309,4.7309,4.7309,4.7309,7.1109,7.0669,6.9586,6.8876,6.8368,6.7286,6.6812,6.6812,6.6812,6.6812,6.6711,6.6406,6.6034,6.5696,6.5392,6.458,6.3632,6.3193,6.299,6.2922,6.2618,6.2651,6.2821,6.2618,6.2415,6.2279,6.1975,6.1467,6.0791,6.0723,6.052,6.0114,6.008,6.008,6.0047,5.9742,5.937,5.9066,5.866,5.8254,5.7949,5.7915,5.7881,5.7881,5.7881,5.7591,5.7297,5.7076,5.7076,5.7001,5.6586,5.6663,5.6734,5.6503,5.553,5.4158,5.334,5.2767,5.22,5.2063,5.2109,5.22,5.2561,5.262,5.226,5.2109,5.2031,5.1897,5.1917,5.2366,5.2636,5.2695,5.2851,5.3006,5.2733,5.2383,5.2185,5.2094,5.1865,5.1526,5.1386,5.1386,5.1229,5.1229,5.1229,5.1229,5.1229,5.102,5.0674,5.0571,5.0391,5.0002,4.9613,4.9224,4.8775,4.8267,4.7848,4.7788,4.7549,4.7459,4.7339,4.7369,4.7339,4.7309,4.7309,4.7309,4.7309,4.7309,4.7309,4.7309,4.7309,4.7309,4.7309,4.7309,4.7309,7.1244,7.0973,6.9654,6.9011,6.8639,6.7421,6.6812,6.6812,6.6812,6.6812,6.6812,6.6779,6.644,6.6,6.5628,6.5019,6.3937,6.3869,6.3734,6.3632,6.326,6.326,6.3396,6.3193,6.2888,6.2753,6.2651,6.2245,6.1637,6.1501,6.1129,6.0926,6.0622,6.0554,6.0655,6.052,5.9945,5.9641,5.9197,5.8829,5.8287,5.8118,5.8017,5.7949,5.8017,5.8084,5.7772,5.8008,5.7907,5.7839,5.7772,5.7876,5.8084,5.8118,5.7372,5.5807,5.4412,5.3613,5.3253,5.3471,5.3565,5.3609,5.4464,5.4399,5.3984,5.3627,5.3192,5.2863,5.2684,5.2875,5.3324,5.3384,5.3741,5.4129,5.4049,5.3782,5.357,5.3321,5.2945,5.253,5.1972,5.1665,5.1556,5.1229,5.1229,5.1229,5.1229,5.1229,5.099,5.105,5.084,5.0421,5.0062,4.9703,4.9314,4.8895,4.8596,4.8476,4.8087,4.7758,4.7578,4.7429,4.7369,4.7309,4.7309,4.7309,4.7309,4.7309,4.7309,4.7309,4.7309,4.7309,4.7309,4.7309,4.7309,7.0939,7.0263,6.9451,6.8707,6.7996,6.7184,6.6812,6.6812,6.6812,6.6812,6.6812,6.6812,6.6745,6.6508,6.5967,6.5628,6.5222,6.4749,6.4478,6.441,6.4241,6.4208,6.4444,6.441,6.3802,6.3463,6.3396,6.2956,6.2482,6.2279,6.2178,6.1975,6.1873,6.2042,6.1738,6.1366,6.1129,6.0892,6.0283,5.9573,5.8998,5.8896,5.8558,5.8355,5.849,5.866,5.8321,5.8592,5.866,5.8084,5.7983,5.8254,5.8727,5.8896,5.9231,5.86,5.737,5.5377,5.4854,5.5059,5.5346,5.5485,5.6145,5.6402,5.5962,5.5215,5.468,5.4699,5.4266,5.3961,5.4061,5.4121,5.4686,5.507,5.5152,5.514,5.5089,5.5187,5.4708,5.4132,5.3746,5.27,5.2094,5.1602,5.1229,5.1229,5.1229,5.1229,5.1229,5.1229,5.1229,5.081,5.0571,5.0242,4.9942,4.9553,4.9284,4.9164,4.8536,4.8027,4.7848,4.7638,4.7369,4.7309,4.7309,4.7309,4.7309,4.7309,4.7309,4.7309,4.7309,4.7309,4.7309,4.7309,4.7309,7.0872,7.0128,6.9417,6.8639,6.7861,6.7117,6.6812,6.6812,6.6812,6.6812,6.6812,6.6812,6.6812,6.6711,6.644,6.6068,6.5696,6.5358,6.5222,6.5087,6.4918,6.485,6.5019,6.4816,6.4343,6.4241,6.4106,6.4072,6.3497,6.2787,6.2415,6.2448,6.2448,6.2313,6.2482,6.211,6.167,6.1163,6.052,5.9979,5.9708,5.9607,5.9471,5.9167,5.9471,5.937,5.9268,5.937,5.9505,5.9133,5.9133,5.9268,5.9539,5.9641,5.9772,5.9873,5.9127,5.7918,5.7078,5.7175,5.7232,5.7503,5.8011,5.8393,5.7762,5.6776,5.5893,5.555,5.536,5.5135,5.5107,5.5414,5.612,5.6538,5.6689,5.6927,5.7048,5.6936,5.6741,5.614,5.5463,5.4502,5.357,5.297,5.2276,5.1433,5.1386,5.1386,5.1293,5.1229,5.1229,5.1169,5.099,5.084,5.0571,5.0272,4.9942,4.9643,4.8745,4.8327,4.8087,4.7848,4.7549,4.7339,4.7309,4.7309,4.7309,4.7309,4.7309,4.7309,4.7309,4.7309,4.7309,4.7309,4.7309,7.0872,7.0128,6.9586,6.8808,6.7895,6.7286,6.7083,6.7083,6.7117,6.7083,6.7015,6.6914,6.6812,6.6812,6.6779,6.6474,6.6034,6.5967,6.5967,6.573,6.5527,6.5561,6.573,6.5425,6.5121,6.4884,6.4884,6.4681,6.4241,6.3666,6.3091,6.2956,6.3159,6.2922,6.2753,6.2651,6.2381,6.167,6.1129,6.0689,6.0452,6.0419,6.025,6.0182,6.025,6.0317,6.0148,6.0351,6.0385,6.0013,5.9945,6.0013,6.0317,6.0419,6.0588,6.0791,6.0536,6.027,5.9591,5.9392,5.9259,5.9458,5.9935,6.0281,5.9664,5.8442,5.7689,5.7444,5.6915,5.6605,5.6388,5.7008,5.7694,5.835,5.8828,5.9087,5.9172,5.876,5.8535,5.8151,5.7452,5.6735,5.578,5.4794,5.3621,5.2079,5.1635,5.1635,5.1635,5.1681,5.1727,5.1865,5.1309,5.1143,5.1006,5.075,5.0511,5.0136,4.9284,4.8745,4.8596,4.8147,4.7698,4.7519,4.7369,4.7309,4.7309,4.7309,4.7309,4.7309,4.7309,4.7309,4.7309,4.7309,4.7309,7.0872,7.0161,7.0128,6.9282,6.7929,6.7861,6.7827,6.7827,6.7827,6.7793,6.7624,6.7184,6.6914,6.6812,6.6812,6.6779,6.6711,6.6711,6.6643,6.6643,6.6677,6.6508,6.6508,6.6373,6.617,6.5696,6.5628,6.5256,6.485,6.4783,6.4444,6.441,6.4174,6.3903,6.3599,6.3294,6.2854,6.2279,6.1941,6.167,6.1366,6.1163,6.0926,6.052,6.0791,6.0926,6.025,6.0858,6.0994,6.0419,6.0452,6.0655,6.1095,6.1197,6.1434,6.1704,6.1839,6.1689,6.1425,6.1082,6.1037,6.1283,6.1559,6.1834,6.1379,6.0853,6.0328,5.9761,5.8836,5.8396,5.8374,5.869,5.9129,5.9567,6.0034,6.037,6.0364,6.0231,6.0001,5.9919,5.941,5.8621,5.8045,5.7045,5.4952,5.3365,5.2798,5.2767,5.2767,5.2812,5.2767,5.2589,5.1773,5.1449,5.1309,5.1113,5.087,5.0614,5.0032,4.9583,4.9284,4.8686,4.7878,4.7638,4.7459,4.7399,4.7309,4.7309,4.7309,4.7309,4.7309,4.7309,4.7309,4.7309,4.7309,7.1142,7.0872,7.0872,6.9992,6.8639,6.8639,6.8639,6.8639,6.8639,6.8335,6.7895,6.759,6.7218,6.6914,6.6812,6.6812,6.6812,6.6812,6.6812,6.6812,6.6812,6.6812,6.6812,6.6779,6.6643,6.6406,6.6339,6.6339,6.6068,6.5831,6.5967,6.5797,6.5121,6.4546,6.4174,6.3734,6.3091,6.2618,6.2415,6.2212,6.211,6.1975,6.1839,6.1637,6.167,6.1839,6.1637,6.1772,6.1738,6.1569,6.1434,6.1637,6.1806,6.1907,6.2076,6.2313,6.2381,6.2415,6.2415,6.211,6.1975,6.2009,6.2245,6.2415,6.2415,6.1911,6.1276,6.0712,6.0247,5.9784,5.8947,5.9434,6.0096,6.0604,6.1002,6.1361,6.1436,6.126,6.1231,6.1018,6.0811,6.0415,5.989,5.9332,5.6922,5.4645,5.4264,5.3956,5.3956,5.3956,5.3924,5.3656,5.2856,5.2395,5.229,5.1819,5.1293,5.1053,5.0783,5.0333,4.9839,4.8805,4.8087,4.7818,4.7622,4.7575,4.7486,4.7339,4.7309,4.7309,4.7309,4.7309,4.7309,4.7309,4.7309,7.1312,7.1312,7.1312,7.0567,6.9485,6.9214,6.9214,6.9383,6.9147,6.8808,6.8233,6.803,6.7489,6.6981,6.6812,6.6812,6.6812,6.6812,6.6812,6.6812,6.6812,6.6812,6.6812,6.6812,6.6779,6.6812,6.6812,6.6745,6.6677,6.6779,6.6711,6.6373,6.5865,6.5358,6.4715,6.3971,6.3226,6.2854,6.2482,6.2415,6.2381,6.2347,6.2347,6.2279,6.2313,6.2313,6.2212,6.2245,6.2279,6.2245,6.2279,6.2347,6.2381,6.2415,6.2415,6.2415,6.2415,6.2415,6.2415,6.2381,6.2381,6.2313,6.2347,6.2415,6.2415,6.2415,6.1837,6.1399,6.1152,6.0745,5.9827,6.0745,6.1119,6.1528,6.1723,6.206,6.2094,6.2009,6.2076,6.2076,6.1839,6.1429,6.0782,6.0083,5.8468,5.6417,5.5904,5.5407,5.5052,5.5052,5.5052,5.4681,5.4052,5.3699,5.3384,5.3077,5.2678,5.2033,5.1637,5.0909,5.0216,4.9284,4.8964,4.9161,4.8845,4.8089,4.7822,4.792,4.7615,4.7309,4.7309,4.7309,4.7309,4.7309,4.7309,7.1312,7.1312,7.1312,7.0872,7.0128,6.9417,6.9553,7.006,6.9553,6.9113,6.8774,6.8233,6.7523,6.6981,6.6914,6.7015,6.6981,6.6948,6.6948,6.6981,6.688,6.6846,6.6812,6.6812,6.6812,6.6812,6.6812,6.6812,6.6812,6.6812,6.6812,6.6812,6.6474,6.6102,6.5561,6.4241,6.3565,6.3396,6.2821,6.2584,6.255,6.2482,6.2415,6.2415,6.2415,6.2415,6.2415,6.2415,6.2415,6.2415,6.2415,6.2415,6.2415,6.2415,6.2415,6.2415,6.2415,6.2415,6.2415,6.2415,6.2415,6.2415,6.2415,6.2415,6.2415,6.2381,6.2341,6.1911,6.207,6.2183,6.2183,6.2223,6.2144,6.2183,6.2341,6.2415,6.2415,6.2415,6.2415,6.2415,6.2313,6.2076,6.1366,6.0574,5.9404,5.8223,5.7575,5.6988,5.6494,5.6362,5.6428,5.585,5.5296,5.4806,5.4515,5.4421,5.4041,5.3265,5.2497,5.1727,5.1092,5.0456,5.0313,5.0543,5.0221,4.9631,4.9028,4.8602,4.82,4.7795,4.7412,4.7309,4.7309,4.7309,4.7309,7.1312,7.1312,7.1312,7.1176,7.0906,7.0703,7.0737,7.0838,7.0567,6.9755,6.8605,6.847,6.7929,6.7286,6.732,6.7489,6.7523,6.7523,6.7523,6.7489,6.7083,6.6846,6.6846,6.6846,6.6812,6.6812,6.6812,6.6812,6.6812,6.6812,6.6812,6.6812,6.6779,6.6373,6.5797,6.5019,6.4783,6.4208,6.3599,6.3125,6.3091,6.2719,6.2482,6.2482,6.2448,6.2448,6.2415,6.2415,6.2415,6.2415,6.2415,6.2415,6.2415,6.2415,6.2415,6.2415,6.2415,6.2415,6.2415,6.2415,6.2415,6.2415,6.2415,6.2415,6.2415,6.2415,6.2415,6.2415,6.2415,6.2415,6.2341,6.2341,6.2302,6.2302,6.2415,6.2415,6.2415,6.2415,6.2415,6.2415,6.2347,6.2347,6.1907,6.1535,6.0511,5.9996,5.9382,5.8686,5.8117,5.8031,5.8001,5.7163,5.6509,5.6008,5.5651,5.549,5.5052,5.4263,5.3439,5.2586,5.1996,5.1631,5.1678,5.1849,5.157,5.1193,5.059,4.9894,4.8938,4.8313,4.7886,4.7472,4.7309,4.7309,4.7309,7.1312,7.1312,7.1312,7.1312,7.1278,7.1041,7.0906,7.0973,7.1109,7.0161,6.8774,6.8876,6.8436,6.7658,6.7658,6.8166,6.8233,6.7996,6.8199,6.8098,6.7218,6.7117,6.7083,6.6948,6.6846,6.6812,6.6812,6.6812,6.6812,6.6812,6.6812,6.6812,6.6812,6.6576,6.6136,6.5764,6.5392,6.4816,6.4309,6.3903,6.3768,6.3497,6.3125,6.2922,6.2787,6.2685,6.2482,6.2415,6.2415,6.2448,6.2415,6.2415,6.2415,6.2415,6.2415,6.2415,6.2415,6.2415,6.2415,6.2415,6.2415,6.2415,6.2415,6.2415,6.2415,6.2415,6.2415,6.2415,6.2415,6.2415,6.2415,6.2415,6.2415,6.2415,6.2415,6.2415,6.2415,6.2415,6.2415,6.2415,6.2415,6.2415,6.2381,6.2279,6.1829,6.1491,6.1192,6.0419,5.9607,5.9404,5.9133,5.8332,5.7745,5.7296,5.6857,5.647,5.5968,5.5256,5.4515,5.371,5.342,5.3138,5.3164,5.3113,5.2867,5.2554,5.2091,5.1357,5.0297,4.9243,4.8407,4.7932,4.7442,4.7309,4.7309,7.1312,7.1312,7.1312,7.1312,7.121,7.0669,7.0331,7.0297,7.1007,7.0466,6.9113,6.9113,6.8741,6.8098,6.803,6.8504,6.8876,6.8368,6.8504,6.8436,6.759,6.7557,6.7354,6.7184,6.6981,6.688,6.6914,6.7083,6.6914,6.7015,6.7015,6.6914,6.688,6.6745,6.6474,6.6203,6.5865,6.5561,6.5019,6.4681,6.4546,6.441,6.3971,6.37,6.3531,6.326,6.3024,6.2787,6.2685,6.2584,6.2516,6.2448,6.2415,6.2415,6.2415,6.2415,6.2415,6.2415,6.2415,6.2415,6.2584,6.2651,6.2584,6.2482,6.2415,6.2415,6.2415,6.2415,6.2415,6.2415,6.2415,6.2415,6.2415,6.2415,6.2415,6.2415,6.2415,6.2415,6.2415,6.2415,6.2415,6.2415,6.2415,6.2347,6.2347,6.2178,6.1806,6.1434,6.0723,6.025,5.9911,5.9231,5.8785,5.8586,5.8126,5.7591,5.7101,5.6381,5.5889,5.5183,5.4897,5.4608,5.4581,5.4478,5.4261,5.3979,5.3688,5.2812,5.1591,5.0607,4.9947,4.8598,4.8149,4.7442,4.7309,7.1312,7.1312,7.1312,7.1312,7.1278,7.1075,7.0703,7.0331,7.0973,7.0466,6.9147,6.9654,6.9383,6.8808,6.9282,6.962,6.9485,6.9214,6.8977,6.8605,6.803,6.7523,6.7387,6.7489,6.7218,6.7184,6.7286,6.759,6.759,6.759,6.759,6.7557,6.7117,6.6948,6.6745,6.6576,6.6474,6.6237,6.5662,6.5459,6.5222,6.5019,6.4613,6.4377,6.4309,6.4038,6.3869,6.3802,6.3632,6.326,6.3193,6.3057,6.2415,6.2415,6.2415,6.2415,6.2415,6.2415,6.2482,6.2888,6.3091,6.299,6.3057,6.2821,6.2618,6.2415,6.2415,6.2415,6.2415,6.2415,6.2415,6.2415,6.2415,6.2415,6.2415,6.2415,6.2415,6.2415,6.2415,6.2415,6.2415,6.2415,6.2415,6.2381,6.2381,6.2381,6.2279,6.2009,6.1704,6.1197,6.0655,6.0013,5.9708,5.9471,5.9066,5.85,5.8062,5.7611,5.712,5.6663,5.6139,5.5908,5.5962,5.5916,5.5803,5.562,5.5431,5.4373,5.3213,5.2704,5.1976,5.0263,4.8845,4.8498,4.7735,7.1312,7.1312,7.1312,7.1312,7.1312,7.1312,7.1007,7.077,7.1142,7.0601,6.9654,6.9992,6.9958,6.9654,6.9925,7.0094,7.006,6.9417,6.9214,6.9316,6.847,6.8368,6.8199,6.8199,6.8132,6.803,6.8064,6.8368,6.8368,6.8335,6.8301,6.7827,6.7354,6.7083,6.688,6.6779,6.6779,6.6609,6.6373,6.617,6.5899,6.5628,6.5425,6.5087,6.5053,6.4918,6.4681,6.4681,6.4377,6.4005,6.3937,6.3768,6.3226,6.3091,6.2888,6.2854,6.2516,6.2448,6.2448,6.2719,6.299,6.3091,6.3125,6.2821,6.2584,6.2415,6.2415,6.2415,6.2415,6.2415,6.2415,6.2415,6.2415,6.2415,6.2415,6.2415,6.2415,6.2415,6.2415,6.2415,6.2415,6.2415,6.2415,6.2415,6.2415,6.2415,6.2415,6.2313,6.2144,6.1907,6.1366,6.0723,6.052,6.0351,5.9877,5.9438,5.9092,5.8815,5.8694,5.8146,5.7486,5.7215,5.7325,5.7348,5.7338,5.7047,5.6573,5.5985,5.5084,5.4547,5.385,5.2403,5.1163,5.0705,4.9674,7.1312,7.1312,7.1312,7.1312,7.1312,7.1312,7.1278,7.1312,7.1278,7.0939,7.0364,7.0297,7.0331,7.0297,7.0432,7.0432,7.0229,6.9755,6.962,7.0128,6.9045,6.8774,6.918,6.9485,6.8977,6.9045,6.918,6.9248,6.9248,6.9045,6.8571,6.7996,6.7692,6.732,6.688,6.6812,6.6812,6.6779,6.6711,6.6643,6.6677,6.6643,6.6508,6.5933,6.5696,6.5527,6.5053,6.4816,6.4749,6.4715,6.4681,6.4647,6.4241,6.3937,6.3666,6.3497,6.3125,6.2854,6.2821,6.2956,6.2821,6.2753,6.2482,6.2685,6.2753,6.2448,6.2415,6.2415,6.2415,6.2415,6.2415,6.2415,6.2415,6.2415,6.2415,6.2415,6.2415,6.2415,6.2415,6.2415,6.2415,6.2415,6.2415,6.2415,6.2415,6.2415,6.2415,6.2415,6.2381,6.2279,6.1941,6.14,6.1332,6.1095,6.0554,6.0216,6.008,5.9937,5.9831,5.9524,5.8719,5.8597,5.869,5.8349,5.7971,5.7842,5.7453,5.6876,5.6397,5.6139,5.5339,5.4333,5.3512,5.3014,5.1464,7.1312,7.1312,7.1312,7.1312,7.1312,7.1312,7.1312,7.1312,7.1312,7.121,7.1075,7.1007,7.1007,7.0939,7.0872,7.0838,7.0635,6.9823,7.0026,7.006,6.9485,6.9316,6.962,6.9891,6.962,6.9417,6.9586,7.0128,7.0161,6.9654,6.9011,6.8605,6.7963,6.7117,6.6846,6.6812,6.6812,6.6812,6.6812,6.6812,6.6812,6.6812,6.6677,6.6508,6.644,6.6373,6.6102,6.617,6.5865,6.5595,6.5459,6.5121,6.4613,6.4444,6.4343,6.4309,6.4072,6.3666,6.3463,6.3531,6.3565,6.3294,6.3193,6.3226,6.3091,6.2651,6.2415,6.2415,6.2415,6.2415,6.2415,6.2415,6.2415,6.2415,6.2415,6.2415,6.2415,6.2415,6.2415,6.2415,6.2415,6.2415,6.2415,6.2415,6.2415,6.2415,6.2415,6.2415,6.2415,6.2347,6.2347,6.1975,6.2076,6.1839,6.1298,6.096,6.0892,6.0588,6.0381,6.011,5.9877,5.9336,5.8863,5.866,5.8423,5.8118,5.7881,5.7775,5.7413,5.7156,5.6901,5.5892,5.5847,5.5479,5.3464,7.1312,7.1312,7.1312,7.1312,7.1312,7.1312,7.1312,7.1312,7.1312,7.1312,7.1312,7.1312,7.1312,7.1176,7.0973,7.0669,7.0398,6.9485,6.9383,6.9553,6.9891,6.9958,7.0094,7.0398,7.0466,7.0297,7.0432,7.077,7.0703,7.0161,6.9417,6.8639,6.7557,6.7117,6.6914,6.6812,6.6846,6.6812,6.6812,6.6812,6.6812,6.6812,6.6812,6.6812,6.6812,6.6812,6.6812,6.6812,6.6576,6.6305,6.6203,6.6102,6.5662,6.5324,6.5121,6.4952,6.4749,6.441,6.4241,6.4241,6.4309,6.3802,6.3491,6.3429,6.2854,6.2415,6.2415,6.2415,6.2415,6.2415,6.2415,6.2415,6.2415,6.2415,6.2415,6.2415,6.2415,6.2415,6.2415,6.2415,6.2415,6.2415,6.2415,6.2415,6.2415,6.2415,6.2415,6.2415,6.2415,6.2415,6.2415,6.2415,6.2415,6.2381,6.1941,6.1738,6.167,6.1332,6.096,6.0892,6.0689,5.9641,5.893,5.8829,5.8558,5.8051,5.7881,5.7881,5.7881,5.7594,5.7594,5.7453,5.7517,5.7297,5.5644,7.1312,7.1312,7.1312,7.1312,7.1312,7.1312,7.1312,7.1312,7.1312,7.1312,7.1312,7.1312,7.1312,7.1075,7.0669,7.0026,6.9519,6.935,6.9147,6.9417,6.9451,7.0094,7.077,7.121,7.1075,7.0973,7.0973,7.0635,7.0297,6.9654,6.8876,6.8064,6.776,6.7523,6.7049,6.6914,6.7015,6.688,6.6812,6.6812,6.6812,6.6812,6.6812,6.6812,6.6812,6.6812,6.6812,6.6812,6.677,6.6779,6.6677,6.6609,6.6474,6.6068,6.5933,6.573,6.5459,6.5087,6.4816,6.4816,6.4309,6.3802,6.3632,6.326,6.2685,6.2415,6.2415,6.2415,6.2415,6.2415,6.2415,6.2415,6.2415,6.2415,6.2415,6.2415,6.2415,6.2415,6.2415,6.2415,6.2415,6.2415,6.2415,6.2415,6.2415,6.2415,6.2415,6.2415,6.2415,6.2415,6.2415,6.2415,6.2415,6.2381,6.2313,6.2245,6.2076,6.2042,6.1704,6.1704,6.14,6.0283,5.9471,5.9133,5.8761,5.8118,5.7881,5.7881,5.7881,5.7881,5.7881,5.7775,5.7775,5.7591,5.7297,7.1312,7.1312,7.1312,7.1312,7.1278,7.1312,7.1312,7.1312,7.1312,7.1312,7.1312,7.1312,7.1312,7.1312,7.121,7.0804,7.0297,6.9722,7.0195,7.0804,7.006,7.0534,7.1075,7.1312,7.1312,7.1142,7.0838,7.0364,7.0026,6.9079,6.8335,6.7996,6.7963,6.7624,6.7083,6.7117,6.7354,6.7049,6.6812,6.6812,6.6812,6.6812,6.6812,6.6812,6.6812,6.6812,6.6812,6.6812,6.6812,6.6812,6.6812,6.6812,6.6745,6.6609,6.6508,6.6406,6.6136,6.5899,6.5662,6.5527,6.4986,6.4005,6.3768,6.3362,6.2854,6.2448,6.2415,6.2415,6.2415,6.2415,6.2415,6.2415,6.2415,6.2415,6.2415,6.2415,6.2415,6.2415,6.2415,6.2415,6.2415,6.2415,6.2415,6.2415,6.2415,6.2415,6.2415,6.2415,6.2415,6.2415,6.2415,6.2415,6.2415,6.2415,6.2381,6.2381,6.2279,6.2381,6.2381,6.2178,6.167,6.0791,6.0114,5.9641,5.8829,5.8084,5.7949,5.7881,5.7881,5.7881,5.7881,5.7881,5.7881,5.7845,5.7591]}]]